     2              OBSERVATION DATA    GPS                 RINEX VERSION / TYPE
teqc 2000Feb29 20030805 03:03:52UTC                         PGM / RUN BY / DATE
                                                            COMMENT
L2: 1 -> 1; 150 -> 5; 250 -> 9                              COMMENT
L2: 1 -> 1; 150 -> 5; 250 -> 9                              COMMENT
L2: 1 -> 1; 150 -> 5; 250 -> 9                              COMMENT
L2: 1 -> 1; 150 -> 5; 250 -> 9                              COMMENT
L2: 1 -> 1; 150 -> 5; 250 -> 9                              COMMENT
Original Marker Name: LAZY                                  COMMENT
Campaign Name: USC/SCEC 2003                                COMMENT
4-Character Station Name: LAZY                              COMMENT
6-Character Antenna Code: DMRCHT                            COMMENT
Vertical Measurement Point: BCR                             COMMENT
Vertical Offset to Rinex Ref. Point: 0.0348                 COMMENT
Radial Measurement Point: ECF                               COMMENT
Radial Offset to Rinex Ref. Point: 0.1897                   COMMENT
Antenna Height from Field Measurement: 0.5600 m             COMMENT
Additional Antenna Identification Info.:                    COMMENT
Turborogue and Ashtech Choke Ring                           COMMENT
Original XYZ: -2353807.7901 -4718145.6714 3578599.8731      COMMENT
New XYZ position is based on association with SCEC monument COMMENT
E1F2G7O2+0011. Position of that monument is believed to be  COMMENT
valid to within 1 m horizontally; vertical accuracy         COMMENT
should be no worse than 3-times this value.                 COMMENT
                                                            COMMENT
Revised Rinex header created by UCSD GPS archive for        COMMENT
GSAC on 09-Nov-2004 (2004:314) 22:54:51 GMT                 COMMENT
For assistance contact dagnew@ucsd.edu                      COMMENT
or anderson@python.ucsd.edu                                 COMMENT
                                                            COMMENT
LAZY 1980                                                   MARKER NAME
KEA UNIV SOUTHERN CALIFORNIA                                OBSERVER / AGENCY
175 ASHTECH Z-XII3 CD00                                     REC # / TYPE / VERS
379 DORNE-MARGOL. TYPE T                                    ANT # / TYPE
 -2353803.0000 -4718133.0000  3578586.0000                  APPROX POSITION XYZ
        0.4921        0.0000        0.0000                  ANTENNA: DELTA H/E/N
     1     1     0                                          WAVELENGTH FACT L1/2
     7    C1    L1    L2    P1    P2    S1    S2            # / TYPES OF OBSERV
     0                                                      INTERVAL
  2003     1    13     0     0   30.000000                  TIME OF FIRST OBS
  2003     1    13    23    59   30.000000                  TIME OF LAST OBS
                                                            END OF HEADER
 03  1 13  0  0 30.0000000  0  7G 9G 5G 4G10G30G 6G24
  24839133.491    -4311139.75449  -3329193.55845  24839134.425    24839149.535
       211.000         148.000
  20418096.911   -28492779.48949 -22175207.31848  20418096.516    20418103.704
       246.000         217.000
  24022151.206    -3528716.52449  -2394230.65045  24022151.351    24022161.855
       214.000         150.000
  21279171.728   -19601208.95249 -14615915.89047  21279170.966    21279179.271
       237.000         199.000
  20842141.774   -24931332.38449 -19375190.91347  20842142.095    20842148.956
       243.000         206.000
  23079441.259   -13381140.63849 -10383969.64246  23079441.255    23079449.394
       222.000         171.000
  21674799.529   -18403884.99449 -13975045.26847  21674799.638    21674807.748
       238.000         200.000
 03  1 13  0  1  0.0000000  0  7G 9G 5G 4G10G30G 6G24
  24856439.106    -4220199.93549  -3258331.53445  24856439.855    24856452.783
       210.000         147.000
  20423967.566   -28461928.86449 -22151167.86548  20423967.172    20423974.356
       246.000         217.000
  24040753.991    -3430958.20549  -2318055.38745  24040754.792    24040764.724
       215.000         150.000
  21268977.216   -19654781.10549 -14657660.34447  21268976.614    21268984.621
       237.000         200.000
  20832692.400   -24980989.11249 -19413884.41747  20832692.667    20832699.568
       243.000         206.000
  23066406.881   -13449636.48149 -10437342.87646  23066406.669    23066416.006
       222.000         172.000
  21687757.637   -18335789.76849 -13921984.06247  21687757.568    21687765.919
       238.000         199.000
 03  1 13  0  1 30.0000000  0  7G 9G 5G 4G10G30G 6G24
  24873724.973    -4129362.91049  -3187549.58045  24873725.528    24873739.321
       207.000         145.000
  20429939.441   -28430546.44549 -22126714.03348  20429938.948    20429946.224
       246.000         217.000
  24059357.995    -3333193.86849  -2241875.43845  24059358.233    24059368.325
       211.000         150.000
  21258883.950   -19707821.35049 -14698990.33147  21258883.291    21258891.305
       238.000         200.000
  20823335.787   -25030158.17849 -19452197.93647  20823336.084    20823342.849
       242.000         206.000
  23053378.855   -13518098.93149 -10490690.11146  23053378.348    23053387.725
       222.000         172.000
  21700754.567   -18267490.72449 -13868764.04347  21700754.530    21700762.615
       238.000         199.000
 03  1 13  0  2  0.0000000  0  7G 9G 5G 4G10G30G 6G24
  24890990.495    -4038632.35849  -3116850.64045  24890990.546    24891004.797
       205.000         143.000
  20436012.177   -28398633.97649 -22101847.17448  20436011.813    20436019.001
       246.000         217.000
  24077962.648    -3235426.16149  -2165692.85545  24077963.023    24077972.991
       212.000         150.000
  21248892.187   -19760328.09449 -14739904.60947  21248891.449    21248899.486
       238.000         200.000
  20814072.166   -25078838.69149 -19490130.75847  20814072.557    20814079.348
       243.000         206.000
  23040357.002   -13586528.57249 -10544011.77946  23040356.833    23040365.946
       222.000         173.000
  21713789.594   -18198991.25649 -13815387.85247  21713789.506    21713797.589
       238.000         199.000
 03  1 13  0  2 30.0000000  0  7G 9G 5G 4G10G30G 6G24
  24908235.415    -3948010.32449  -3046236.27445  24908235.717    24908249.772
       208.000         146.000
  20442185.800   -28366191.37549 -22076567.22348  20442185.350    20442192.580
       246.000         217.000
  24096567.696    -3137656.17749  -2089508.50545  24096567.304    24096578.222
       209.000         149.000
  21239002.409   -19812299.10049 -14780401.42047  21239001.475    21239009.657
       238.000         200.000
  20804902.029   -25127028.01349 -19527680.82747  20804902.356    20804909.044
       243.000         207.000
  23027341.478   -13654924.63049 -10597307.27746  23027341.973    23027350.029
       223.000         173.000
  21726862.463   -18130292.74949 -13761856.55647  21726862.316    21726870.630
       238.000         198.000
 03  1 13  0  3  0.0000000  0  7G 9G 5G 4G10G30G 6G24
  24925459.248    -3857498.84249  -2975708.05045  24925460.353    24925473.764
       209.000         147.000
  20448460.239   -28333219.02249 -22050874.48048  20448459.946    20448467.138
       245.000         217.000
  24115172.989    -3039885.29849  -2013323.46845  24115173.803    24115183.760
       213.000         150.000
  21229215.074   -19863731.68049 -14820478.68647  21229214.151    21229222.358
       238.000         200.000
  20795825.785   -25174723.78649 -19564846.31847  20795825.929    20795832.873
       243.000         207.000
  23014332.603   -13723286.24549 -10650575.94246  23014332.119    23014340.392
       222.000         173.000
  21739972.917   -18061396.95849 -13708171.54147  21739972.900    21739981.366
       238.000         198.000
 03  1 13  0  3 30.0000000  0  7G 9G 5G 4G10G30G 6G24
  24942661.460    -3767101.34149  -2905268.63345  24942662.534    24942676.284
       210.000         145.000
  20454835.166   -28299718.48449 -22024770.16448  20454834.733    20454841.981
       246.000         217.000
  24133777.820    -2942116.12949  -1937139.75445  24133778.233    24133787.574
       213.000         150.000
  21219530.415   -19914624.53049 -14860135.38747  21219529.595    21219537.819
       238.000         201.000
  20786843.598   -25221925.18049 -19601626.57647  20786843.907    20786850.669
       243.000         207.000
  23001330.105   -13791613.96549 -10703818.20046  23001329.221    23001339.294
       223.000         173.000
  21753120.334   -17992306.95249 -13654335.19047  21753120.358    21753128.165
       238.000         198.000
 03  1 13  0  4  0.0000000  0  7G 9G 5G 4G10G30G 6G24
  24959841.572    -3676820.20249  -2834919.81145  24959841.182    24959856.762
       204.000         140.000
  20461310.576   -28265690.05749 -21998254.50648  20461310.190    20461317.382
       246.000         217.000
  24152382.254    -2844349.86049  -1860958.30445  24152383.173    24152392.683
       210.000         150.000
  21209948.920   -19964975.21449 -14899369.61747  21209948.348    21209956.054
       238.000         201.000
  20777955.952   -25268629.76049 -19638019.70247  20777956.260    20777963.098
       243.000         207.000
  22988334.282   -13859907.08449 -10757033.50046  22988333.608    22988343.171
       224.000         174.000
  21766304.348   -17923024.56849 -13600348.93047  21766304.301    21766312.487
       238.000         198.000
 03  1 13  0  4 30.0000000  0  7G 9G 5G 4G10G30G 6G24
  24976998.981    -3586657.94449  -2764663.72345  24976998.784    24977013.962
       210.000         144.000
  20467886.257   -28231134.56949 -21971328.15148  20467885.808    20467893.163
       246.000         217.000
  24170985.725    -2746588.27849  -1784780.49245  24170986.134    24170996.720
       212.000         149.000
  21200471.017   -20014781.59649 -14938179.71547  21200470.260    21200478.343
       238.000         201.000
  20769163.212   -25314835.68049 -19674024.26147  20769163.497    20769170.398
       243.000         207.000
  22975345.141   -13928165.11849 -10810221.47546  22975344.860    22975353.407
       224.000         174.000
  21779524.651   -17853551.57249 -13546214.14447  21779524.519    21779532.941
       237.000         197.000
 03  1 13  0  5  0.0000000  0  8G17G 9G 5G 4G10G30G 6G24
  25045812.817    -2270220.07849  -1742153.24645  25045810.986    25045825.788
       205.000         135.000
  24994133.470    -3496616.60949  -2694501.81345  24994134.561    24994149.959
       213.000         151.000
  20474562.212   -28196052.05749 -21943991.12948  20474561.916    20474569.015
       246.000         216.000
  24189587.986    -2648832.38349  -1708607.12945  24189589.426    24189598.269
       212.000         149.000
  21191097.216   -20064040.97649 -14976563.58247  21191096.259    21191104.579
       238.000         201.000
  20760465.848   -25360540.37149 -19709638.25747  20760466.158    20760472.684
       243.000         207.000
  22962362.903   -13996386.93149 -10863381.23046  22962362.317    22962370.868
       224.000         174.000
  21792780.817   -17783889.80749 -13491932.27147  21792780.682    21792789.007
       237.000         197.000
 03  1 13  0  5 30.0000000  0  8G17G 9G 5G 4G10G30G 6G24
  25028935.146    -2358912.03949  -1811263.55345  25028933.840    25028948.508
       205.000         136.000
  25011244.321    -3406699.83549  -2624437.01145  25011245.665    25011258.760
       205.000         146.000
  20481338.144   -28160444.29449 -21916244.82148  20481337.765    20481344.968
       245.000         216.000
  24208188.808    -2551085.03749  -1632440.41245  24208189.089    24208199.547
       212.000         149.000
  21181827.696   -20112752.25649 -15014520.36047  21181826.677    21181835.062
       238.000         201.000
  20751864.029   -25405743.11949 -19744861.12447  20751864.333    20751870.966
       243.000         207.000
  22949387.359   -14064573.39549 -10916513.43746  22949386.790    22949395.690
       224.000         174.000
  21806072.320   -17714042.48449 -13437505.80247  21806072.430    21806080.338
       237.000         197.000
 03  1 13  0  6  0.0000000  0  8G17G 9G 5G 4G10G30G 6G24
  25012082.282    -2447473.49549  -1880272.12745  25012081.216    25012093.908
       207.000         138.000
  25028330.616    -3316910.90449  -2554471.75545  25028328.259    25028344.340
       196.000         137.000
  20488213.700   -28124312.96749 -21888090.54348  20488213.175    20488220.415
       245.000         216.000
  24226787.526    -2453348.38849  -1556282.02845  24226787.554    24226798.726
       211.000         149.000
  21172662.734   -20160914.10649 -15052049.01247  21172661.901    21172670.051
       238.000         201.000
  20743357.930   -25450442.66849 -19779691.89247  20743358.112    20743364.897
       243.000         207.000
  22936418.418   -14132724.76949 -10969618.31046  22936417.918    22936427.239
       224.000         174.000
  21819398.672   -17644012.05849 -13382936.66047  21819398.595    21819406.782
       238.000         197.000
 03  1 13  0  6 30.0000000  0  8G17G 9G 5G 4G10G30G 6G24
  24995255.102    -2535900.02849  -1949175.62945  24995254.076    24995267.415
       205.000         139.000
  25045392.676    -3227248.79349  -2484605.36545  25045394.184    25045409.058
       210.000         137.000
  20495189.365   -28087655.51749 -21859526.29548  20495189.046    20495196.156
       246.000         216.000
  24245384.447    -2355620.95649  -1480130.82945  24245383.980    24245394.239
       208.000         148.000
  21163603.329   -20208521.30949 -15089145.46547  21163602.653    21163610.751
       238.000         202.000
  20734948.586   -25494633.95649 -19814126.60947  20734948.904    20734955.608
       243.000         208.000
  22923456.946   -14200837.30449 -11022692.91746  22923457.021    22923465.166
       223.000         175.000
  21832760.049   -17573797.59649 -13328224.10347  21832759.895    21832768.270
       238.000         197.000
 03  1 13  0  7  0.0000000  0  8G17G 9G 5G 4G10G30G 6G24
  24978452.948    -2624194.18749  -2017975.94845  24978450.978    24978464.972
       204.000         136.000
  25062429.904    -3137719.18449  -2414842.19145  25062429.711    25062446.102
       208.000         142.000
  20502264.365   -28050475.99749 -21830555.24448  20502263.938    20502271.068
       246.000         216.000
  24263978.852    -2257907.10349  -1403990.22345  24263979.267    24263989.287
       210.000         148.000
  21154649.284   -20255574.86649 -15125810.51647  21154648.542    21154656.689
       238.000         202.000
  20726635.742   -25538318.16849 -19848166.20747  20726636.078    20726642.661
       244.000         208.000
  22910502.408   -14268913.38149 -11075739.12546  22910502.209    22910510.298
       223.000         174.000
  21846155.448   -17503404.34749 -13273372.23947  21846155.491    21846163.748
       238.000         197.000
 03  1 13  0  7 30.0000000  0  7G17G 5G 4G10G30G 6G24
  24961676.518    -2712353.66149  -2086671.32145  24961675.941    24961688.646
       206.000         138.000
  20509438.714   -28012774.60049 -21801177.53448  20509438.271    20509445.671
       245.000         216.000
  24282570.476    -2160207.93349  -1327861.02845  24282571.286    24282582.305
       211.000         147.000
  21145801.100   -20302072.03649 -15162042.00947  21145800.497    21145808.567
       238.000         202.000
  20718419.873   -25581492.68849 -19881808.63647  20718420.026    20718426.780
       243.000         208.000
  22897554.998   -14336952.01649 -11128756.13846  22897554.773    22897562.926
       224.000         175.000
  21859584.708   -17432833.17649 -13218381.72447  21859584.754    21859593.016
       237.000         196.000
 03  1 13  0  8  0.0000000  0  7G17G 5G 4G10G30G 6G24
  24944926.237    -2800376.34449  -2155260.13045  24944925.098    24944938.028
       205.000         139.000
  20516712.505   -27974550.57949 -21771392.58548  20516712.106    20516719.376
       245.000         216.000
  24301159.294    -2062523.36849  -1251743.22845  24301159.767    24301169.756
       212.000         148.000
  21137059.516   -20348008.99549 -15197836.98047  21137058.849    21137066.897
       238.000         202.000
  20710301.668   -25624154.04849 -19915051.20347  20710301.826    20710308.623
       243.000         208.000
  22884615.106   -14404951.13749 -11181742.37746  22884615.011    22884623.608
       223.000         175.000
  21873047.697   -17362084.63849 -13163253.00647  21873047.864    21873055.851
       237.000         196.000
 03  1 13  0  8 30.0000000  0  7G17G 5G 4G10G30G 6G24
  24928202.022    -2888261.22549  -2223741.56945  24928201.026    24928213.315
       207.000         138.000
  20524085.701   -27935804.28349 -21741200.67148  20524085.351    20524092.551
       245.000         216.000
  24319745.140    -1964854.53249  -1175637.66945  24319745.670    24319754.873
       211.000         148.000
  21128424.995   -20393383.43649 -15233193.62447  21128424.256    21128432.248
       238.000         202.000
  20702281.449   -25666300.31549 -19947892.40147  20702281.659    20702288.283
       242.000         208.000
  22871682.887   -14472909.90749 -11234697.16446  22871682.294    22871691.172
       224.000         175.000
  21886544.045   -17291160.93149 -13107987.79047  21886543.621    21886552.593
       236.000         196.000
 03  1 13  0  9  0.0000000  0  8G17G 5G 4G10G30G 6G24G23
  24911504.141    -2976007.97149  -2292115.35545  24911502.466    24911516.425
       204.000         137.000
  20531557.853   -27896537.89949 -21710603.48848  20531557.558    20531564.638
       246.000         216.000
  24338327.289    -1867204.28049  -1099546.59945  24338328.126    24338338.868
       209.000         148.000
  21119897.622   -20438194.84349 -15268111.54047  21119896.900    21119904.817
       238.000         202.000
  20694359.434   -25707930.69649 -19980331.60647  20694359.733    20694366.319
       242.000         208.000
  22858758.144   -14540829.23449 -11287621.20946  22858758.091    22858766.149
       225.000         175.000
  21900073.191   -17220064.99849 -13052588.37247  21900073.165    21900081.830
       237.000         196.000
  24449143.970    -3199661.56648  -1799050.25245  24449141.821    24449157.913
       191.000         140.000
 03  1 13  0  9 30.0000000  0  8G17G 5G 4G10G30G 6G24G23
  24894832.702    -3063615.20349  -2360380.36245  24894831.517    24894846.297
       209.000         141.000
  20539128.994   -27856751.31949 -21679600.96648  20539128.637    20539135.693
       246.000         216.000
  24356905.804    -1769573.09149  -1023470.36845  24356906.265    24356917.481
       213.000         148.000
  21111477.943   -20482440.33849 -15302588.48847  21111477.198    21111485.093
       238.000         203.000
  20686536.063   -25749042.56749 -20012366.78547  20686536.289    20686542.877
       242.000         208.000
  22845841.327   -14608707.45749 -11340513.22646  22845841.383    22845849.666
       225.000         175.000
  21913634.877   -17148797.80849 -12997055.50847  21913634.786    21913643.237
       237.000         196.000
  24428958.018    -3305735.55149  -1881704.81845  24428957.934    24428971.016
       213.000         137.000
 03  1 13  0 10  0.0000000  0  8G17G 5G 4G10G30G 6G24G23
  24878188.032    -3151082.48349  -2428536.38245  24878187.159    24878199.621
       209.000         142.000
  20546798.749   -27816446.53949 -21648194.65148  20546798.407    20546805.614
       246.000         216.000
  24375480.307    -1671963.50449   -947411.00045  24375480.386    24375491.152
       211.000         148.000
  21103166.109   -20526119.07649 -15336623.80647  21103165.513    21103173.210
       239.000         203.000
  20678811.509   -25789635.13949 -20043997.31247  20678811.806    20678818.299
       243.000         208.000
  22832932.153   -14676545.28449 -11393373.77646  22832932.020    22832940.934
       224.000         175.000
  21927228.590   -17077362.48249 -12941391.62447  21927228.905    21927237.076
       236.000         195.000
  24408772.823    -3411809.31449  -1964359.23145  24408771.139    24408786.415
       205.000         147.000
 03  1 13  0 10 30.0000000  0  8G17G 5G 4G10G30G 6G24G23
  24861570.141    -3238409.18549  -2496582.85045  24861568.284    24861581.942
       205.000         138.000
  20554566.951   -27775624.45549 -21616385.24048  20554566.540    20554573.801
       246.000         216.000
  24394050.389    -1574376.96349   -871369.55945  24394049.831    24394059.975
       209.000         148.000
  21094962.575   -20569228.85249 -15370215.77547  21094961.632    21094969.985
       238.000         203.000
  20671186.129   -25829706.52549 -20075221.71947  20671186.345    20671192.739
       242.000         209.000
  22820030.745   -14744341.99749 -11446202.29346  22820031.111    22820038.889
       226.000         175.000
  21940853.976   -17005760.81049 -12885598.12347  21940853.963    21940862.333
       236.000         195.000
  24388587.431    -3517880.62249  -2047011.58345  24388584.764    24388601.054
       200.000         141.000
 03  1 13  0 11  0.0000000  0  8G17G 5G 4G10G30G 6G24G23
  24844979.085    -3325594.17049  -2564518.90645  24844977.290    24844990.783
       204.000         138.000
  20562433.477   -27734285.62849 -21584173.17548  20562433.094    20562440.200
       246.000         215.000
  24412616.122    -1476814.41349   -795346.80945  24412615.678    24412626.376
       211.000         147.000
  21086867.676   -20611767.49149 -15403362.70647  21086866.666    21086874.888
       238.000         203.000
  20663660.374   -25869254.44749 -20106038.23947  20663660.745    20663667.052
       243.000         209.000
  22807137.451   -14812096.43049 -11498997.86046  22807137.427    22807146.065
       225.000         175.000
  21954510.754   -16933993.99649 -12829675.93547  21954510.709    21954518.847
       236.000         195.000
  24368403.468    -3623945.85349  -2129659.29245  24368402.316    24368415.639
       212.000         138.000
 03  1 13  0 11 30.0000000  0  8G17G 5G 4G10G30G 6G24G23
  24828415.113    -3412637.23349  -2632344.37345  24828414.326    24828427.318
       204.000         140.000
  20570397.944   -27692431.95849 -21551559.93548  20570397.680    20570404.774
       245.000         215.000
  24431176.797    -1379278.14749   -719344.52345  24431178.017    24431187.091
       212.000         147.000
  21078881.647   -20653733.97749 -15436063.80747  21078881.034    21078888.733
       239.000         203.000
  20656234.373   -25908278.22049 -20136446.33047  20656234.586    20656241.151
       243.000         209.000
  22794252.058   -14879809.10349 -11551760.88846  22794252.018    22794261.091
       225.000         176.000
  21968198.327   -16862065.38849 -12773627.68347  21968198.333    21968206.541
       235.000         195.000
  24348221.004    -3730003.51149  -2212301.18845  24348219.598    24348234.043
       206.000         142.000
 03  1 13  0 12  0.0000000  0  8G17G 5G 4G10G30G 6G24G23
  24811878.323    -3499537.09949  -2700058.23745  24811876.335    24811890.627
       208.000         143.000
  20578460.308   -27650063.88049 -21518545.85948  20578459.999    20578467.058
       245.000         215.000
  24449731.952    -1281769.39949   -643363.72245  24449731.573    24449743.029
       209.000         145.000
  21071004.917   -20695126.16849 -15468317.40447  21071003.987    21071011.929
       239.000         203.000
  20648908.523   -25946775.55249 -20166444.21147  20648908.768    20648915.234
       243.000         209.000
  22781374.885   -14947478.97749 -11604490.58146  22781374.882    22781383.697
       225.000         176.000
  21981916.416   -16789976.43049 -12717454.48147  21981916.626    21981924.792
       236.000         195.000
  24328040.439    -3836050.66849  -2294934.74945  24328038.379    24328053.529
       203.000         143.000
 03  1 13  0 12 30.0000000  0  8G17G 5G 4G10G30G 6G24G23
  24795369.002    -3586293.04049  -2767659.98245  24795367.724    24795380.621
       205.000         142.000
  20586620.313   -27607182.72449 -21485131.97448  20586619.930    20586627.081
       245.000         215.000
  24468281.589    -1184289.75549   -567405.53745  24468281.921    24468291.953
       209.000         144.000
  21063237.824   -20735942.41249 -15500122.20547  21063237.114    21063244.844
       239.000         203.000
  20641683.148   -25984745.00649 -20196030.75447  20641683.530    20641689.778
       243.000         209.000
  22768505.862   -15015105.77249 -11657186.68746  22768506.081    22768514.253
       224.000         176.000
  21995664.579   -16717729.32149 -12661158.04047  21995664.179    21995672.666
       235.000         194.000
  24307862.658    -3942084.53249  -2377558.01345  24307862.017    24307876.493
       210.000         146.000
 03  1 13  0 13  0.0000000  0  8G17G 5G 4G10G30G 6G24G23
  24778887.212    -3672903.82649  -2835148.62245  24778885.734    24778898.439
       203.000         139.000
  20594877.889   -27563788.91749 -21451318.62748  20594877.473    20594884.866
       245.000         215.000
  24486825.611    -1086840.19549   -491470.82045  24486825.433    24486836.474
       209.000         144.000
  21055580.742   -20776180.33149 -15531476.36847  21055579.995    21055587.954
       240.000         204.000
  20634558.642   -26022184.39949 -20225204.26847  20634559.052    20634565.574
       242.000         209.000
  22755645.288   -15082688.22549 -11709848.24246  22755644.985    22755653.766
       224.000         176.000
  22009442.545   -16645325.61949 -12604739.58047  22009442.760    22009450.987
       236.000         194.000
  24287687.722    -4048102.17149  -2460168.76345  24287685.115    24287698.966
       205.000         140.000
 03  1 13  0 13 30.0000000  0  8G17G 5G 4G10G30G 6G24G23
  24762433.344    -3759368.01349  -2902523.02345  24762432.765    24762444.358
       207.000         141.000
  20603232.859   -27519883.20749 -21417106.39448  20603232.599    20603239.687
       245.000         215.000
  24505363.803     -989421.67449   -415560.30245  24505364.209    24505374.654
       207.000         143.000
  21048034.131   -20815837.73149 -15562378.18647  21048033.260    21048041.462
       240.000         204.000
  20627535.362   -26059091.72049 -20253963.18047  20627535.694    20627542.318
       243.000         209.000
  22742793.322   -15150225.37249 -11762474.50346  22742792.552    22742801.743
       224.000         176.000
  22023250.053   -16572766.46849 -12548199.99147  22023250.061    22023258.390
       235.000         193.000
  24267516.762    -4154100.28249  -2542764.19045  24267514.869    24267528.874
       209.000         144.000
 03  1 13  0 14  0.0000000  0  8G17G 5G 4G10G30G 6G24G23
  24746007.323    -3845686.79849  -2969784.17745  24746006.866    24746019.061
       209.000         143.000
  20611684.781   -27475467.98449 -21382497.13748  20611684.258    20611691.682
       245.000         215.000
  24523895.500     -892036.96349   -339676.11345  24523894.771    24523906.882
       207.000         143.000
  21040598.033   -20854914.48949 -15592827.55247  21040597.298    21040605.178
       239.000         204.000
  20620613.416   -26095466.62049 -20282307.22447  20620613.726    20620620.149
       242.000         209.000
  22729949.795   -15217718.09649 -11815066.15046  22729949.234    22729958.013
       224.000         177.000
  22037086.511   -16500055.42849 -12491542.05147  22037086.562    22037095.168
       235.000         193.000
  24247349.625    -4260077.64749  -2625343.49945  24247346.721    24247361.576
       207.000         145.000
 03  1 13  0 14 30.0000000  0  8G17G 5G 4G10G30G 6G24G23
  24729609.490    -3931857.24149  -3036929.70745  24729608.009    24729621.888
       206.000         145.000
  20620233.664   -27430543.32549 -21347490.92148  20620233.379    20620240.553
       245.000         215.000
  24542420.781     -794686.37949   -263818.50745  24542421.135    24542432.559
       208.000         144.000
  21033273.030   -20893407.55049 -15622822.09647  21033272.498    21033280.325
       240.000         204.000
  20613793.309   -26131306.29449 -20310234.21047  20613793.568    20613800.317
       242.000         209.000
  22717115.031   -15285164.72549 -11867621.86746  22717114.189    22717123.785
       225.000         177.000
  22050951.649   -16427193.65449 -12434766.65347  22050951.124    22050959.735
       234.000         193.000
  24227187.115    -4366030.24749  -2707903.59245  24227185.618    24227199.698
       205.000         143.000
 03  1 13  0 15  0.0000000  0  8G17G 5G 4G10G30G 6G24G23
  24713239.611    -4017879.62949  -3103959.84545  24713238.171    24713251.453
       204.000         141.000
  20628879.173   -27385110.88849 -21312089.03048  20628878.944    20628886.224
       245.000         215.000
  24560939.156     -697371.88049   -187989.03345  24560939.166    24560950.667
       207.000         142.000
  21026059.274   -20931316.00449 -15652361.09947  21026058.742    21026066.466
       240.000         204.000
  20607075.228   -26166609.73949 -20337743.35347  20607075.518    20607081.871
       242.000         209.000
  22704289.071   -15352565.30649 -11920141.71646  22704289.398    22704297.823
       225.000         178.000
  22064845.055   -16354183.22049 -12377875.42147  22064845.066    22064853.183
       234.000         192.000
  24207029.510    -4471956.29949  -2790442.94445  24207028.893    24207041.346
       208.000         144.000
 03  1 13  0 15 30.0000000  0  8G17G 5G 4G10G30G 6G24G23
  24696898.352    -4103752.72049  -3170873.69745  24696897.444    24696910.247
       208.000         143.000
  20637621.141   -27339171.62949 -21276292.21548  20637620.712    20637627.942
       245.000         215.000
  24579450.431     -600094.46349   -112188.43845  24579450.151    24579460.594
       207.000         142.000
  21018957.116   -20968637.96049 -15681443.09447  21018956.509    21018964.063
       240.000         205.000
  20600459.571   -26201375.02949 -20364833.15947  20600459.968    20600466.215
       242.000         209.000
  22691472.045   -15419918.78049 -11972624.85546  22691472.131    22691480.228
       225.000         178.000
  22078766.481   -16281025.91649 -12320869.74147  22078766.288    22078774.657
       235.000         192.000
  24186877.872    -4577852.73149  -2872959.27745  24186875.944    24186889.198
       203.000         145.000
 03  1 13  0 16  0.0000000  0  8G17G 5G 4G10G30G 6G24G23
  24680585.793    -4189475.06049  -3237670.11945  24680584.927    24680596.814
       202.000         142.000
  20646459.463   -27292725.99249 -21240100.81948  20646459.134    20646466.358
       245.000         215.000
  24597954.407     -502855.06449    -36417.48845  24597952.892    24597964.591
       202.000         142.000
  21011966.984   -21005371.05349 -15710066.23547  21011966.159    21011974.127
       240.000         205.000
  20593946.706   -26235600.11749 -20391502.02447  20593946.977    20593953.447
       242.000         209.000
  22678664.233   -15487223.94849 -12025070.34746  22678663.708    22678673.182
       226.000         179.000
  22092715.538   -16207723.12649 -12263750.69747  22092715.631    22092724.125
       234.000         192.000
  24166732.356    -4683716.11549  -2955449.84845  24166731.780    24166743.590
       203.000         141.000
 03  1 13  0 16 30.0000000  0  8G17G 5G 4G10G30G 6G24G23
  24664301.911    -4275045.98249  -3304348.51145  24664301.220    24664314.326
       203.000         143.000
  20655393.865   -27245775.42849 -21203515.97748  20655393.549    20655400.808
       245.000         215.000
  24616450.735     -405655.31949     39322.59745  24616449.966    24616461.246
       203.000         141.000
  21005089.127   -21041514.07249 -15738229.57747  21005088.650    21005096.330
       240.000         205.000
  20587536.899   -26269283.76449 -20417748.99247  20587537.324    20587543.616
       242.000         209.000
  22665865.722   -15554480.47049 -12077477.94746  22665865.598    22665874.273
       226.000         179.000
  22106691.864   -16134276.94549 -12206519.92847  22106691.536    22106700.420
       234.000         192.000
  24146593.534    -4789544.24449  -3037912.95845  24146591.752    24146606.064
       206.000         142.000
 03  1 13  0 17  0.0000000  0  8G17G 5G 4G10G30G 6G24G23
  24648046.745    -4360466.40449  -3370909.60645  24648045.063    24648058.368
       204.000         142.000
  20664423.879   -27198322.41649 -21166539.61348  20664423.507    20664430.779
       245.000         215.000
  24634939.192     -308497.69849    115029.81945  24634940.506    24634949.500
       209.000         142.000
  20998323.650   -21077066.69549 -15765932.87147  20998322.904    20998330.716
       240.000         205.000
  20581230.196   -26302425.49349 -20443573.68147  20581230.471    20581236.921
       242.000         209.000
  22653076.319   -15621688.98549 -12129848.13046  22653076.212    22653084.421
       226.000         179.000
  22120694.881   -16060690.58249 -12149179.92147  22120694.722    22120703.093
       234.000         192.000
  24126461.937    -4895335.55549  -3120347.43045  24126460.509    24126474.116
       202.000         144.000
 03  1 13  0 17 30.0000000  0  8G17G 5G 4G10G30G 6G24G23
  24631821.255    -4445731.27149  -3437349.52245  24631819.636    24631831.243
       206.000         143.000
  20673550.029   -27150364.25649 -21129169.62748  20673549.729    20673556.999
       245.000         214.000
  24653420.220     -211379.68349    190706.20845  24653421.481    24653430.887
       208.000         141.000
  20991671.600   -21112023.20449 -15793171.65747  20991670.659    20991678.593
       240.000         205.000
  20575027.632   -26335019.90649 -20468971.88847  20575027.945    20575034.439
       242.000         209.000
  22640296.879   -15688844.90949 -12182177.33746  22640296.899    22640304.956
       227.000         180.000
  22134725.026   -15986961.69149 -12091728.85647  22134725.548    22134733.098
       234.000         191.000
  24106338.214    -5001083.27849  -3202747.86645  24106337.360    24106350.723
       206.000         141.000
 03  1 13  0 18  0.0000000  0  8G17G 5G 4G10G30G 6G24G23
  24615624.686    -4530844.19849  -3503671.08745  24615623.678    24615635.721
       203.000         143.000
  20682771.222   -27101906.51849 -21091410.36248  20682770.866    20682778.147
       245.000         214.000
  24671892.614     -114307.09749    266347.20045  24671893.074    24671903.403
       206.000         141.000
  20985132.430   -21146386.62949 -15819948.30047  20985131.646    20985139.551
       240.000         205.000
  20568928.686   -26367069.99349 -20493945.94547  20568929.177    20568935.482
       243.000         209.000
  22627526.766   -15755952.04149 -12234468.51546  22627527.029    22627534.927
       228.000         181.000
  22148781.036   -15913096.98149 -12034171.95747  22148781.018    22148789.336
       234.000         191.000
  24086223.018    -5106789.11649  -3285115.76645  24086221.286    24086235.827
       205.000         143.000
 03  1 13  0 18 30.0000000  0  8G17G 5G 4G10G30G 6G24G23
  24599457.287    -4615803.19049  -3569872.66445  24599456.021    24599468.422
       201.000         143.000
  20692087.499   -27052949.38449 -21053261.96348  20692087.186    20692094.488
       245.000         214.000
  24690356.275      -17279.98449    341952.75745  24690356.272    24690366.796
       208.000         140.000
  20978706.593   -21180154.39349 -15846260.79747  20978705.864    20978713.688
       240.000         205.000
  20562933.844   -26398573.02649 -20518493.73047  20562934.257    20562940.615
       242.000         209.000
  22614766.320   -15823008.50249 -12286720.22446  22614766.273    22614774.131
       228.000         181.000
  22162862.792   -15839096.91049 -11976509.58747  22162862.779    22162871.165
       234.000         191.000
  24066116.443    -5212449.13149  -3367447.87245  24066115.525    24066128.494
       206.000         144.000
 03  1 13  0 19  0.0000000  0  8G17G 5G 4G10G30G 6G24G23
  24583319.173    -4700608.48149  -3635954.45945  24583317.893    24583331.902
       207.000         144.000
  20701498.312   -27003495.11249 -21014726.17848  20701497.911    20701505.558
       244.000         214.000
  24708810.881       79699.37949    417521.13045  24708812.125    24708820.944
       206.000         140.000
  20972394.227   -21213325.91849 -15872108.68747  20972393.404    20972401.398
       240.000         205.000
  20557043.197   -26429528.43149 -20542614.78947  20557043.725    20557049.943
       242.000         210.000
  22602015.426   -15890014.64049 -12338932.71446  22602015.200    22602023.353
       228.000         181.000
  22176969.776   -15764964.29949 -11918743.93547  22176969.633    22176978.285
       234.000         191.000
  24046018.628    -5318061.72149  -3449743.07945  24046017.498    24046030.883
       206.000         145.000
 03  1 13  0 19 30.0000000  0  8G17G 5G 4G10G30G 6G24G23
  24567210.843    -4785257.96349  -3701914.89445  24567209.655    24567221.900
       207.000         145.000
  20711003.787   -26953543.67349 -20975802.99448  20711003.401    20711010.773
       245.000         214.000
  24727256.341      176631.18249    493052.42845  24727257.156    24727267.181
       206.000         139.000
  20966195.887   -21245898.19849 -15897489.63647  20966195.135    20966202.938
       240.000         205.000
  20551257.311   -26459933.44949 -20566306.97247  20551257.730    20551264.206
       242.000         210.000
  22589274.546   -15956968.29949 -12391104.30946  22589274.201    22589282.362
       228.000         181.000
  22191101.884   -15690699.82849 -11860875.53847  22191101.910    22191110.260
       233.000         190.000
  24025930.825    -5423622.60249  -3531997.92445  24025930.145    24025942.584
       206.000         144.000
 03  1 13  0 20  0.0000000  0  8G17G 5G 4G10G30G 6G24G23
  24551132.128    -4869750.97649  -3767753.37045  24551130.496    24551143.318
       203.000         143.000
  20720603.565   -26903096.43749 -20936493.47548  20720603.325    20720610.604
       244.000         214.000
  24745692.517      273514.07849    568545.64245  24745692.863    24745703.915
       205.000         139.000
  20960111.791   -21277870.13349 -15922402.78547  20960111.177    20960118.893
       240.000         205.000
  20545576.455   -26489786.57549 -20589569.11747  20545576.873    20545583.144
       243.000         210.000
  22576543.733   -16023868.93549 -12443234.60646  22576543.304    22576551.490
       228.000         181.000
  22205258.680   -15616305.23149 -11802905.74247  22205258.769    22205266.956
       233.000         190.000
  24005853.365    -5529129.20949  -3614210.52545  24005853.014    24005865.444
       208.000         145.000
 03  1 13  0 20 30.0000000  0  8G17G 5G 4G10G30G 6G24G23
  24535083.212    -4954087.30249  -3833469.76745  24535081.676    24535093.604
       207.000         142.000
  20730297.320   -26852155.47549 -20896799.23048  20730297.054    20730304.313
       244.000         214.000
  24764119.104      370345.79549    643998.95045  24764119.337    24764129.032
       206.000         139.000
  20954142.122   -21309240.77649 -15946847.38947  20954141.740    20954149.242
       241.000         206.000
  20540000.682   -26519087.33749 -20612400.84047  20540001.033    20540007.328
       243.000         210.000
  22563822.965   -16090716.70149 -12495323.69146  22563822.421    22563830.529
       229.000         181.000
  22219439.799   -15541783.21449 -11744836.65547  22219439.942    22219448.163
       233.000         190.000
  23985786.570    -5634579.48349  -3696379.18045  23985785.266    23985797.896
       206.000         145.000
 03  1 13  0 21  0.0000000  0  8G17G 5G 4G10G30G 6G24G23
  24519064.563    -5038265.30149  -3899062.80445  24519063.585    24519075.648
       206.000         144.000
  20740084.919   -26800721.39049 -20856720.73948  20740084.648    20740092.045
       244.000         213.000
  24782535.761      467125.90649    719412.06545  24782535.797    24782546.741
       205.000         139.000
  20948287.224   -21340008.21249 -15970821.96247  20948286.553    20948294.414
       241.000         206.000
  20534530.441   -26547833.55349 -20634800.45147  20534530.810    20534537.128
       243.000         210.000
  22551112.523   -16157510.19049 -12547370.48046  22551112.750    22551120.193
       228.000         181.000
  22233644.976   -15467134.55449 -11686668.89147  22233644.858    22233653.620
       233.000         189.000
  23965731.102    -5739969.98949  -3778501.29945  23965730.380    23965742.547
       205.000         147.000
 03  1 13  0 21 30.0000000  0  8G17G 5G 4G10G30G 6G24G23
  24503076.011    -5122284.68749  -3964532.21345  24503075.354    24503087.230
       206.000         145.000
  20749966.119   -26748795.27949 -20816258.84748  20749965.718    20749973.085
       245.000         213.000
  24800942.382      563853.47749    794784.24145  24800943.474    24800954.560
       207.000         139.000
  20942547.477   -21370170.65749 -15994325.11647  20942546.487    20942554.346
       241.000         206.000
  20529166.000   -26576023.62549 -20656766.70447  20529166.174    20529172.486
       244.000         210.000
  22538412.574   -16224248.23849 -12599374.07346  22538412.312    22538419.907
       229.000         181.000
  22247873.930   -15392361.04249 -11628403.82647  22247873.698    22247882.061
       233.000         189.000
  23945687.556    -5845297.77749  -3860574.48745  23945687.096    23945698.938
       213.000         146.000
 03  1 13  0 22  0.0000000  0  7G17G 5G10G30G 6G24G23
  24487117.735    -5206144.57249  -4029877.33045  24487116.352    24487129.476
       203.000         142.000
  20759940.549   -26696379.41449 -20775415.33548  20759940.142    20759947.499
       244.000         213.000
  20936922.902   -21399727.81149 -16017356.61847  20936922.170    20936929.965
       241.000         206.000
  20523907.523   -26603656.92649 -20678299.11547  20523907.934    20523914.121
       243.000         210.000
  22525723.199   -16290930.93249 -12651334.54046  22525723.266    22525730.890
       228.000         181.000
  22262126.134   -15317465.26249 -11570043.50247  22262126.011    22262134.323
       232.000         189.000
  23925656.482    -5950560.71949  -3942597.20745  23925654.424    23925667.971
       206.000         147.000
 03  1 13  0 22 30.0000000  0  7G17G 5G10G30G 6G24G23
  24471189.960    -5289844.54049  -4095097.86145  24471188.978    24471200.982
       211.000         143.000
  20770007.970   -26643474.83349 -20734191.00348  20770007.623    20770015.090
       244.000         213.000
  20931413.751   -21428678.32849 -16039915.41647  20931413.094    20931420.666
       241.000         206.000
  20518755.282   -26630731.90749 -20699396.47147  20518755.821    20518762.083
       243.000         210.000
  22513044.562   -16357557.38649 -12703251.17546  22513044.683    22513052.502
       228.000         181.000
  22276401.252   -15242448.85949 -11511589.17947  22276401.378    22276409.835
       232.000         188.000
  23905638.212    -6055756.01849  -4024567.21545  23905637.432    23905649.826
       201.000         146.000
 03  1 13  0 23  0.0000000  0  7G17G 5G10G30G 6G24G23
  24455292.988    -5373383.60049  -4160193.03145  24455291.644    24455303.215
       204.000         144.000
  20780168.166   -26590082.57349 -20692586.65548  20780167.859    20780175.319
       244.000         213.000
  20926020.377   -21457020.46149 -16062000.14347  20926019.438    20926027.498
       240.000         206.000
  20513709.578   -26657247.04549 -20720057.57647  20513709.834    20513716.264
       243.000         210.000
  22500376.754   -16424126.67849 -12755123.26846  22500376.773    22500384.290
       228.000         182.000
  22290699.055   -15167313.33349 -11453042.02447  22290698.960    22290707.611
       231.000         188.000
  23885633.461    -6160880.72349  -4106482.16045  23885632.191    23885644.205
       204.000         147.000
 03  1 13  0 23 30.0000000  0  7G17G 5G10G30G 6G24G23
  24439426.455    -5456761.26749  -4225162.35445  24439425.338    24439436.302
       205.000         144.000
  20790420.908   -26536204.19149 -20650603.52048  20790420.581    20790427.811
       244.000         213.000
  20920742.989   -21484753.10349 -16083609.95247  20920742.281    20920750.060
       240.000         206.000
  20508770.666   -26683201.23149 -20740281.59147  20508771.083    20508777.254
       243.000         211.000
  22487719.892   -16490638.34049 -12806950.46546  22487719.476    22487727.405
       228.000         182.000
  22305019.214   -15092060.39249 -11394403.38747  22305019.027    22305027.761
       232.000         188.000
  23865642.400    -6265932.29749  -4188340.18245  23865641.370    23865653.383
       206.000         147.000
 03  1 13  0 24  0.0000000  0  7G17G 5G10G30G 6G24G23
  24423590.943    -5539976.16649  -4290004.86145  24423590.330    24423601.960
       209.000         144.000
  20800765.908   -26481840.91249 -20608242.53847  20800765.490    20800773.057
       244.000         212.000
  20915581.910   -21511874.60049 -16104743.54447  20915581.234    20915589.016
       241.000         206.000
  20503938.834   -26708592.66149 -20760067.09547  20503939.268    20503945.439
       243.000         211.000
  22475074.260   -16557091.06449 -12858731.73046  22475074.080    22475081.317
       228.000         182.000
  22319361.462   -15016691.47849 -11335674.37347  22319361.518    22319369.956
       232.000         188.000
  23845665.996    -6370907.41649  -4270138.60245  23845664.970    23845676.507
       209.000         147.000
 03  1 13  0 24 30.0000000  0  7G17G 5G10G30G 6G24G23
  24407786.713    -5623027.38549  -4354719.89045  24407785.901    24407796.574
       207.000         144.000
  20811202.893   -26426994.21549 -20565504.86947  20811202.494    20811209.960
       244.000         212.000
  20910537.355   -21538383.86449 -16125400.07047  20910536.537    20910544.430
       240.000         207.000
  20499214.305   -26733420.16049 -20779413.16847  20499214.749    20499220.916
       244.000         211.000
  22462439.976   -16623484.18349 -12910466.55246  22462439.986    22462447.791
       229.000         182.000
  22333725.360   -14941208.73149 -11276856.65946  22333725.594    22333733.868
       231.000         187.000
  23825704.681    -6475803.46549  -4351875.47245  23825702.569    23825715.610
       208.000         147.000
 03  1 13  0 25  0.0000000  0  7G17G 5G10G30G 6G24G23
  24392013.479    -5705915.79549  -4419308.02045  24392012.441    24392023.718
       206.000         144.000
  20821731.411   -26371666.44449 -20522392.33647  20821731.086    20821738.482
       243.000         212.000
  20905609.319   -21564280.74049 -16145579.41247  20905608.488    20905616.264
       240.000         207.000
  20494597.105   -26757683.51149 -20798319.64747  20494597.525    20494603.748
       243.000         211.000
  22449817.066   -16689817.76449 -12962154.97946  22449816.985    22449825.045
       229.000         183.000
  22348110.473   -14865614.58849 -11217952.14146  22348110.385    22348119.109
       232.000         187.000
  23805758.790    -6580618.60149  -4433549.28645  23805757.077    23805769.302
       207.000         147.000
 03  1 13  0 25 30.0000000  0  7G17G 5G10G30G 6G24G23
  24376271.444    -5788639.68549  -4483767.91745  24376270.669    24376281.300
       208.000         146.000
  20832351.312   -26315858.50149 -20478905.64247  20832351.053    20832358.463
       243.000         212.000
  20900798.161   -21589563.27649 -16165280.04447  20900797.419    20900805.011
       240.000         207.000
  20490087.642   -26781380.90149 -20816785.12047  20490088.017    20490094.188
       243.000         211.000
  22437205.734   -16756090.41249 -13013795.92746  22437205.436    22437213.657
       230.000         184.000
  22362516.498   -14789910.31149 -11158961.80846  22362516.372    22362525.166
       231.000         187.000
  23785828.977    -6685349.42849  -4515157.41245  23785828.554    23785839.954
       210.000         150.000
 03  1 13  0 26  0.0000000  0  7G17G 5G10G30G 6G24G23
  24360560.951    -5871198.07649  -4548098.90445  24360560.315    24360571.099
       207.000         146.000
  20843062.367   -26259571.70649 -20435045.81747  20843062.038    20843069.416
       243.000         212.000
  20896104.153   -21614230.26849 -16184501.04347  20896103.359    20896111.256
       240.000         207.000
  20485686.147   -26804510.72649 -20834808.33847  20485686.644    20485692.762
       244.000         211.000
  22424606.292   -16822300.93749 -13065388.47646  22424605.998    22424614.058
       229.000         184.000
  22376943.207   -14714097.28749 -11099886.74346  22376943.554    22376952.253
       231.000         187.000
  23765915.676    -6789992.89449  -4596697.47245  23765914.630    23765926.569
       213.000         149.000
 03  1 13  0 26 30.0000000  0  7G17G 5G10G30G 6G24G23
  24344881.900    -5953590.94849  -4612300.91845  24344880.720    24344892.086
       206.000         144.000
  20853864.121   -26202808.03749 -20390814.40347  20853863.741    20853871.254
       243.000         211.000
  20891527.420   -21638280.89549 -16203241.75147  20891526.667    20891534.515
       240.000         207.000
  20481392.810   -26827072.40249 -20852388.83747  20481393.316    20481399.457
       244.000         211.000
  22412018.670   -16888449.19649 -13116932.49946  22412018.223    22412026.597
       229.000         185.000
  22391390.211   -14638177.79949 -11040728.71246  22391390.343    22391398.425
       231.000         187.000
  23746019.580    -6894546.73449  -4678167.72545  23746019.083    23746029.766
       212.000         150.000
 03  1 13  0 27  0.0000000  0  7G17G 5G10G30G 6G24G23
  24329234.505    -6035817.34349  -4676373.18745  24329233.712    24329245.153
       211.000         146.000
  20864756.418   -26145568.77749 -20346212.39947  20864756.190    20864763.408
       243.000         211.000
  20887068.207   -21661714.06349 -16221501.32447  20887067.554    20887075.103
       240.000         207.000
  20477207.827   -26849064.42049 -20869525.45247  20477208.274    20477214.434
       244.000         211.000
  22399443.070   -16954534.07349 -13168427.12646  22399443.218    22399451.213
       230.000         186.000
  22405857.222   -14562153.35249 -10981488.89846  22405857.877    22405865.651
       231.000         186.000
  23726140.897    -6999007.91549  -4759565.78245  23726139.815    23726152.084
       210.000         150.000
 03  1 13  0 27 30.0000000  0  7G17G 5G10G30G 6G24G23
  24313618.918    -6117877.13849  -4740315.65545  24313617.883    24313628.692
       211.000         147.000
  20875738.760   -26087856.20249 -20301241.58047  20875738.487    20875745.817
       243.000         211.000
  20882726.602   -21684529.23049 -16239279.33947  20882725.990    20882733.508
       240.000         207.000
  20473131.366   -26870486.24249 -20886217.75747  20473131.726    20473138.070
       243.000         211.000
  22386879.599   -17020555.38249 -13219872.22946  22386879.336    22386887.097
       230.000         186.000
  22420343.767   -14486026.18649 -10922169.03946  22420343.819    22420351.772
       231.000         186.000
  23706280.509    -7103374.24649  -4840889.96745  23706278.835    23706291.352
       209.000         151.000
 03  1 13  0 28  0.0000000  0  7G17G 5G10G30G 6G24G23
  24298035.334    -6199768.51049  -4804126.88345  24298034.251    24298045.809
       212.000         148.000
  20886811.128   -26029670.65449 -20255902.20847  20886810.872    20886818.182
       243.000         211.000
  20878502.927   -21706724.51149 -16256574.32647  20878502.274    20878509.961
       240.000         207.000
  20469163.796   -26891335.82049 -20902464.15247  20469164.093    20469170.543
       244.000         211.000
  22374328.600   -17086511.14949 -13271266.25746  22374328.765    22374336.100
       231.000         187.000
  22434849.734   -14409797.00449 -10862769.69346  22434850.236    22434858.220
       230.000         185.000
  23686438.939    -7207641.80449  -4922137.14845  23686437.850    23686449.564
       208.000         152.000
 03  1 13  0 28 30.0000000  0  7G17G 5G10G30G 6G24G23
  24282483.629    -6281492.16849  -4867807.42945  24282481.768    24282492.740
       210.000         146.000
  20897972.976   -25971014.83349 -20210196.39447  20897972.535    20897979.942
       243.000         211.000
  20874397.263   -21728299.67849 -16273386.11047  20874396.586    20874404.351
       240.000         207.000
  20465305.171   -26911612.97249 -20918264.50947  20465305.524    20465311.887
       244.000         211.000
  22361790.036   -17152401.50849 -13322609.32246  22361789.915    22361797.485
       231.000         187.000
  22449374.571   -14333468.50949 -10803292.96646  22449374.971    22449383.487
       231.000         185.000
  23666616.275    -7311808.95049  -5003306.09645  23666615.723    23666627.406
       212.000         153.000
 03  1 13  0 29  0.0000000  0  7G17G 5G10G30G 6G24G23
  24266964.274    -6363046.07849  -4931355.70845  24266962.921    24266973.803
       212.000         147.000
  20909224.073   -25911889.85249 -20164124.99947  20909223.686    20909231.045
       242.000         211.000
  20870409.910   -21749253.19449 -16289713.48647  20870409.136    20870416.866
       240.000         207.000
  20461555.760   -26931316.01749 -20933617.50147  20461556.199    20461562.524
       244.000         211.000
  22349264.183   -17218224.94849 -13373900.23947  22349264.136    22349271.547
       231.000         188.000
  22463918.143   -14257041.66949 -10743739.60146  22463918.383    22463926.502
       230.000         184.000
  23646813.561    -7415872.16849  -5084394.08445  23646812.213    23646824.274
       209.000         152.000
 03  1 13  0 29 30.0000000  0  7G17G 5G10G30G 6G24G23
  24251477.521    -6444428.58349  -4994770.43245  24251476.392    24251488.368
       212.000         149.000
  20920564.463   -25852295.77349 -20117688.08047  20920563.995    20920571.645
       242.000         210.000
  20866541.321   -21769582.74649 -16305554.66047  20866540.674    20866548.261
       240.000         207.000
  20457916.114   -26950442.37049 -20948521.12947  20457916.509    20457922.665
       243.000         212.000
  22336751.499   -17283979.25449 -13425137.28947  22336751.609    22336759.183
       230.000         188.000
  22478480.367   -14180516.82449 -10684109.88146  22478480.082    22478488.964
       230.000         184.000
  23627031.303    -7519827.44749  -5165397.92645  23627030.197    23627042.120
       213.000         154.000
 03  1 13  0 30  0.0000000  0  7G17G 5G10G30G 6G24G23
  24236022.633    -6525643.97149  -5058054.92945  24236021.491    24236032.950
       208.000         149.000
  20931992.858   -25792239.22249 -20070890.78547  20931992.503    20931999.973
       242.000         210.000
  20862790.636   -21789292.55449 -16320912.91447  20862790.241    20862797.343
       240.000         207.000
  20454385.427   -26968996.04049 -20962978.50547  20454385.823    20454392.030
       243.000         212.000
  22324251.186   -17349668.56949 -13476323.70047  22324251.282    22324258.804
       230.000         188.000
  22493060.021   -14103900.38849 -10624408.77646  22493060.099    22493068.775
       230.000         183.000
  23607269.306    -7623676.82949  -5246319.31145  23607268.238    23607280.338
       211.000         154.000
 03  1 13  0 30 30.0000000  0  7G17G 5G10G30G 6G24G23
  24220600.229    -6606687.75149  -5121205.69145  24220599.838    24220610.195
       212.000         149.000
  20943509.683   -25731717.88849 -20023731.32647  20943509.240    20943516.884
       242.000         210.000
  20859158.819   -21808377.75349 -16335784.45947  20859157.955    20859165.676
       240.000         207.000
  20450964.714   -26986972.10049 -20976985.79847  20450965.042    20450971.370
       244.000         212.000
  22311764.188   -17415288.06649 -13527455.70247  22311764.117    22311771.842
       231.000         188.000
  22507657.548   -14027190.00649 -10564634.48146  22507657.473    22507665.914
       230.000         183.000
  23587528.664    -7727413.44249  -5327152.78045  23587527.744    23587538.942
       213.000         154.000
 03  1 13  0 31  0.0000000  0  7G17G 5G10G30G 6G24G23
  24205210.929    -6687558.42449  -5184221.58945  24205209.812    24205221.349
       212.000         151.000
  20955114.727   -25670732.88649 -19976210.56947  20955114.386    20955121.948
       242.000         210.000
  20855646.129   -21826836.84349 -16350168.12747  20855645.467    20855652.895
       240.000         207.000
  20447654.175   -27004368.96949 -20990541.77347  20447654.613    20447660.699
       244.000         212.000
  22299290.745   -17480836.15549 -13578532.06547  22299290.263    22299298.165
       231.000         188.000
  22522272.663   -13950386.94549 -10504787.95646  22522272.205    22522281.043
       230.000         183.000
  23567810.210    -7831034.03549  -5407895.84645  23567807.996    23567819.510
       211.000         155.000
 03  1 13  0 31 30.0000000  0  7G17G 5G10G30G 6G24G23
  24189854.643    -6768255.28749  -5247102.04745  24189853.363    24189864.015
       212.000         150.000
  20966807.802   -25609285.45349 -19928329.47647  20966807.581    20966815.004
       243.000         210.000
  20852252.851   -21844668.41649 -16364062.82447  20852252.236    20852259.717
       242.000         208.000
  20444454.149   -27021185.15649 -21003645.27047  20444454.599    20444460.808
       245.000         212.000
  22286831.137   -17546311.49649 -13629551.73647  22286830.918    22286838.771
       232.000         188.000
  22536905.260   -13873492.24349 -10444870.03046  22536905.165    22536913.916
       231.000         182.000
  23548114.384    -7934535.20549  -5488545.85645  23548112.171    23548124.701
       213.000         156.000
 03  1 13  0 32  0.0000000  0  7G17G 5G10G30G 6G24G23
  24174531.084    -6848780.04349  -5309848.39845  24174530.581    24174540.959
       213.000         152.000
  20978588.051   -25547379.94949 -19880091.44447  20978587.686    20978595.295
       242.000         210.000
  20848978.612   -21861874.68349 -16377470.26447  20848977.963    20848985.600
       241.000         208.000
  20441364.297   -27037422.49349 -21016297.71347  20441364.668    20441370.723
       244.000         212.000
  22274385.027   -17611715.91049 -13680516.14847  22274384.794    22274392.536
       231.000         188.000
  22551554.440   -13796510.24049 -10384884.07446  22551554.284    22551563.103
       229.000         182.000
  23528441.263    -8037916.88749  -5569102.77445  23528439.460    23528452.097
       214.000         156.000
 03  1 13  0 32 30.0000000  0  7G17G 5G10G30G 6G24G23
  24159240.283    -6929132.99749  -5372460.90845  24159239.097    24159250.080
       210.000         152.000
  20990455.031   -25485018.60449 -19831498.20847  20990454.761    20990462.248
       242.000         210.000
  20845823.424   -21878455.13949 -16390390.06347  20845822.647    20845830.191
       241.000         208.000
  20438384.662   -27053080.54849 -21028498.76847  20438385.030    20438391.185
       244.000         212.000
  22261952.504   -17677049.03249 -13731425.00147  22261952.041    22261960.009
       231.000         188.000
  22566219.803   -13719443.03749 -10324831.72546  22566219.801    22566228.764
       230.000         182.000
  23508791.384    -8141176.81949  -5649564.80945  23508790.013    23508801.770
       215.000         156.000
 03  1 13  0 33  0.0000000  0  7G17G 5G10G30G 6G24G23
  24143982.648    -7009311.25049  -5434937.27245  24143981.969    24143993.193
       213.000         153.000
  21002408.718   -25422201.58049 -19782549.90147  21002408.415    21002416.061
       242.000         210.000
  20842787.688   -21894407.79449 -16402820.66647  20842787.069    20842794.611
       241.000         208.000
  20435515.673   -27068156.89949 -21040246.55047  20435516.077    20435522.228
       244.000         212.000
  22249534.020   -17742308.40649 -13782276.39447  22249533.978    22249541.927
       230.000         188.000
  22580901.402   -13642290.96449 -10264713.24746  22580901.447    22580910.381
       230.000         182.000
  23489165.446    -8244310.96149  -5729928.82445  23489163.830    23489175.715
       214.000         158.000
 03  1 13  0 33 30.0000000  0  7G17G 5G10G30G 6G24G23
  24128758.177    -7089315.78449  -5497278.27545  24128758.088    24128768.176
       213.000         154.000
  21014448.686   -25358931.23349 -19733248.35647  21014448.440    21014455.906
       242.000         209.000
  20839871.471   -21909732.52949 -16414761.97847  20839870.688    20839878.471
       240.000         208.000
  20432757.472   -27082651.20249 -21051540.78947  20432757.806    20432764.025
       244.000         212.000
  22237129.571   -17807493.80449 -13833070.14447  22237129.466    22237136.946
       231.000         188.000
  22595598.742   -13565056.01449 -10204530.18946  22595599.102    22595607.422
       230.000         182.000
  23469563.831    -8347317.03949  -5810193.04345  23469562.380    23469572.996
       216.000         158.000
 03  1 13  0 34  0.0000000  0  7G17G 5G10G30G 6G24G23
  24113566.933    -7169145.64849  -5559483.20045  24113566.076    24113576.249
       213.000         154.000
  21026574.603   -25295209.30749 -19683594.92847  21026574.236    21026581.820
       242.000         209.000
  20837074.899   -21924428.36249 -16426213.23747  20837074.224    20837081.569
       240.000         208.000
  20430110.186   -27096562.80449 -21062380.97347  20430110.579    20430116.493
       244.000         212.000
  22224739.455   -17872604.07549 -13883805.35247  22224739.253    22224747.214
       231.000         189.000
  22610311.548   -13487739.83649 -10144283.82446  22610311.507    22610320.023
       230.000         182.000
  23449987.137    -8450192.13649  -5890355.20445  23449985.603    23449996.639
       214.000         158.000
 03  1 13  0 34 30.0000000  0  7G17G 5G10G30G 6G24G23
  24098409.054    -7248800.04549  -5621551.39245  24098409.198    24098418.077
       214.000         154.000
  21038786.047   -25231037.84249 -19633591.20847  21038785.502    21038793.253
       242.000         209.000
  20834398.113   -21938494.93649 -16437174.15947  20834397.167    20834404.911
       241.000         208.000
  20427573.904   -27109890.81049 -21072766.40047  20427574.065    20427580.104
       244.000         212.000
  22212363.786   -17937638.37749 -13934481.35947  22212363.491    22212371.477
       231.000         189.000
  22625039.494   -13410344.00749 -10083975.39846  22625039.651    22625048.477
       229.000         182.000
  23430435.887    -8552933.67549  -5970413.29445  23430434.248    23430446.208
       215.000         158.000
 03  1 13  0 35  0.0000000  0  7G17G 5G10G30G 6G24G23
  24083284.868    -7328277.68049  -5683481.87645  24083284.429    24083295.529
       215.000         155.000
  21051082.908   -25166417.50449 -19583237.72747  21051082.449    21051090.107
       242.000         209.000
  20831841.371   -21951930.57249 -16447643.45347  20831840.657    20831848.143
       241.000         208.000
  20425149.055   -27122633.35849 -21082695.64247  20425149.463    20425155.549
       245.000         212.000
  22200002.919   -18002594.82149 -13985096.71547  22200003.018    22200010.548
       232.000         189.000
  22639782.524   -13332868.82749 -10023605.13846  22639782.185    22639791.379
       230.000         182.000
  23410910.859    -8655537.64549  -6050364.22645  23410909.844    23410921.734
       213.000         159.000
 03  1 13  0 35 30.0000000  0  7G17G 5G10G30G 6G24G23
  24068194.152    -7407579.21049  -5745275.12245  24068193.566    24068203.388
       213.000         155.000
  21063464.585   -25101351.51049 -19532536.97947  21063464.237    21063471.827
       242.000         209.000
  20829404.553   -21964736.02949 -16457621.69347  20829403.704    20829411.364
       240.000         208.000
  20422835.503   -27134791.10749 -21092169.19047  20422835.875    20422841.997
       243.000         211.000
  22187656.715   -18067473.90749 -14035651.77147  22187656.425    22187663.787
       231.000         189.000
  22654540.057   -13255317.50649  -9963175.55746  22654539.649    22654549.055
       229.000         182.000
  23391412.180    -8758002.75049  -6130206.93445  23391411.463    23391421.482
       216.000         159.000
 03  1 13  0 36  0.0000000  0  7G17G 5G10G30G 6G24G23
  24053137.185    -7486703.71349  -5806930.45445  24053136.670    24053146.313
       214.000         155.000
  21075930.734   -25035841.64949 -19481490.35147  21075930.327    21075937.949
       243.000         209.000
  20827087.741   -21976910.79449 -16467108.48247  20827086.878    20827094.671
       241.000         209.000
  20420633.358   -27146363.17349 -21101186.35847  20420633.630    20420639.939
       244.000         211.000
  22175325.530   -18132274.51549 -14086145.67947  22175325.092    22175332.699
       232.000         190.000
  22669311.833   -13177691.44349  -9902687.72546  22669311.682    22669320.144
       230.000         182.000
  23371940.474    -8860326.14849  -6209939.21445  23371939.313    23371950.143
       215.000         159.000
 03  1 13  0 36 30.0000000  0  7G17G 5G10G30G 6G24G23
  24038114.181    -7565649.92449  -5868446.87945  24038113.830    24038124.103
       214.000         156.000
  21088481.216   -24969888.52549 -19430098.33647  21088481.048    21088488.306
       243.000         209.000
  20824891.291   -21988453.05049 -16476102.41547  20824890.568    20824898.041
       241.000         209.000
  20418543.040   -27157347.66749 -21109745.69147  20418543.357    20418549.415
       243.000         211.000
  22163009.688   -18196994.41149 -14136576.70647  22163009.228    22163017.180
       231.000         190.000
  22684097.764   -13099991.00849  -9842141.94446  22684097.296    22684106.126
       230.000         182.000
  23352496.580    -8962503.55949  -6289557.73345  23352495.644    23352505.232
       215.000         159.000
 03  1 13  0 37  0.0000000  0  7G17G 5G10G30G 6G24G23
  24023124.865    -7644418.41649  -5929824.80845  24023123.967    24023134.465
       213.000         156.000
  21101115.429   -24903495.52749 -19378363.56147  21101115.412    21101122.640
       244.000         209.000
  20822815.003   -21999363.81349 -16484604.27147  20822814.236    20822821.597
       242.000         209.000
  20416564.446   -27167745.19449 -21117847.63947  20416565.116    20416570.905
       245.000         211.000
  22150709.074   -18261634.08849 -14186945.21047  22150708.803    22150716.352
       233.000         190.000
  22698897.284   -13022219.13649  -9781540.49546  22698897.091    22698905.885
       230.000         181.000
  23333080.697    -9064533.89949  -6369061.66845  23333079.585    23333089.999
       215.000         160.000
 03  1 13  0 37 30.0000000  0  7G17G 5G10G30G 6G24G23
  24008169.733    -7723007.62049  -5991063.05245  24008169.810    24008179.758
       214.000         157.000
  21113833.186   -24836663.47349 -19326286.65947  21113832.938    21113840.521
       243.000         209.000
  20820859.176   -22009641.48149 -16492612.80747  20820858.450    20820865.968
       241.000         209.000
  20414697.802   -27177554.37049 -21125491.13347  20414698.278    20414704.335
       244.000         211.000
  22138424.145   -18326191.57749 -14237249.67947  22138423.908    22138431.744
       232.000         190.000
  22713710.202   -12944376.41149  -9720883.83846  22713709.986    22713718.455
       230.000         181.000
  23313693.466    -9166413.29549  -6448448.00245  23313692.427    23313703.314
       216.000         160.000
 03  1 13  0 38  0.0000000  0  7G17G 5G10G30G 6G24G23
  23993248.811    -7801417.18549  -6052161.32545  23993248.090    23993258.475
       211.000         156.000
  21126634.087   -24769394.31249 -19273869.15747  21126633.986    21126641.402
       243.000         209.000
  20819023.948   -22019285.69849 -16500127.74647  20819023.330    20819030.658
       241.000         209.000
  20412943.250   -27186774.47249 -21132675.61347  20412943.563    20412949.658
       244.000         211.000
  22126155.038   -18390665.90549 -14287489.35047  22126154.512    22126162.077
       232.000         190.000
  22728536.337   -12866464.67849  -9660173.40846  22728536.252    22728545.185
       229.000         181.000
  23294335.498    -9268139.07749  -6527714.62545  23294334.048    23294345.174
       214.000         161.000
 03  1 13  0 38 30.0000000  0  7G17G 5G10G30G 6G24G23
  23978361.877    -7879647.89349  -6113120.23045  23978361.146    23978371.345
       213.000         157.000
  21139517.615   -24701691.04649 -19221113.38647  21139517.147    21139524.883
       244.000         208.000
  20817309.090   -22028297.25249 -16507149.69647  20817308.097    20817315.730
       242.000         209.000
  20411300.735   -27195405.82149 -21139401.31547  20411300.940    20411307.134
       244.000         211.000
  22113901.751   -18455057.07449 -14337664.20547  22113901.724    22113909.065
       233.000         191.000
  22743375.100   -12788486.27149  -9599411.02046  22743374.719    22743384.000
       230.000         181.000
  23275007.011    -9369709.61649  -6606860.29345  23275005.979    23275017.225
       216.000         162.000
 03  1 13  0 39  0.0000000  0  7G17G 5G10G30G 6G24G23
  23963509.357    -7957697.78049  -6173938.24445  23963508.288    23963519.849
       213.000         157.000
  21152483.663   -24633554.13949 -19168019.72547  21152483.530    21152490.779
       243.000         208.000
  20815714.968   -22036674.25149 -16513677.19847  20815714.191    20815721.682
       241.000         209.000
  20409770.644   -27203446.48049 -21145666.75647  20409771.070    20409777.198
       243.000         211.000
  22101664.745   -18519362.64549 -14387772.37447  22101664.526    22101672.034
       232.000         191.000
  22758226.558   -12710441.58849  -9538597.01146  22758226.528    22758234.782
       230.000         181.000
  23255708.947    -9471120.72349  -6685881.72945  23255709.238    23255718.903
       218.000         162.000
 03  1 13  0 39 30.0000000  0  7G17G 5G10G30G 6G24G23
  23948691.189    -8035567.51249  -6234615.87045  23948689.997    23948701.291
       212.000         157.000
  21165531.694   -24564986.36449 -19114590.31747  21165531.398    21165538.935
       242.000         208.000
  20814241.433   -22044417.51949 -16519710.87947  20814240.801    20814248.452
       242.000         209.000
  20408352.875   -27210896.85949 -21151472.23147  20408353.411    20408359.470
       243.000         211.000
  22089443.970   -18583582.82449 -14437814.00247  22089443.816    22089451.451
       233.000         191.000
  22773090.242   -12632332.79549  -9477733.03146  22773090.058    22773099.019
       229.000         181.000
  23236441.593    -9572370.50749  -6764777.46846  23236441.606    23236451.876
       216.000         163.000
 03  1 13  0 40  0.0000000  0  7G17G 5G10G30G 6G24G23
  23933907.651    -8113254.88449  -6295151.42145  23933907.051    23933917.150
       215.000         157.000
  21178661.503   -24495988.88149 -19060826.07147  21178660.958    21178668.603
       242.000         208.000
  20812888.756   -22051525.79449 -16525249.76247  20812888.047    20812895.314
       241.000         209.000
  20407047.725   -27217755.44649 -21156816.56947  20407047.995    20407054.237
       243.000         211.000
  22077239.897   -18647715.49849 -14487787.43247  22077239.655    22077247.159
       232.000         191.000
  22787966.029   -12554160.18249  -9416819.32246  22787965.879    22787974.157
       229.000         180.000
  23217205.608    -9673455.34049  -6843544.67546  23217205.063    23217215.554
       217.000         164.000
 03  1 13  0 40 30.0000000  0  7G17G 5G10G30G 6G24G23
  23919158.640    -8190761.39849  -6355546.02445  23919158.581    23919168.590
       215.000         158.000
  21191872.362   -24426565.43949 -19006729.90847  21191871.882    21191879.616
       243.000         207.000
  20811656.646   -22058000.48149 -16530294.93547  20811655.721    20811663.342
       242.000         209.000
  20405854.936   -27224023.48349 -21161700.73647  20405855.090    20405861.391
       244.000         211.000
  22065052.321   -18711761.26349 -14537693.14647  22065052.342    22065059.832
       233.000         192.000
  22802853.312   -12475927.15149  -9355858.53046  22802853.513    22802862.070
       230.000         180.000
  23198001.239    -9774374.21649  -6922182.56546  23198000.628    23198011.216
       217.000         165.000
 03  1 13  0 41  0.0000000  0  7G17G 5G10G30G 6G24G23
  23904444.302    -8268085.40149  -6415798.41345  23904443.598    23904453.497
       212.000         157.000
  21205164.154   -24356716.49249 -18952302.19047  21205163.811    21205171.496
       241.000         207.000
  20810545.430   -22063839.79649 -16534845.02647  20810544.780    20810552.257
       241.000         209.000
  20404774.895   -27229699.05549 -21166123.25147  20404775.328    20404781.434
       243.000         211.000
  22052881.773   -18775717.74949 -14587529.29047  22052881.578    22052889.149
       232.000         192.000
  22817752.108   -12397633.78949  -9294850.74746  22817752.029    22817760.962
       229.000         180.000
  23178829.274    -9875122.91449  -7000687.85546  23178828.841    23178838.762
       217.000         165.000
 03  1 13  0 41 30.0000000  0  7G17G 5G10G30G 6G24G23
  23889764.662    -8345227.12949  -6475908.77345  23889763.991    23889774.028
       214.000         158.000
  21218536.411   -24286444.87849 -18897545.11447  21218536.083    21218543.856
       242.000         207.000
  20809555.051   -22069044.25649 -16538900.41747  20809554.505    20809561.732
       241.000         209.000
  20403807.562   -27234782.27649 -21170084.18347  20403807.928    20403814.186
       243.000         212.000
  22040728.293   -18839584.57149 -14637295.56647  22040728.351    22040735.493
       233.000         192.000
  22832661.857   -12319282.41349  -9233797.73946  22832661.907    22832670.892
       229.000         179.000
  23159690.087    -9975699.34649  -7079058.92646  23159689.820    23159699.664
       216.000         165.000
 03  1 13  0 42  0.0000000  0  7G17G 5G10G30G 6G24G23
  23875119.869    -8422185.73249  -6535876.42345  23875119.429    23875129.138
       213.000         158.000
  21231988.718   -24215752.76549 -18842460.37447  21231988.340    21231996.166
       242.000         207.000
  20808685.408   -22073614.08149 -16542461.28847  20808684.657    20808692.073
       242.000         209.000
  20402952.993   -27239273.07149 -21173583.48447  20402953.309    20402959.425
       244.000         212.000
  22028591.990   -18903360.84349 -14686991.28447  22028591.853    22028599.048
       233.000         192.000
  22847582.386   -12240874.51949  -9172700.69646  22847582.518    22847590.613
       228.000         178.000
  23140584.114   -10076101.04949  -7157293.82646  23140583.328    23140593.678
       218.000         166.000
 03  1 13  0 42 30.0000000  0  7G17G 5G10G30G 6G24G23
  23860510.230    -8498959.30249  -6595699.87545  23860510.632    23860520.399
       213.000         158.000
  21245520.977   -24144640.28649 -18787048.08747  21245520.822    21245528.391
       241.000         206.000
  20807936.957   -22077547.33049 -16545526.14047  20807936.315    20807943.514
       242.000         209.000
  20402211.575   -27243169.22149 -21176619.43247  20402212.312    20402218.185
       244.000         212.000
  22016473.456   -18967043.90049 -14736614.36847  22016473.343    22016480.820
       233.000         193.000
  22862513.743   -12162409.86549  -9111559.43546  22862513.441    22862521.492
       228.000         178.000
  23121512.264   -10176323.39549  -7235388.98046  23121511.820    23121521.111
       215.000         166.000
 03  1 13  0 43  0.0000000  0  7G17G 5G10G30G 6G24G23
  23845935.457    -8575549.84449  -6655380.73345  23845935.293    23845945.238
       213.000         158.000
  21259132.453   -24073111.52849 -18731311.41947  21259131.969    21259139.633
       241.000         206.000
  20807309.253   -22080845.73849 -16548096.28747  20807308.580    20807315.809
       241.000         209.000
  20401582.984   -27246472.30549 -21179193.25247  20401583.468    20401589.584
       244.000         212.000
  22004372.481   -19030634.52949 -14786165.43747  22004372.340    22004379.882
       232.000         193.000
  22877455.245   -12083891.86749  -9050376.60146  22877455.397    22877463.820
       228.000         177.000
  23102474.650   -10276365.74849  -7313343.87146  23102474.280    23102484.195
       219.000         166.000
 03  1 13  0 43 30.0000000  0  7G17G 5G10G30G 6G24G23
  23831395.690    -8651956.19549  -6714918.02945  23831394.939    23831405.619
       213.000         158.000
  21272822.858   -24001168.03349 -18675251.58247  21272822.501    21272830.245
       242.000         206.000
  20806802.580   -22083508.31849 -16550170.99647  20806801.751    20806809.210
       242.000         209.000
  20401067.476   -27249181.42549 -21181304.23947  20401067.855    20401074.013
       244.000         212.000
  21992289.436   -19094131.04149 -14835643.16947  21992289.475    21992296.804
       234.000         193.000
  22892406.738   -12005321.13049  -8989152.66546  22892407.186    22892415.542
       228.000         177.000
  23083472.045   -10376224.52049  -7391155.73846  23083471.395    23083481.014
       218.000         167.000
 03  1 13  0 44  0.0000000  0  7G17G 5G10G30G 6G24G23
  23816891.219    -8728177.45349  -6774311.10145  23816891.219    23816900.546
       213.000         158.000
  21286591.817   -23928811.83049 -18618870.15647  21286591.669    21286599.133
       241.000         206.000
  20806416.870   -22085535.06749 -16551750.25147  20806416.518    20806423.403
       241.000         209.000
  20400665.074   -27251295.89949 -21182951.86847  20400665.563    20400671.712
       244.000         212.000
  21980224.507   -19157532.28549 -14885046.66747  21980224.207    21980231.900
       233.000         193.000
  22907368.062   -11926699.05849  -8927888.72646  22907368.179    22907376.997
       227.000         176.000
  23064504.951   -10475896.99249  -7468822.42546  23064503.826    23064513.989
       218.000         168.000
 03  1 13  0 44 30.0000000  0  7G17G 5G10G30G 6G24G23
  23802421.852    -8804214.18049  -6833560.38545  23802420.387    23802430.991
       212.000         157.000
  21300438.823   -23856045.46249 -18562169.11947  21300438.363    21300446.126
       242.000         206.000
  20806151.974   -22086926.88549 -16552834.74747  20806151.171    20806158.465
       242.000         209.000
  20400375.786   -27252816.23349 -21184136.52247  20400375.964    20400382.169
       244.000         212.000
  21968177.829   -19220837.81249 -14934375.57847  21968177.767    21968185.080
       233.000         194.000
  22922338.711   -11848028.00649  -8866586.61246  22922338.465    22922346.459
       226.000         176.000
  23045573.640   -10575381.10449  -7546342.34846  23045573.491    23045582.731
       220.000         169.000
 03  1 13  0 45  0.0000000  0  7G17G 5G10G30G 6G24G23
  23787987.915    -8880064.50849  -6892664.42045  23787987.119    23787996.973
       215.000         159.000
  21314363.713   -23782869.93649 -18505149.25947  21314363.363    21314371.191
       242.000         206.000
  20806008.230   -22087682.23149 -16553423.30647  20806007.481    20806014.842
       242.000         209.000
  20400199.805   -27253740.87349 -21184857.01247  20400200.315    20400206.320
       244.000         212.000
  21956149.765   -19284045.28349 -14983628.09547  21956149.314    21956157.124
       234.000         194.000
  22937318.581   -11769307.99349  -8805246.36646  22937318.555    22937327.365
       226.000         175.000
  23026678.914   -10674672.88649  -7623712.42046  23026678.172    23026688.456
       220.000         169.000
 03  1 13  0 45 30.0000000  0  7G17G 5G10G30G 6G24G23
  23773589.407    -8955728.48449  -6951623.21345  23773588.747    23773598.698
       213.000         158.000
  21328365.949   -23709287.64449 -18447812.44047  21328365.770    21328373.172
       241.000         205.000
  20805985.496   -22087801.51149 -16553516.21947  20805984.846    20805992.011
       241.000         209.000
  20400137.197   -27254069.80849 -21185113.31147  20400137.689    20400143.612
       244.000         212.000
  21944140.553   -19347153.93349 -15032803.61147  21944140.318    21944147.984
       233.000         194.000
  22952307.460   -11690540.69449  -8743869.26346  22952307.128    22952315.663
       226.000         175.000
  23007821.304   -10773769.92049  -7700930.72546  23007820.327    23007830.175
       218.000         169.000
 03  1 13  0 46  0.0000000  0  7G17G 5G10G30G 6G24G23
  23759226.222    -9031206.93649  -7010437.46845  23759225.211    23759235.051
       213.000         159.000
  21342444.963   -23635302.02749 -18390161.33947  21342444.803    21342452.337
       240.000         205.000
  20806083.531   -22087286.12449 -16553114.58847  20806082.789    20806090.127
       241.000         209.000
  20400187.737   -27253804.17949 -21184906.31147  20400188.294    20400194.345
       244.000         212.000
  21932150.075   -19410164.07249 -15081902.35947  21932150.148    21932157.462
       234.000         195.000
  22967304.924   -11611728.59049  -8682457.24746  22967305.086    22967313.023
       226.000         175.000
  22989000.955   -10872670.87649  -7777996.25646  22988999.956    22989010.149
       220.000         169.000
 03  1 13  0 46 30.0000000  0  7G17G 5G10G30G 6G24G23
  23744899.043    -9106496.45849  -7069104.48845  23744897.919    23744908.514
       213.000         159.000
  21356600.752   -23560913.07549 -18332195.95747  21356600.583    21356608.143
       241.000         205.000
  20806302.749   -22086133.87849 -16552216.70547  20806301.967    20806309.455
       241.000         209.000
  20400351.930   -27252941.27049 -21184233.90047  20400352.340    20400358.410
       244.000         212.000
  21920179.067   -19473072.05149 -15130921.51447  21920178.746    21920186.475
       234.000         195.000
  22982311.025   -11532870.91949  -8621009.72146  22982310.897    22982319.687
       226.000         175.000
  22970218.867   -10971370.54049  -7854904.92446  22970217.569    22970227.855
       219.000         170.000
 03  1 13  0 47  0.0000000  0  7G17G 5G10G30G 6G24G23
  23730607.289    -9181599.59649  -7127626.27645  23730606.723    23730615.544
       213.000         159.000
  21370832.428   -23486125.19449 -18273919.71047  21370832.421    21370839.684
       242.000         205.000
  20806642.701   -22084347.31449 -16550824.54047  20806641.782    20806649.279
       242.000         208.000
  20400629.364   -27251483.34549 -21183097.83647  20400629.948    20400635.709
       245.000         212.000
  21908227.209   -19535879.12549 -15179862.03147  21908227.160    21908234.567
       234.000         195.000
  22997325.050   -11453971.48949  -8559529.64246  22997324.983    22997333.889
       227.000         175.000
  22951475.207   -11069868.55149  -7931656.46846  22951474.605    22951484.423
       221.000         169.000
 03  1 13  0 47 30.0000000  0  7G17G 5G10G30G 6G24G23
  23716351.194    -9256515.37849  -7186002.07045  23716350.842    23716360.494
       214.000         159.000
  21385139.808   -23410939.74949 -18215333.68147  21385139.476    21385147.206
       240.000         205.000
  20807103.485   -22081925.73549 -16548937.56347  20807102.892    20807110.217
       241.000         208.000
  20401020.173   -27249429.58649 -21181497.48747  20401020.757    20401026.663
       244.000         212.000
  21896294.941   -19598583.46549 -15228722.51247  21896294.940    21896301.795
       235.000         195.000
  23012346.996   -11375031.11349  -8498017.66446  23012347.044    23012355.334
       225.000         175.000
  22932770.534   -11168161.65249  -8008248.34146  22932769.474    22932779.640
       220.000         170.000
 03  1 13  0 48  0.0000000  0  7G17G 5G10G30G 6G24G23
  23702130.771    -9331243.56149  -7244231.66445  23702130.247    23702139.701
       216.000         160.000
  21399522.379   -23335359.00949 -18156439.62747  21399522.379    21399529.416
       241.000         205.000
  20807685.023   -22078869.42949 -16546555.99247  20807684.430    20807691.531
       241.000         208.000
  20401524.387   -27246779.94149 -21179432.81147  20401524.858    20401530.973
       244.000         212.000
  21884382.402   -19661184.02449 -15277502.11247  21884382.447    21884389.363
       234.000         195.000
  23027376.477   -11296050.86749  -8436474.61746  23027376.509    23027385.304
       225.000         174.000
  22914105.351   -11266247.11649  -8084678.40846  22914104.905    22914114.478
       220.000         170.000
 03  1 13  0 48 30.0000000  0  7G17G 5G10G30G 6G24G23
  23687946.267    -9405782.84649  -7302314.08145  23687945.327    23687955.344
       214.000         159.000
  21413979.992   -23259383.98149 -18097238.34047  21413979.870    21413987.413
       241.000         204.000
  20808387.546   -22075177.51749 -16543679.14647  20808386.754    20808394.129
       241.000         208.000
  20402142.232   -27243533.05949 -21176902.75647  20402142.671    20402148.724
       244.000         212.000
  21872490.065   -19723678.48249 -15326199.04647  21872490.160    21872497.151
       234.000         196.000
  23042413.453   -11217031.10849  -8374900.78146  23042414.129    23042422.154
       225.000         174.000
  22895480.455   -11364121.02849  -8160943.64346  22895480.239    22895489.161
       220.000         170.000
 03  1 13  0 49  0.0000000  0  7G17G 5G10G30G 6G24G23
  23673797.656    -9480133.84149  -7360249.76845  23673796.861    23673807.015
       214.000         160.000
  21428511.975   -23183017.94749 -18037732.37047  21428511.680    21428519.088
       241.000         204.000
  20809210.766   -22070851.20549 -16540307.96147  20809209.954    20809217.459
       241.000         208.000
  20402873.508   -27239690.00049 -21173908.14847  20402873.834    20402880.010
       244.000         212.000
  21860617.869   -19786066.79949 -15374813.26847  21860618.109    21860625.378
       234.000         196.000
  23057457.469   -11137974.07449  -8313297.90546  23057457.444    23057465.868
       225.000         174.000
  22876896.146   -11461781.79749  -8237042.77746  22876895.715    22876905.338
       222.000         170.000
 03  1 13  0 49 30.0000000  0  7G17G 5G10G30G 6G24G23
  23659685.026    -9554295.79449  -7418038.13745  23659683.772    23659693.984
       215.000         161.000
  21443118.014   -23106262.84649 -17977923.23247  21443117.838    21443125.387
       240.000         204.000
  20810154.744   -22065890.37649 -16536442.34747  20810154.030    20810161.110
       241.000         208.000
  20403718.324   -27235250.45949 -21170448.74847  20403718.620    20403724.860
       244.000         212.000
  21848766.244   -19848347.45149 -15423343.59647  21848766.234    21848773.562
       234.000         196.000
  23072508.444   -11058880.81549  -8251666.79546  23072508.195    23072516.986
       224.000         174.000
  22858352.961   -11559226.31349  -8312973.39846  22858351.483    22858361.292
       220.000         170.000
 03  1 13  0 50  0.0000000  0  7G17G 5G10G30G 6G24G23
  23645608.374    -9628268.23449  -7475678.84645  23645608.066    23645617.257
       217.000         161.000
  21457797.675   -23029120.89749 -17917812.65347  21457797.536    21457804.991
       240.000         203.000
  20811219.378   -22060295.46249 -16532082.64647  20811218.653    20811225.889
       240.000         208.000
  20404676.644   -27230214.37249 -21166524.50747  20404677.056    20404683.067
       244.000         212.000
  21836935.275   -19910519.42549 -15471789.24047  21836935.374    21836942.449
       234.000         196.000
  23087565.979   -10979752.77849  -8190008.58946  23087565.781    23087574.513
       224.000         174.000
  22839851.385   -11656452.04049  -8388733.54246  22839850.151    22839860.052
       221.000         171.000
 03  1 13  0 50 30.0000000  0  7G17G 5G10G30G 6G24G23
  23631567.915    -9702051.03549  -7533171.79045  23631567.526    23631576.491
       219.000         162.000
  21472550.409   -22951594.78549 -17857402.72747  21472550.053    21472557.852
       241.000         203.000
  20812404.562   -22054067.22249 -16527229.43947  20812403.883    20812411.381
       242.000         208.000
  20405748.389   -27224582.24249 -21162135.81847  20405748.784    20405754.824
       245.000         212.000
  21825125.102   -19972581.98149 -15520149.62747  21825125.290    21825132.263
       237.000         197.000
  23102629.774   -10900591.73249  -8128324.65546  23102630.592    23102638.076
       225.000         173.000
  22821391.875   -11753456.61049  -8464321.35246  22821391.090    22821400.525
       223.000         172.000
 03  1 13  0 51  0.0000000  0  7G17G 5G10G30G 6G24G23
  23617563.707    -9775643.11749  -7590516.11545  23617563.711    23617572.553
       218.000         162.000
  21487376.022   -22873685.70649 -17796694.38547  21487375.749    21487383.276
       240.000         203.000
  20813710.393   -22047204.87749 -16521882.12847  20813709.689    20813716.922
       241.000         208.000
  20406933.763   -27218352.99349 -21157281.84447  20406934.163    20406940.147
       244.000         212.000
  21813336.265   -20034532.75149 -15568422.90547  21813336.222    21813343.393
       235.000         197.000
  23117699.902   -10821397.75949  -8066615.07546  23117700.469    23117708.881
       224.000         173.000
  22802975.186   -11850236.30249  -8539733.92446  22802973.700    22802983.934
       221.000         172.000
 03  1 13  0 51 30.0000000  0  7G17G 5G10G30G 6G24G23
  23603595.553    -9849045.54949  -7647712.67046  23603594.731    23603604.508
       218.000         163.000
  21502273.802   -22795397.30149 -17735690.46247  21502273.306    21502281.297
       239.000         203.000
  20815136.569   -22039710.11649 -16516042.02747  20815135.891    20815143.136
       240.000         208.000
  20408232.547   -27211527.81749 -21151963.51147  20408232.894    20408238.970
       244.000         212.000
  21801568.672   -20096371.73949 -15616609.07847  21801568.438    21801575.937
       235.000         197.000
  23132775.748   -10742173.43849  -8004881.83946  23132776.642    23132784.295
       224.000         173.000
  22784601.539   -11946789.66849  -8614970.15446  22784601.369    22784610.285
       222.000         172.000
 03  1 13  0 52  0.0000000  0  7G17G 5G10G30G 6G24G23
  23589663.718    -9922257.48549  -7704760.78246  23589663.286    23589672.296
       219.000         163.000
  21517243.513   -22716731.18249 -17674392.22247  21517243.202    21517251.025
       240.000         202.000
  20816683.125   -22031582.69049 -16509708.93847  20816682.521    20816689.799
       241.000         208.000
  20409644.770   -27204106.39849 -21146180.57347  20409645.307    20409651.163
       244.000         212.000
  21789822.658   -20158097.30349 -15664706.87447  21789822.540    21789829.715
       236.000         198.000
  23147857.269   -10662919.50749  -7943125.53646  23147856.742    23147866.392
       223.000         173.000
  22766271.574   -12043113.64849  -8690027.63646  22766270.409    22766279.884
       221.000         172.000
 03  1 13  0 52 30.0000000  0  7G17G 5G10G30G 6G24G23
  23575768.164    -9995278.60849  -7761660.22946  23575767.726    23575776.561
       220.000         163.000
  21532284.685   -22637689.35249 -17612801.21547  21532284.180    21532291.774
       241.000         202.000
  20818350.035   -22022823.01649 -16502883.18547  20818349.277    20818356.604
       243.000         208.000
  20411170.496   -27196088.60249 -21139932.92447  20411170.711    20411177.051
       246.000         212.000
  21778098.544   -20219708.07649 -15712715.21347  21778098.526    21778105.376
       238.000         198.000
  23162944.191   -10583637.17449  -7881347.10246  23162943.948    23162952.935
       224.000         172.000
  22747985.828   -12139205.31249  -8764904.10946  22747985.347    22747994.772
       222.000         172.000
 03  1 13  0 53  0.0000000  0  7G17G 5G10G30G 6G24G23
  23561908.960   -10068108.74649  -7818410.85146  23561908.830    23561917.074
       220.000         164.000
  21547396.832   -22558274.51149 -17550919.55547  21547396.448    21547404.342
       239.000         201.000
  20820137.132   -22013431.68249 -16495565.23547  20820136.429    20820143.720
       241.000         209.000
  20412809.631   -27187474.76849 -21133220.83547  20412809.946    20412815.898
       244.000         212.000
  21766396.392   -20281203.06249 -15760633.33647  21766396.277    21766403.288
       236.000         198.000
  23178036.263   -10504327.91449  -7819547.68946  23178036.010    23178044.357
       224.000         172.000
  22729744.762   -12235062.23649  -8839597.67846  22729744.295    22729753.300
       223.000         173.000
 03  1 13  0 53 30.0000000  0  7G17G 5G10G30G 6G24G23
  23548086.134   -10140747.50649  -7875012.35246  23548086.269    23548094.549
       219.000         163.000
  21562579.539   -22478489.06149 -17488749.10747  21562579.407    21562586.769
       239.000         201.000
  20822044.215   -22003409.73849 -16487755.90047  20822043.649    20822050.833
       241.000         209.000
  20414562.145   -27178265.24749 -21126044.57647  20414562.742    20414568.695
       244.000         212.000
  21754716.462   -20342581.22749 -15808460.43147  21754716.543    21754723.457
       236.000         198.000
  23193133.228   -10424993.08049  -7757728.33246  23193132.718    23193142.032
       222.000         171.000
  22711548.808   -12330681.99649  -8914106.44246  22711548.122    22711557.542
       223.000         173.000
 03  1 13  0 54  0.0000000  0  7G17G 5G10G30G 6G24G23
  23534299.819   -10213194.77049  -7931464.63646  23534298.874    23534308.442
       218.000         164.000
  21577832.284   -22398335.34949 -17426291.70147  21577831.888    21577839.906
       238.000         201.000
  20824071.294   -21992757.28549 -16479455.25747  20824070.666    20824077.974
       241.000         209.000
  20416427.991   -27168460.04949 -21118404.15247  20416428.381    20416434.629
       244.000         212.000
  21743059.048   -20403841.17749 -15856195.40547  21743059.053    21743066.124
       236.000         199.000
  23208234.786   -10345633.81349  -7695889.94846  23208234.254    23208243.695
       223.000         170.000
  22693398.566   -12426061.71449  -8988428.16746  22693397.638    22693407.052
       224.000         173.000
 03  1 13  0 54 30.0000000  0  7G17G 5G10G30G 6G24G23
  23520550.079   -10285449.35349  -7987766.78546  23520549.133    23520558.853
       218.000         165.000
  21593154.853   -22317814.86449 -17363548.50047  21593154.280    21593162.367
       238.000         200.000
  20826218.411   -21981474.05249 -16470663.09547  20826217.690    20826224.959
       241.000         209.000
  20418407.321   -27158058.65749 -21110299.15947  20418407.671    20418413.870
       243.000         212.000
  21731424.492   -20464980.92049 -15903836.71047  21731424.168    21731431.181
       236.000         199.000
  23223340.898   -10266250.64249  -7634032.94746  23223340.976    23223350.758
       222.000         170.000
  22675294.597   -12521198.09949  -9062560.29846  22675293.681    22675302.594
       222.000         174.000
 03  1 13  0 55  0.0000000  0  7G17G 5G10G30G 6G24G23
  23506836.937   -10357511.72949  -8043919.18346  23506836.176    23506846.256
       221.000         164.000
  21608546.596   -22236930.78149 -17300521.97747  21608546.435    21608554.247
       239.000         200.000
  20828485.274   -21969561.57149 -16461380.60947  20828484.630    20828491.680
       242.000         209.000
  20420499.840   -27147062.29749 -21101730.55847  20420500.342    20420506.258
       246.000         212.000
  21719812.935   -20526000.07849 -15951384.05847  21719812.757    21719819.752
       237.000         199.000
  23238451.172   -10186845.72349  -7572158.99146  23238450.545    23238459.861
       223.000         170.000
  22657237.266   -12616089.32649  -9136501.40246  22657236.641    22657245.249
       224.000         174.000
 03  1 13  0 55 30.0000000  0  7G17G 5G10G30G 6G24G23
  23493160.579   -10429380.95249  -8099921.07946  23493159.824    23493169.597
       220.000         164.000
  21624007.257   -22155684.49249 -17237213.21447  21624006.882    21624014.727
       237.000         200.000
  20830871.904   -21957019.61749 -16451607.62747  20830871.128    20830878.441
       241.000         209.000
  20422705.734   -27135470.25249 -21092697.79248  20422706.215    20422712.125
       244.000         213.000
  21708224.668   -20586896.56849 -15998835.81947  21708224.519    21708231.683
       236.000         199.000
  23253565.525   -10107419.27049  -7510268.26346  23253565.572    23253573.731
       222.000         169.000
  22639227.291   -12710732.05349  -9210248.87546  22639225.770    22639236.043
       223.000         175.000
 03  1 13  0 56  0.0000000  0  7G17G 5G10G30G 6G24G23
  23479520.883   -10501057.50249  -8155772.82546  23479519.567    23479529.373
       220.000         165.000
  21639536.240   -22074079.38149 -17173624.84947  21639535.741    21639543.535
       238.000         199.000
  20833377.990   -21943849.84349 -16441345.42847  20833377.273    20833384.354
       242.000         208.000
  20425024.748   -27123283.82349 -21083201.86248  20425024.989    20425031.151
       246.000         213.000
  21696659.794   -20647670.15349 -16046191.80647  21696659.755    21696666.526
       238.000         199.000
  23268683.469   -10027973.85749  -7448362.74346  23268683.536    23268692.524
       223.000         169.000
  22621264.852   -12805124.45249  -9283801.28946  22621263.615    22621273.452
       225.000         175.000
 03  1 13  0 56 30.0000000  0  7G17G 5G10G30G 6G24G23
  23465917.958   -10572540.95349  -8211474.12046  23465917.683    23465926.332
       220.000         165.000
  21655133.143   -21992117.13349 -17109758.20147  21655132.774    21655140.411
       236.000         199.000
  20836003.566   -21930052.13449 -16430593.94047  20836002.855    20836010.175
       241.000         208.000
  20427456.900   -27110502.71949 -21073242.55748  20427457.386    20427463.291
       244.000         213.000
  21685118.683   -20708318.89549 -16093450.51447  21685118.615    21685125.393
       236.000         199.000
  23283804.972    -9948509.77749  -7386442.68046  23283804.767    23283813.374
       221.000         169.000
  22603350.756   -12899263.18749  -9357156.05346  22603350.476    22603359.282
       225.000         176.000
 03  1 13  0 57  0.0000000  0  7G17G 5G10G30G 6G24G23
  23452351.699   -10643831.65349  -8267025.23046  23452351.295    23452359.649
       221.000         165.000
  21670797.477   -21909800.52449 -17045615.42447  21670797.049    21670804.788
       237.000         199.000
  20838748.442   -21915627.60049 -16419354.01247  20838747.635    20838755.011
       241.000         208.000
  20430002.086   -27097127.66249 -21062820.42948  20430002.623    20430008.513
       245.000         213.000
  21673601.469   -20768841.91249 -16140611.25547  21673601.488    21673608.207
       236.000         199.000
  23298929.781    -9869028.29949  -7324509.06446  23298929.117    23298937.958
       221.000         168.000
  22585485.322   -12993146.12849  -9430311.49946  22585485.094    22585493.622
       223.000         176.000
 03  1 13  0 57 30.0000000  0  7G17G 5G10G30G 6G24G23
  23438822.355   -10714928.04549  -8322424.92746  23438822.201    23438831.405
       220.000         165.000
  21686528.911   -21827131.61249 -16981198.12547  21686528.719    21686536.364
       237.000         198.000
  20841612.546   -21900576.52049 -16407625.86947  20841611.972    20841619.166
       241.000         208.000
  20432660.347   -27083158.40049 -21051935.28548  20432660.853    20432666.783
       245.000         213.000
  21662108.593   -20829237.23449 -16187672.49847  21662108.464    21662115.278
       236.000         199.000
  23314057.768    -9789530.32349  -7262562.59446  23314057.874    23314066.927
       221.000         168.000
  22567669.185   -13086770.12949  -9503265.17746  22567668.908    22567677.861
       225.000         176.000
 03  1 13  0 58  0.0000000  0  7G17G 5G10G30G 6G24G23
  23425329.853   -10785831.55049  -8377674.32346  23425329.052    23425338.072
       219.000         165.000
  21702326.695   -21744114.01949 -16916509.12447  21702326.222    21702334.282
       237.000         198.000
  20844595.507   -21884900.80549 -16395410.99147  20844594.577    20844602.112
       241.000         208.000
  20435431.389   -27068596.43749 -21040588.28748  20435431.655    20435437.788
       245.000         213.000
  21650639.985   -20889504.70949 -16234634.11347  21650639.784    21650646.837
       237.000         199.000
  23329188.423    -9710018.08449  -7200605.00246  23329189.029    23329197.119
       222.000         167.000
  22549902.655   -13180133.68949  -9576015.90946  22549902.038    22549910.700
       226.000         177.000
 03  1 13  0 58 30.0000000  0  7G17G 5G10G30G 6G24G23
  23411874.296   -10856540.46849  -8432772.09746  23411873.797    23411882.581
       219.000         165.000
  21718190.660   -21660748.44449 -16851548.97547  21718190.340    21718198.029
       236.000         198.000
  20847697.468   -21868599.66649 -16382708.78347  20847696.770    20847704.070
       241.000         208.000
  20438315.449   -27053440.66249 -21028778.58848  20438315.808    20438321.822
       244.000         213.000
  21639196.270   -20949641.57349 -16281493.96247  21639196.256    21639203.168
       237.000         199.000
  23344321.893    -9630491.44749  -7138636.19146  23344320.393    23344330.482
       220.000         167.000
  22532186.401   -13273232.64449  -9648560.46646  22532185.383    22532195.132
       224.000         177.000
 03  1 13  0 59  0.0000000  0  7G17G 5G10G30G 6G24G23
  23398455.689   -10927055.39749  -8487718.70946  23398455.866    23398463.982
       219.000         166.000
  21734120.184   -21577038.38549 -16786320.39747  21734119.632    21734127.547
       236.000         197.000
  20850918.103   -21851674.97549 -16369520.68447  20850917.530    20850924.719
       241.000         209.000
  20441312.177   -27037692.56749 -21016507.33948  20441312.534    20441318.476
       244.000         213.000
  21627777.444   -21009647.67349 -16328251.90547  21627777.161    21627784.179
       237.000         199.000
  23359457.649    -9550952.40749  -7076657.72146  23359456.974    23359466.712
       219.000         166.000
  22514520.841   -13366065.51849  -9720897.68746  22514520.592    22514529.316
       224.000         177.000
 03  1 13  0 59 30.0000000  0  7G17G 5G10G30G 6G24G23
  23385074.056   -10997376.14249  -8542514.01146  23385073.640    23385082.786
       219.000         166.000
  21750114.773   -21492986.21449 -16720825.23847  21750114.549    21750121.945
       236.000         197.000
  20854257.232   -21834127.51749 -16355847.31347  20854256.469    20854264.024
       242.000         209.000
  20444421.580   -27021352.60249 -21003774.89447  20444422.011    20444427.887
       244.000         212.000
  21616383.733   -21069521.62249 -16374906.88247  21616383.669    21616390.532
       238.000         200.000
  23374595.432    -9471402.14449  -7014670.50946  23374595.204    23374603.633
       220.000         166.000
  22496906.360   -13458629.63449  -9793025.47546  22496905.267    22496914.850
       224.000         178.000
 03  1 13  1  0  0.0000000  0  7G17G 5G10G30G 6G24G23
  23371729.552   -11067501.53649  -8597157.09346  23371728.679    23371737.692
       220.000         166.000
  21766174.247   -21408593.37049 -16655064.61747  21766173.981    21766181.402
       236.000         197.000
  20857714.958   -21815957.04049 -16341688.47447  20857714.305    20857721.538
       241.000         209.000
  20447643.668   -27004420.21049 -20990580.81847  20447644.121    20447650.114
       244.000         212.000
  21605015.677   -21129261.06649 -16421457.04747  21605015.539    21605022.413
       238.000         200.000
  23389735.565    -9391840.31849  -6952674.28246  23389735.953    23389744.545
       221.000         166.000
  22479343.743   -13550921.39049  -9864941.03046  22479342.885    22479351.763
       224.000         178.000
 03  1 13  1  0 30.0000000  0  7G17G 5G10G30G 6G24G23
  23358422.003   -11137433.21849  -8651649.22446  23358421.162    23358430.178
       220.000         166.000
  21782297.708   -21323863.98249 -16589041.74847  21782297.060    21782305.064
       237.000         196.000
  20861290.693   -21797166.23749 -16327046.25747  20861289.870    20861297.229
       242.000         209.000
  20450978.125   -26986897.55849 -20976926.78947  20450978.412    20450984.402
       245.000         212.000
  21593673.107   -21188866.50749 -16467902.79147  21593672.681    21593679.855
       239.000         200.000
  23404877.242    -9312270.34749  -6890671.69146  23404877.031    23404885.111
       221.000         166.000
  22461833.127   -13642939.99049  -9936643.72446  22461832.517    22461841.500
       226.000         178.000
 03  1 13  1  1  0.0000000  0  7G17G 5G10G30G 6G24G23
  23345151.509   -11207169.84549  -8705989.36746  23345151.208    23345160.548
       221.000         166.000
  21798484.988   -21238799.42149 -16522757.71747  21798484.653    21798492.688
       237.000         196.000
  20864984.559   -21777754.87149 -16311920.49847  20864984.032    20864991.030
       243.000         209.000
  20454424.938   -26968784.27149 -20962812.54047  20454425.306    20454431.269
       245.000         212.000
  21582356.548   -21248335.41249 -16514242.16347  21582356.266    21582363.191
       240.000         201.000
  23420020.517    -9232692.01149  -6828662.61846  23420019.638    23420028.462
       221.000         166.000
  22444375.166   -13734681.76749 -10008130.72646  22444374.553    22444383.678
       227.000         179.000
 03  1 13  1  1 30.0000000  0  7G17G 5G10G30G 6G24G23
  23331918.182   -11276711.00549  -8760177.19946  23331918.369    23331926.619
       220.000         167.000
  21814735.615   -21153401.87249 -16456214.21247  21814735.263    21814742.943
       236.000         196.000
  20868796.362   -21757723.59949 -16296311.68647  20868795.503    20868802.783
       243.000         209.000
  20457984.119   -26950080.63349 -20948238.26847  20457984.472    20457990.660
       245.000         212.000
  21571066.212   -21307666.33349 -16560474.00447  21571066.142    21571073.147
       240.000         201.000
  23435165.145    -9153106.50749  -6766647.93246  23435165.063    23435173.787
       221.000         166.000
  22426970.456   -13826143.75849 -10079399.70046  22426970.132    22426978.740
       228.000         180.000
 03  1 13  1  2  0.0000000  0  7G17G 5G10G30G 6G24G23
  23318722.035   -11346056.77349  -8814212.76746  23318721.415    23318730.669
       219.000         167.000
  21831049.043   -21067674.20649 -16389413.46947  21831049.129    21831056.192
       236.000         196.000
  20872725.854   -21737073.94249 -16280221.01847  20872725.213    20872732.430
       241.000         209.000
  20461655.415   -26930787.60249 -20933204.73247  20461655.910    20461661.941
       244.000         212.000
  21559802.331   -21366858.23949 -16606597.52547  21559802.399    21559809.254
       239.000         201.000
  23450310.947    -9073514.98749  -6704628.56046  23450310.818    23450319.778
       219.000         165.000
  22409619.410   -13917323.74949 -10150448.93146  22409618.474    22409627.588
       226.000         180.000
 03  1 13  1  2 30.0000000  0  7G17G 5G10G30G 6G24G23
  23305563.076   -11415207.09349  -8868096.03546  23305562.715    23305571.294
       220.000         167.000
  21847424.900   -20981618.66049 -16322357.23747  21847424.573    21847432.638
       236.000         196.000
  20876772.839   -21715806.74149 -16263649.14647  20876772.021    20876779.188
       243.000         208.000
  20465438.846   -26910905.60949 -20917712.26147  20465439.171    20465445.140
       245.000         212.000
  21548565.173   -21425909.62549 -16652611.55147  21548565.159    21548571.957
       240.000         202.000
  23465457.658    -8993918.44649  -6642605.28146  23465457.262    23465466.535
       221.000         165.000
  22392322.505   -14008219.23549 -10221276.46646  22392321.918    22392331.124
       227.000         180.000
 03  1 13  1  3  0.0000000  0  7G17G 5G10G30G 6G24G23
  23292441.347   -11484161.94549  -8921826.98646  23292440.679    23292449.679
       218.000         167.000
  21863862.588   -20895238.12849 -16255047.76347  21863862.043    21863870.065
       236.000         195.000
  20880937.099   -21693923.38149 -16246597.14847  20880936.229    20880943.597
       242.000         208.000
  20469334.085   -26890435.82249 -20901761.76747  20469334.405    20469340.469
       245.000         212.000
  21537354.951   -21484819.59449 -16698515.37847  21537354.869    21537361.444
       240.000         202.000
  23480605.029    -8914318.36349  -6580579.23146  23480605.145    23480613.291
       220.000         166.000
  22375080.133   -14098828.07249 -10291880.63746  22375079.805    22375088.365
       227.000         181.000
 03  1 13  1  3 30.0000000  0  7G17G 5G10G30G 6G24G23
  23279356.595   -11552922.50949  -8975406.54446  23279356.447    23279364.835
       220.000         168.000
  21880361.496   -20808536.05449 -16187487.75247  21880361.331    21880369.003
       234.000         195.000
  20885218.218   -21671425.76849 -16229066.51747  20885217.595    20885224.713
       241.000         208.000
  20473340.926   -26869379.66949 -20885354.37247  20473341.311    20473347.344
       244.000         212.000
  21526171.734   -21543587.68249 -16744308.65647  21526171.831    21526178.374
       239.000         202.000
  23495752.692    -8834716.88449  -6518552.10646  23495752.549    23495760.597
       220.000         165.000
  22357892.633   -14189148.49549 -10362260.07546  22357892.103    22357900.582
       226.000         181.000
 03  1 13  1  4  0.0000000  0  7G17G 5G10G30G 6G24G23
  23266308.750   -11621489.01149  -9028834.88946  23266308.070    23266316.774
       220.000         169.000
  21896920.937   -20721515.67449 -16119679.70447  21896920.487    21896928.775
       234.000         195.000
  20889615.965   -21648315.39449 -16211058.40447  20889615.310    20889622.446
       241.000         208.000
  20477459.061   -26847738.51749 -20868491.13047  20477459.560    20477465.627
       243.000         212.000
  21515015.673   -21602212.94849 -16789990.64347  21515015.775    21515022.542
       239.000         202.000
  23510900.352    -8755115.41549  -6456524.98046  23510900.462    23510908.847
       220.000         165.000
  22340760.395   -14279178.69649 -10432413.35046  22340759.984    22340768.514
       226.000         182.000
 03  1 13  1  4 30.0000000  0  7G17G 5G10G30G 6G24G23
  23253298.201   -11689859.26749  -9082110.31046  23253298.097    23253306.416
       220.000         169.000
  21913540.787   -20634177.83949 -16051624.28247  21913540.592    21913548.321
       234.000         194.000
  20894130.368   -21624591.97049 -16192572.58847  20894129.795    20894136.841
       241.000         208.000
  20481688.724   -26825511.47149 -20851171.34947  20481689.212    20481695.220
       243.000         212.000
  21503887.393   -21660692.30449 -16835558.93647  21503887.419    21503894.325
       239.000         203.000
  23526048.100    -8675513.33849  -6394497.38346  23526047.806    23526056.232
       220.000         165.000
  22323684.173   -14368914.42749 -10502337.17746  22323683.476    22323692.197
       227.000         183.000
 03  1 13  1  5  0.0000000  0  7G17G 5G10G30G 6G24G23
  23240325.176   -11758032.68049  -9135232.34246  23240324.638    23240333.287
       222.000         170.000
  21930220.782   -20546524.02049 -15983322.65147  21930220.684    21930228.298
       235.000         194.000
  20898761.446   -21600255.37149 -16173608.97247  20898760.659    20898767.746
       243.000         208.000
  20486029.997   -26802697.94049 -20833394.56647  20486030.446    20486036.337
       245.000         212.000
  21492787.320   -21719023.49349 -16881011.77447  21492787.213    21492794.032
       241.000         203.000
  23541195.992    -8595910.92449  -6332469.52046  23541196.379    23541204.530
       221.000         165.000
  22306664.647   -14458352.25249 -10572028.86846  22306663.628    22306673.094
       229.000         183.000
 03  1 13  1  5 30.0000000  0  7G17G 5G10G30G 6G24G23
  23227389.648   -11826008.74649  -9188200.59846  23227389.103    23227398.044
       222.000         170.000
  21946960.390   -20458556.86849 -15914776.85847  21946959.986    21946968.139
       233.000         194.000
  20903508.948   -21575307.08249 -16154168.71847  20903508.442    20903515.443
       241.000         208.000
  20490482.596   -26779299.29649 -20815161.85647  20490483.144    20490489.094
       243.000         212.000
  21481715.696   -21777205.24349 -16926348.17047  21481715.878    21481722.239
       239.000         203.000
  23556343.741    -8516309.10849  -6270442.12546  23556343.783    23556351.833
       220.000         165.000
  22289702.286   -14547489.76249 -10641486.55546  22289701.761    22289710.034
       227.000         184.000
 03  1 13  1  6  0.0000000  0  7G17G 5G10G30G 6G24G23
  23214491.803   -11893787.08249  -9241014.79046  23214490.802    23214500.368
       223.000         171.000
  21963759.343   -20370277.88049 -15845988.07347  21963758.706    21963767.149
       235.000         193.000
  20908372.764   -21549747.39649 -16134252.04247  20908371.945    20908379.189
       243.000         208.000
  20495046.604   -26755315.17349 -20796472.92147  20495046.884    20495053.124
       245.000         212.000
  21470672.951   -21835235.14849 -16971566.23447  21470672.753    21470679.431
       241.000         203.000
  23571491.288    -8436708.15749  -6208415.39646  23571490.647    23571499.702
       221.000         164.000
  22272797.679   -14636323.59749 -10710707.59946  22272796.584    22272805.884
       229.000         184.000
 03  1 13  1  6 30.0000000  0  7G17G 5G10G30G 6G24G23
  23201631.373   -11961368.57849  -9293675.59546  23201631.205    23201639.370
       223.000         171.000
  21980616.913   -20281690.90849 -15776959.31047  21980616.426    21980624.839
       233.000         193.000
  20913352.495   -21523578.52249 -16113860.68847  20913351.828    20913358.799
       241.000         208.000
  20499721.613   -26730747.75549 -20777329.48147  20499721.968    20499728.190
       243.000         212.000
  21459659.160   -21893112.87949 -17016665.73347  21459659.127    21459665.730
       240.000         204.000
  23586638.352    -8357109.92149  -6146390.78246  23586637.930    23586646.409
       219.000         164.000
  22255951.117   -14724852.46849 -10779691.02946  22255950.046    22255959.155
       229.000         185.000
 03  1 13  1  7  0.0000000  0  7G17G 5G10G30G 6G24G23
  23188808.339   -12028753.77749  -9346183.44246  23188807.463    23188816.199
       222.000         172.000
  21997532.457   -20192799.21249 -15707693.09247  21997531.766    21997539.964
       233.000         192.000
  20918447.759   -21496802.58549 -16092996.28747  20918446.831    20918454.243
       242.000         208.000
  20504507.397   -26705598.33549 -20757732.52347  20504507.735    20504513.937
       244.000         212.000
  21448674.434   -21950837.80149 -17061646.14947  21448674.372    21448681.198
       240.000         204.000
  23601784.398    -8277516.31149  -6084369.76846  23601783.985    23601793.179
       218.000         163.000
  22239162.923   -14813074.50949 -10848435.36146  22239162.208    22239170.507
       230.000         185.000
 03  1 13  1  7 30.0000000  0  7G17G 5G10G30G 6G24G23
  23176022.820   -12095941.54349  -9398537.45946  23176022.244    23176030.808
       223.000         172.000
  22014505.715   -20103604.12149 -15638190.47247  22014505.415    22014513.224
       234.000         192.000
  20923658.534   -21469419.68449 -16071658.93547  20923657.673    20923664.790
       242.000         208.000
  20509403.944   -26679866.83649 -20737682.00547  20509404.335    20509410.368
       244.000         212.000
  21437719.250   -22008407.51649 -17106505.63247  21437719.026    21437726.162
       240.000         204.000
  23616929.727    -8197927.15649  -6022352.23446  23616929.350    23616938.627
       220.000         163.000
  22222433.807   -14900986.24049 -10916937.90346  22222433.340    22222441.583
       229.000         186.000
 03  1 13  1  8  0.0000000  0  7G17G 5G10G30G 6G24G23
  23163274.755   -12162932.61749  -9450738.19846  23163274.049    23163283.016
       223.000         173.000
  22031536.112   -20014108.94249 -15568454.01447  22031535.605    22031543.583
       232.000         192.000
  20928984.410   -21441431.91949 -16049850.26147  20928983.786    20928990.781
       241.000         208.000
  20514410.933   -26653554.92549 -20717179.22347  20514411.528    20514417.413
       243.000         212.000
  21426793.722   -22065821.34649 -17151243.64347  21426793.510    21426800.381
       238.000         204.000
  23632073.820    -8118344.48649  -5960339.75046  23632073.336    23632082.751
       219.000         163.000
  22205764.016   -14988586.01449 -10985197.36846  22205763.170    22205771.612
       228.000         186.000
 03  1 13  1  8 30.0000000  0  7G17G 5G10G30G 6G24G23
  23150564.157   -12229726.74749  -9502785.47946  23150563.718    23150572.452
       223.000         173.000
  22048623.145   -19924316.25449 -15498485.72747  22048622.546    22048630.961
       232.000         191.000
  20934425.105   -21412840.62749 -16027571.30647  20934424.599    20934431.492
       241.000         207.000
  20519528.225   -26626663.58749 -20696224.93547  20519528.656    20519534.634
       244.000         212.000
  21415898.078   -22123078.07649 -17195859.23447  21415898.062    21415904.870
       238.000         204.000
  23647216.375    -8038769.41849  -5898333.17346  23647216.663    23647224.741
       218.000         163.000
  22189154.092   -15075871.45949 -11053211.90546  22189153.679    22189161.623
       230.000         186.000
 03  1 13  1  9  0.0000000  0  7G17G 5G10G30G 6G24G23
  23137891.084   -12296323.86549  -9554679.24546  23137890.202    23137898.777
       223.000         174.000
  22065766.212   -19834228.88749 -15428287.82147  22065765.878    22065774.300
       232.000         191.000
  20939980.397   -21383647.26449 -16004823.20047  20939979.724    20939986.768
       241.000         207.000
  20524755.550   -26599193.96649 -20674820.03547  20524756.077    20524761.948
       244.000         212.000
  21405032.619   -22180176.28549 -17240351.29747  21405032.354    21405039.523
       239.000         204.000
  23662357.291    -7959203.08849  -5836333.39745  23662356.511    23662364.931
       219.000         162.000
  22172604.341   -15162840.40749 -11120979.81046  22172603.666    22172612.403
       229.000         187.000
 03  1 13  1  9 30.0000000  0  7G17G 5G10G30G 6G24G23
  23125255.629   -12362723.13949  -9606418.84946  23125255.299    23125263.663
       222.000         174.000
  22082965.132   -19743848.08149 -15357861.25747  22082964.672    22082972.626
       232.000         191.000
  20945650.264   -21353851.76449 -15981605.90647  20945649.579    20945656.484
       241.000         207.000
  20530092.933   -26571145.78349 -20652964.31347  20530093.312    20530099.447
       244.000         212.000
  21394197.873   -22237113.13349 -17284717.62647  21394197.705    21394204.557
       239.000         204.000
  23677496.826    -7879644.73349  -5774339.85945  23677496.900    23677504.826
       217.000         162.000
  22156115.597   -15249488.95649 -11188498.06347  22156114.841    22156123.070
       230.000         188.000
 03  1 13  1 10  0.0000000  0  7G17G 5G10G30G 6G24G23
  23112657.593   -12428925.79049  -9658005.24846  23112657.540    23112666.352
       224.000         174.000
  22100219.100   -19653177.98249 -15287209.27547  22100219.047    22100227.403
       231.000         190.000
  20951434.110   -21323457.27349 -15957921.85947  20951433.534    20951440.624
       240.000         207.000
  20535539.974   -26542521.43749 -20630659.63347  20535540.421    20535546.410
       243.000         212.000
  21383393.797   -22293888.65149 -17328958.24247  21383393.725    21383400.510
       239.000         204.000
  23692634.135    -7800096.84949  -5712354.45945  23692634.021    23692642.624
       217.000         161.000
  22139688.008   -15335816.14849 -11255765.90747  22139687.233    22139695.947
       229.000         188.000
 03  1 13  1 10 30.0000000  0  8G17G 5G10G30G 6G29G24G23
  23100097.124   -12494931.18749  -9709437.93346  23100096.626    23100105.156
       226.000         175.000
  22117527.731   -19562220.64549 -15216333.46447  22117527.594    22117535.662
       234.000         190.000
  20957331.811   -21292464.53449 -15933771.65247  20957331.291    20957338.355
       243.000         207.000
  20541096.540   -26513321.53549 -20607906.46447  20541097.134    20541103.155
       245.000         212.000
  21372620.787   -22350500.99049 -17373071.70647  21372620.683    21372627.368
       241.000         205.000
  24656953.107    -2370943.15149  -1831108.34645  24656953.127    24656963.791
       209.000         136.000
  23707769.423    -7720559.94449  -5650377.62845  23707769.073    23707778.493
       218.000         161.000
  22123322.094   -15421819.09649 -11322781.10247  22123321.503    22123329.873
       232.000         189.000
 03  1 13  1 11  0.0000000  0  8G17G 5G10G30G 6G29G24G23
  23087574.224   -12560739.15749  -9760716.78346  23087573.545    23087582.329
       224.000         175.000
  22134890.530   -19470978.66449 -15145235.86047  22134890.674    22134898.548
       231.000         190.000
  20963343.118   -21260874.84349 -15909156.28747  20963342.400    20963349.596
       240.000         207.000
  20546762.500   -26483546.84449 -20584705.41447  20546762.882    20546769.009
       243.000         212.000
  21361879.142   -22406948.43449 -17417056.67347  21361879.149    21361885.719
       239.000         205.000
  24643072.156    -2443887.61549  -1887948.01945  24643071.956    24643082.100
       209.000         139.000
  23722902.592    -7641034.75849  -5588409.94145  23722901.667    23722910.991
       216.000         161.000
  22107018.408   -15507495.15349 -11389541.57247  22107017.920    22107026.189
       229.000         189.000
 03  1 13  1 11 30.0000000  0  8G17G 5G10G30G 6G29G24G23
  23075088.801   -12626350.21749  -9811842.19846  23075088.419    23075096.672
       225.000         175.000
  22152306.963   -19379454.97249 -15073918.74647  22152306.937    22152315.090
       231.000         190.000
  20969467.677   -21228689.97849 -15884077.15047  20969466.980    20969474.127
       240.000         207.000
  20552537.536   -26453198.84549 -20561057.62447  20552537.844    20552544.051
       243.000         212.000
  21351169.112   -22463229.88049 -17460912.29847  21351169.183    21351175.610
       239.000         205.000
  24629196.665    -2516802.94649  -1944764.89245  24629197.591    24629206.758
       211.000         139.000
  23738033.226    -7561522.64649  -5526452.42745  23738033.361    23738041.313
       217.000         161.000
  22090777.248   -15592842.35849 -11456045.78747  22090776.783    22090785.195
       231.000         189.000
 03  1 13  1 12  0.0000000  0  8G17G 5G10G30G 6G29G24G23
  23062640.998   -12691763.71449  -9862813.66546  23062640.406    23062649.426
       225.000         175.000
  22169776.612   -19287651.65849 -15002383.73247  22169776.383    22169784.321
       231.000         189.000
  20975705.314   -21195910.93949 -15858535.01947  20975704.582    20975711.721
       240.000         207.000
  20558421.552   -26422278.09949 -20536963.54647  20558421.961    20558427.878
       243.000         212.000
  21340491.031   -22519343.38049 -17504637.05147  21340491.055    21340497.387
       239.000         205.000
  24615327.400    -2589685.54349  -2001556.39345  24615325.954    24615336.908
       207.000         136.000
  23753161.276    -7482024.20249  -5464505.56945  23753161.159    23753170.052
       217.000         161.000
  22074599.231   -15677857.95249 -11522291.61247  22074598.543    22074607.222
       230.000         189.000
 03  1 13  1 12 30.0000000  0  8G17G 5G10G30G 6G29G24G23
  23050230.717   -12756979.84849  -9913631.34746  23050230.318    23050238.529
       224.000         175.000
  22187298.875   -19195571.71249 -14930633.16947  22187298.413    22187306.885
       231.000         189.000
  20982055.567   -21162539.94549 -15832531.62647  20982054.816    20982062.068
       240.000         207.000
  20564414.225   -26390786.38449 -20512424.55047  20564414.602    20564420.570
       243.000         212.000
  21329845.080   -22575288.04449 -17548230.24847  21329845.066    21329851.698
       240.000         205.000
  24601464.828    -2662533.14049  -2058320.51945  24601464.121    24601474.533
       207.000         139.000
  23768286.465    -7402540.52449  -5402570.21145  23768286.857    23768295.658
       217.000         160.000
  22058484.710   -15762540.05749 -11588277.57647  22058483.799    22058492.544
       231.000         190.000
 03  1 13  1 13  0.0000000  0  8G17G 5G10G30G 6G29G24G23
  23037858.016   -12821998.59449  -9964295.21646  23037857.313    23037865.487
       223.000         175.000
  22204873.349   -19103217.42949 -14858668.83047  22204872.996    22204881.116
       229.000         188.000
  20988518.320   -21128578.05149 -15806067.78947  20988517.712    20988524.637
       240.000         207.000
  20570515.397   -26358724.42849 -20487441.21447  20570515.708    20570521.802
       243.000         212.000
  21319231.617   -22631062.04449 -17591690.45147  21319231.543    21319238.094
       240.000         206.000
  24587609.418    -2735342.54949  -2115054.91945  24587608.793    24587620.191
       206.000         136.000
  23783408.701    -7323072.59649  -5340647.12845  23783409.228    23783417.352
       216.000         159.000
  22042434.118   -15846885.92549 -11654001.53247  22042433.391    22042441.849
       232.000         190.000
 03  1 13  1 13 30.0000000  0  8G17G 5G10G30G 6G29G24G23
  23025522.829   -12886819.95549 -10014805.28946  23025522.323    23025530.324
       223.000         175.000
  22222499.469   -19010591.44149 -14786492.77147  22222499.174    22222507.422
       230.000         188.000
  20995093.173   -21094026.75749 -15779144.68047  20995092.550    20995099.302
       240.000         206.000
  20576724.859   -26326093.40449 -20462014.44847  20576725.399    20576731.454
       243.000         212.000
  21308650.905   -22686663.94949 -17635016.56347  21308650.758    21308657.535
       240.000         206.000
  24573761.988    -2808110.72949  -2171757.21745  24573761.319    24573770.020
       206.000         138.000
  23798527.844    -7243621.00249  -5278736.77245  23798527.132    23798535.762
       215.000         158.000
  22026448.036   -15930893.10749 -11719461.57547  22026447.348    22026455.557
       231.000         190.000
 03  1 13  1 14  0.0000000  0  8G17G 5G10G30G 6G29G24G23
  23013225.168   -12951444.20049 -10065161.75546  23013224.986    23013233.303
       223.000         175.000
  22240176.797   -18917696.77449 -14714107.34947  22240176.616    22240185.110
       231.000         188.000
  21001779.794   -21058888.11949 -15751763.89647  21001778.821    21001786.176
       241.000         206.000
  20583042.355   -26292894.77849 -20436145.39147  20583042.656    20583048.725
       244.000         212.000
  21298103.158   -22742092.47849 -17678207.56947  21298103.130    21298109.732
       241.000         206.000
  24559922.788    -2880835.36849  -2228425.53145  24559922.150    24559933.106
       207.000         139.000
  23813643.616    -7164187.32649  -5216840.38545  23813642.998    23813652.024
       215.000         158.000
  22010526.736   -16014559.65749 -11784656.18347  22010525.820    22010534.394
       232.000         191.000
 03  1 13  1 14 30.0000000  0  8G17G 5G10G30G 6G29G24G23
  23000965.316   -13015869.92749 -10115363.54846  23000964.823    23000972.925
       223.000         175.000
  22257904.923   -18824535.06349 -14641513.84747  22257904.693    22257912.948
       231.000         188.000
  21008578.087   -21023162.57249 -15723925.79147  21008577.424    21008584.344
       241.000         206.000
  20589467.774   -26259128.92949 -20409834.34847  20589468.318    20589474.350
       244.000         211.000
  21287588.890   -22797345.16249 -17721261.56447  21287588.839    21287595.457
       241.000         206.000
  24546092.475    -2953512.31949  -2285056.71145  24546090.055    24546101.167
       205.000         136.000
  23828755.934    -7084771.30649  -5154957.75645  23828755.626    23828764.804
       215.000         157.000
  21994670.867   -16097882.31549 -11849582.83147  21994670.307    21994678.832
       232.000         191.000
 03  1 13  1 15  0.0000000  0  8G17G 5G10G30G 6G29G24G23
  22988742.982   -13080098.36449 -10165411.60046  22988742.225    22988751.289
       223.000         175.000
  22275683.263   -18731109.32549 -14568714.61346  22275682.806    22275691.343
       229.000         187.000
  21015487.731   -20986852.11049 -15695631.90447  21015487.131    21015494.122
       240.000         206.000
  20596000.843   -26224797.37149 -20383082.49247  20596001.305    20596007.227
       243.000         211.000
  21277108.310   -22852420.90149 -17764177.67547  21277108.035    21277114.528
       240.000         207.000
  24532272.025    -3026139.23549  -2341648.95445  24532272.531    24532281.926
       205.000         138.000
  23843864.773    -7005373.89049  -5093089.61845  23843865.166    23843872.791
       216.000         157.000
  21978880.802   -16180859.24649 -11914240.08447  21978880.238    21978888.601
       231.000         191.000
 03  1 13  1 15 30.0000000  0  8G17G 5G10G30G 6G29G24G23
  22976558.108   -13144129.89649 -10215306.21046  22976557.190    22976565.806
       224.000         175.000
  22293511.250   -18637422.76349 -14495712.13446  22293510.864    22293519.302
       229.000         187.000
  21022508.258   -20949958.92649 -15666883.94447  21022507.611    21022514.656
       240.000         205.000
  20602641.205   -26189902.06449 -20355891.35047  20602641.588    20602647.775
       243.000         211.000
  21266661.578   -22907318.65049 -17806955.08747  21266661.287    21266668.082
       240.000         207.000
  24518461.329    -3098713.66349  -2398200.26945  24518460.253    24518471.182
       206.000         138.000
  23858969.802    -6925996.34949  -5031236.97945  23858969.129    23858977.807
       216.000         157.000
  21963156.890   -16263488.59749 -11978626.49247  21963155.944    21963164.461
       231.000         191.000
 03  1 13  1 16  0.0000000  0  8G17G 5G10G30G 6G29G24G23
  22964410.890   -13207963.80749 -10265046.84346  22964410.260    22964418.402
       223.000         176.000
  22311388.570   -18543477.15749 -14422507.80146  22311388.447    22311396.864
       229.000         186.000
  21029639.444   -20912484.11649 -15637682.77247  21029638.774    21029645.811
       240.000         205.000
  20609388.752   -26154443.50049 -20328261.30747  20609389.107    20609395.274
       243.000         211.000
  21256249.153   -22962036.13149 -17849592.04147  21256248.955    21256255.318
       241.000         207.000
  24504661.458    -3171231.88749  -2454707.76445  24504661.946    24504671.074
       207.000         139.000
  23874070.970    -6846639.09149  -4969400.13545  23874071.384    23874079.677
       214.000         156.000
  21947499.703   -16345767.36849 -12042739.72847  21947498.983    21947507.220
       232.000         192.000
 03  1 13  1 16 30.0000000  0  8G17G 5G10G30G 6G29G24G23
  22952301.106   -13271600.61149 -10314633.87846  22952301.073    22952308.893
       223.000         176.000
  22329314.475   -18449275.97849 -14349104.32746  22329314.357    22329322.624
       230.000         186.000
  21036880.847   -20874430.06549 -15608030.24347  21036880.141    21036887.346
       240.000         205.000
  20616243.131   -26118423.50649 -20300193.78247  20616243.532    20616249.675
       243.000         211.000
  21245871.152   -23016572.50249 -17892087.86347  21245870.770    21245877.698
       240.000         207.000
  24490872.822    -3243691.73849  -2511169.79545  24490872.452    24490882.477
       208.000         142.000
  23889168.051    -6767303.57749  -4907580.23845  23889168.363    23889175.645
       213.000         156.000
  21931909.492   -16427693.91449 -12106578.50147  21931909.055    21931917.134
       233.000         192.000
 03  1 13  1 17  0.0000000  0  8G17G 5G10G30G 6G29G24G23
  22940229.062   -13335039.17449 -10364066.43746  22940228.310    22940237.165
       224.000         176.000
  22347288.576   -18354821.38249 -14275503.38146  22347288.564    22347296.123
       228.000         186.000
  21044232.326   -20835797.59949 -15577927.00247  21044231.622    21044238.590
       240.000         205.000
  20623204.219   -26081842.92049 -20271689.43447  20623204.563    20623210.769
       243.000         211.000
  21235528.037   -23070925.81249 -17934441.04347  21235527.720    21235534.628
       241.000         207.000
  24477095.779    -3316089.71749  -2567583.69045  24477094.260    24477104.956
       203.000         138.000
  23904260.863    -6687990.00249  -4845777.43845  23904260.185    23904269.477
       213.000         155.000
  21916386.925   -16509265.27649 -12170140.50947  21916386.192    21916394.559
       232.000         193.000
 03  1 13  1 17 30.0000000  0  8G17G 5G10G30G 6G29G24G23
  22928194.542   -13398280.63249 -10413345.41246  22928194.281    22928201.854
       224.000         177.000
  22365310.381   -18260116.34349 -14201707.28346  22365309.988    22365318.267
       230.000         185.000
  21051693.430   -20796589.08149 -15547374.88847  21051692.736    21051699.700
       241.000         205.000
  20630271.627   -26044703.50949 -20242749.63747  20630272.020    20630278.055
       244.000         211.000
  21225219.985   -23125094.74249 -17976650.55447  21225219.866    21225226.500
       241.000         207.000
  24463330.999    -3388423.24749  -2623947.28245  24463330.848    24463340.635
       207.000         140.000
  23919349.344    -6608699.48749  -4783992.60045  23919349.189    23919357.225
       215.000         155.000
  21900932.192   -16590479.75649 -12233424.43447  21900931.680    21900939.793
       233.000         193.000
 03  1 13  1 18  0.0000000  0  8G17G 5G10G30G 6G29G24G23
  22916197.510   -13461325.03349 -10462470.83346  22916197.007    22916205.041
       224.000         177.000
  22383379.292   -18165163.73449 -14127718.27746  22383378.749    22383387.031
       228.000         185.000
  21059263.781   -20756806.68449 -15516375.59547  21059263.096    21059269.858
       240.000         205.000
  20637445.018   -26007006.94049 -20213375.69147  20637445.424    20637451.500
       243.000         211.000
  21214947.257   -23179077.99349 -18018715.38147  21214947.148    21214953.622
       240.000         207.000
  24449578.924    -3460689.83449  -2680258.75945  24449577.570    24449588.936
       204.000         141.000
  23934433.138    -6529433.32149  -4722226.73245  23934432.437    23934442.390
       214.000         155.000
  21885545.792   -16671335.45049 -12296428.78347  21885545.222    21885553.427
       234.000         193.000
 03  1 13  1 18 30.0000000  0  8G17G 5G10G30G 6G29G24G23
  22904237.982   -13524172.41749 -10511442.73246  22904237.716    22904245.245
       225.000         177.000
  22401494.931   -18069965.69849 -14053538.02646  22401494.848    22401503.022
       230.000         185.000
  21066943.111   -20716451.45649 -15484929.93447  21066942.249    21066949.331
       242.000         205.000
  20644724.235   -25968754.34649 -20183568.47347  20644724.714    20644730.446
       244.000         211.000
  21204710.238   -23232873.59749 -18060633.98347  21204710.135    21204716.878
       242.000         207.000
  24435840.226    -3532885.90749  -2736515.24845  24435839.820    24435848.874
       206.000         140.000
  23949512.347    -6450191.80949  -4660480.08645  23949511.848    23949521.262
       216.000         154.000
  21870228.237   -16751829.57649 -12359151.39047  21870227.776    21870235.644
       235.000         193.000
 03  1 13  1 19  0.0000000  0  8G17G 5G10G30G 6G29G24G23
  22892316.159   -13586821.69349 -10560260.26346  22892315.540    22892323.798
       225.000         178.000
  22419656.865   -17974524.27449 -13979168.12846  22419657.324    22419664.820
       229.000         184.000
  21074731.229   -20675524.56049 -15453038.82147  21074730.738    21074737.640
       241.000         205.000
  20652109.202   -25929946.09449 -20153328.28347  20652109.622    20652115.866
       243.000         211.000
  21194509.362   -23286479.28849 -18102404.61347  21194509.396    21194515.757
       241.000         208.000
  24422115.882    -3605007.93749  -2792714.14445  24422115.861    24422125.607
       201.000         141.000
  23964586.738    -6370974.81749  -4598752.54245  23964585.892    23964594.786
       214.000         154.000
  21854980.027   -16831959.04649 -12421589.86047  21854979.672    21854987.379
       235.000         194.000
 03  1 13  1 19 30.0000000  0  8G17G 5G10G30G 6G29G24G23
  22880431.795   -13649274.13149 -10608924.42346  22880431.287    22880439.316
       226.000         178.000
  22437864.381   -17878843.33149 -13904611.58046  22437864.290    22437871.992
       229.000         184.000
  21082627.548   -20634029.11849 -15420704.67947  21082627.001    21082633.755
       242.000         205.000
  20659599.335   -25890585.15649 -20122657.42347  20659599.637    20659606.006
       244.000         211.000
  21184344.700   -23339894.72949 -18144026.98947  21184344.603    21184351.064
       242.000         208.000
  24408405.709    -3677054.20449  -2848853.88245  24408405.423    24408415.018
       204.000         143.000
  23979656.135    -6291784.40049  -4537045.69845  23979656.549    23979664.337
       217.000         154.000
  21839801.399   -16911722.95649 -12483743.47247  21839800.641    21839808.794
       235.000         194.000
 03  1 13  1 20  0.0000000  0  8G17G 5G10G30G 6G29G24G23
  22868585.097   -13711528.84949 -10657434.50746  22868584.718    22868592.687
       227.000         179.000
  22456117.131   -17782924.56549 -13829869.71946  22456116.164    22456124.935
       227.000         183.000
  21090631.889   -20591965.92549 -15387928.13747  21090630.920    21090638.287
       242.000         205.000
  20667194.624   -25850671.63849 -20091555.98147  20667194.969    20667201.031
       244.000         211.000
  21174216.785   -23393117.16549 -18185498.97547  21174216.685    21174223.114
       242.000         208.000
  24394710.795    -3749020.65849  -2904931.47645  24394709.614    24394720.809
       203.000         142.000
  23994720.487    -6212620.50449  -4475359.51845  23994720.071    23994728.506
       215.000         153.000
  21824692.957   -16991118.08449 -12545609.72447  21824692.300    21824700.217
       236.000         194.000
 03  1 13  1 20 30.0000000  0  8G17G 5G10G30G 6G29G24G23
  22856775.851   -13773586.61249 -10705791.12346  22856775.474    22856783.412
       226.000         179.000
  22474414.467   -17686771.49149 -13754945.29446  22474414.656    22474422.136
       226.000         183.000
  21098743.788   -20549337.46749 -15354711.12547  21098743.184    21098750.084
       240.000         205.000
  20674894.585   -25810208.12749 -20060025.97947  20674895.048    20674901.024
       243.000         211.000
  21164125.720   -23446145.87049 -18226820.00347  21164125.761    21164132.111
       241.000         208.000
  24381031.574    -3820904.98649  -2960945.09045  24381030.864    24381040.613
       203.000         142.000
  24009779.525    -6133484.68149  -4413695.21145  24009779.486    24009788.164
       215.000         153.000
  21809654.945   -17070143.03849 -12607187.53247  21809654.410    21809662.329
       234.000         195.000
 03  1 13  1 21  0.0000000  0  8G17G 5G10G30G 6G29G24G23
  22845004.101   -13835447.17749 -10753994.09346  22845003.193    22845011.818
       226.000         179.000
  22492755.949   -17590386.45849 -13679840.11946  22492755.659    22492763.242
       227.000         182.000
  21106963.006   -20506145.22549 -15321054.80147  21106962.474    21106969.171
       240.000         205.000
  20682698.972   -25769195.71849 -20028068.26447  20682699.395    20682705.455
       242.000         210.000
  21154071.853   -23498979.10249 -18267988.71447  21154071.831    21154078.277
       241.000         208.000
  24367368.509    -3892704.15849  -3016892.34845  24367367.253    24367378.694
       199.000         141.000
  24024833.181    -6054377.04949  -4352052.86745  24024833.834    24024841.773
       215.000         153.000
  21794687.872   -17148795.25649 -12668474.89647  21794687.182    21794695.310
       234.000         195.000
 03  1 13  1 21 30.0000000  0  8G17G 5G10G30G 6G29G24G23
  22833269.870   -13897110.69149 -10802043.49646  22833269.047    22833277.378
       226.000         179.000
  22511141.080   -17493772.29149 -13604556.39846  22511141.061    22511148.741
       227.000         182.000
  21115289.073   -20462391.30149 -15286960.80347  21115288.310    21115295.330
       240.000         205.000
  20690607.518   -25727636.07049 -19995684.12347  20690607.830    20690614.188
       243.000         210.000
  21144055.520   -23551615.32749 -18309003.90847  21144055.435    21144061.976
       241.000         208.000
  24353721.954    -3964415.26449  -3072770.89445  24353721.749    24353732.422
       204.000         141.000
  24039881.300    -5975298.86749  -4290433.45845  24039881.406    24039889.406
       214.000         153.000
  21779792.095   -17227072.76649 -12729470.27347  21779791.574    21779799.936
       235.000         195.000
 03  1 13  1 22  0.0000000  0  8G17G 5G10G30G 6G29G24G23
  22821573.081   -13958577.62549 -10849939.72746  22821572.434    22821580.905
       228.000         180.000
  22529569.259   -17396931.69249 -13529096.21846  22529568.584    22529577.323
       228.000         181.000
  21123721.676   -20418077.53949 -15252430.56147  21123720.722    21123727.563
       242.000         204.000
  20698619.894   -25685530.61849 -19962874.68247  20698620.113    20698626.273
       244.000         210.000
  21134076.911   -23604052.92449 -18349864.32647  21134076.543    21134083.130
       243.000         208.000
  24340093.026    -4036035.38749  -3128578.64245  24340092.585    24340101.520
       207.000         141.000
  24054923.753    -5896250.53349  -4228837.31445  24054923.493    24054931.592
       215.000         154.000
  21764968.024   -17304973.40749 -12790171.98547  21764967.317    21764975.450
       236.000         195.000
 03  1 13  1 22 30.0000000  0  8G17G 5G10G30G 6G29G24G23
  22809913.796   -14019847.47349 -10897682.40046  22809913.296    22809920.941
       226.000         180.000
  22548040.156   -17299866.64949 -13453461.16246  22548039.667    22548048.287
       226.000         181.000
  21132260.493   -20373205.53149 -15217465.33247  21132259.651    21132266.628
       240.000         204.000
  20706735.923   -25642880.56149 -19929640.87847  20706736.215    20706742.614
       243.000         210.000
  21124136.544   -23656289.75149 -18390568.31047  21124136.505    21124142.833
       241.000         208.000
  24326482.211    -4107560.95549  -3184312.70145  24326482.157    24326491.385
       200.000         142.000
  24069960.393    -5817232.26149  -4167264.59745  24069960.273    24069968.782
       214.000         153.000
  21750216.234   -17382494.43649 -12850577.89447  21750215.729    21750223.569
       235.000         196.000
 03  1 13  1 23  0.0000000  0  8G17G 5G10G30G 6G29G24G23
  22798291.905   -14080920.44649 -10945271.65346  22798290.972    22798299.235
       227.000         180.000
  22566553.093   -17202580.63949 -13377653.93146  22566552.211    22566561.457
       226.000         180.000
  21140905.052   -20327777.92249 -15182067.16347  21140904.406    21140910.921
       240.000         204.000
  20714955.169   -25599688.25649 -19895984.54247  20714955.715    20714961.665
       243.000         210.000
  21114234.546   -23708324.84949 -18431115.09647  21114234.450    21114240.923
       241.000         208.000
  24312889.531    -4178989.73049  -3239971.27945  24312890.316    24312899.520
       207.000         145.000
  24084991.072    -5738245.52649  -4105716.45345  24084990.998    24084998.489
       214.000         153.000
  21735536.939   -17459634.33749 -12910686.82347  21735536.571    21735544.120
       236.000         196.000
 03  1 13  1 23 30.0000000  0  8G17G 5G10G30G 6G29G24G23
  22786707.490   -14141796.73549 -10992707.64746  22786706.661    22786715.580
       227.000         180.000
  22585107.650   -17105075.83449 -13301676.20446  22585107.685    22585115.674
       226.000         180.000
  21149655.071   -20281796.16249 -15146237.18947  21149654.239    21149661.207
       240.000         204.000
  20723277.370   -25555954.65849 -19861906.41947  20723277.713    20723283.877
       242.000         210.000
  21104371.371   -23760156.16249 -18471503.09247  21104371.398    21104377.842
       241.000         208.000
  24299316.184    -4250318.28649  -3295551.82145  24299315.774    24299325.686
       202.000         144.000
  24100015.656    -5659290.72649  -4044193.18345  24100015.966    24100023.208
       215.000         153.000
  21720930.616   -17536390.58849 -12970496.79647  21720930.053    21720937.778
       236.000         196.000
 03  1 13  1 24  0.0000000  0  8G17G 5G10G30G 6G29G24G23
  22775160.410   -14202476.70149 -11039990.66946  22775159.585    22775168.266
       227.000         180.000
  22603703.255   -17007355.48349 -13225530.51946  22603702.792    22603711.092
       225.000         180.000
  21158510.084   -20235262.61949 -15109977.25647  21158509.419    21158516.010
       240.000         204.000
  20731702.170   -25511682.13349 -19827408.35147  20731702.691    20731708.637
       243.000         209.000
  21094547.108   -23811782.77049 -18511731.57047  21094546.989    21094553.314
       241.000         208.000
  24285762.028    -4321544.40349  -3351052.53645  24285761.497    24285772.114
       203.000         143.000
  24115033.962    -5580368.86049  -3982695.57745  24115034.039    24115040.957
       216.000         153.000
  21706397.607   -17612761.76349 -13030006.71647  21706397.194    21706404.768
       236.000         197.000
 03  1 13  1 24 30.0000000  0  8G17G 5G10G30G 6G29G24G23
  22763649.993   -14262964.10249 -11087123.64246  22763649.413    22763657.668
       227.000         180.000
  22622338.757   -16909425.60849 -13149221.56446  22622338.011    22622346.795
       227.000         179.000
  21167469.067   -20188182.77449 -15073291.63047  21167468.357    21167475.042
       241.000         204.000
  20740228.561   -25466875.62049 -19792494.18847  20740228.848    20740234.982
       244.000         209.000
  21084761.504   -23863206.18749 -18551801.72147  21084761.343    21084767.749
       243.000         209.000
  24272227.651    -4392668.22349  -3406473.55945  24272227.577    24272237.029
       207.000         144.000
  24130045.216    -5501483.77749  -3921226.66345  24130045.307    24130053.150
       215.000         153.000
  21691937.643   -17688748.98749 -13089217.45047  21691937.154    21691944.698
       237.000         197.000
 03  1 13  1 25  0.0000000  0  8G17G 5G10G30G 6G29G24G23
  22752176.767   -14323256.21749 -11134104.44446  22752176.386    22752184.977
       227.000         180.000
  22641014.089   -16811286.26649 -13072749.40346  22641014.212    22641022.293
       226.000         179.000
  21176532.064   -20140556.16049 -15036179.96247  21176531.532    21176538.139
       240.000         204.000
  20748856.740   -25421534.13049 -19757163.16547  20748857.265    20748863.391
       243.000         209.000
  21075015.405   -23914422.22949 -18591710.28547  21075015.390    21075021.647
       242.000         209.000
  24258713.597    -4463684.29149  -3461810.58945  24258713.202    24258723.714
       204.000         145.000
  24145049.871    -5422633.76549  -3859785.06845  24145050.130    24145058.600
       214.000         153.000
  21677551.658   -17764347.54349 -13148125.32947  21677551.613    21677558.877
       235.000         198.000
 03  1 13  1 25 30.0000000  0  8G17G 5G10G30G 6G29G24G23
  22740740.869   -14383351.96549 -11180932.23346  22740740.593    22740747.804
       227.000         180.000
  22659728.961   -16712939.15849 -12996115.34146  22659728.456    22659737.060
       226.000         179.000
  21185699.001   -20092383.47149 -14998642.77747  21185698.346    21185705.228
       239.000         203.000
  20757586.637   -25375658.20849 -19721415.69547  20757587.161    20757593.061
       242.000         209.000
  21065309.308   -23965427.96849 -18631454.97047  21065309.280    21065315.609
       242.000         209.000
  24245220.885    -4534588.36449  -3517060.36945  24245219.424    24245229.596
       206.000         143.000
  24160047.917    -5343818.41049  -3798370.45845  24160047.787    24160056.312
       215.000         153.000
  21663240.263   -17839554.03249 -13206727.69447  21663240.091    21663247.711
       235.000         198.000
 03  1 13  1 26  0.0000000  0  8G17G 5G10G30G 6G29G24G23
  22729342.426   -14443250.74749 -11227606.54246  22729342.454    22729349.477
       226.000         180.000
  22678482.995   -16614386.18049 -12919320.84546  22678483.113    22678491.118
       226.000         179.000
  21194969.644   -20043665.80449 -14960680.93847  21194969.188    21194975.796
       239.000         203.000
  20766418.065   -25329248.67649 -19685252.42547  20766418.658    20766424.626
       242.000         209.000
  21055643.661   -24016221.09249 -18671033.98547  21055643.581    21055649.755
       241.000         209.000
  24231750.375    -4605376.59549  -3572219.90645  24231749.809    24231758.537
       201.000         144.000
  24175039.358    -5265037.54449  -3736982.73845  24175039.089    24175046.325
       215.000         153.000
  21649003.977   -17914365.82549 -13265022.50547  21649003.307    21649011.161
       235.000         198.000
 03  1 13  1 26 30.0000000  0  8G17G 5G10G30G 6G29G24G23
  22717981.890   -14502950.34049 -11274125.63746  22717981.788    22717989.035
       226.000         180.000
  22697276.096   -16515628.14449 -12842366.59146  22697275.423    22697283.577
       226.000         178.000
  21204343.927   -19994403.40349 -14922294.63147  21204343.339    21204350.064
       239.000         203.000
  20775351.072   -25282305.47849 -19648673.31447  20775351.513    20775357.505
       242.000         209.000
  21046019.113   -24066798.04149 -18710444.55547  21046019.134    21046025.454
       241.000         209.000
  24218302.577    -4676044.17949  -3627285.36245  24218302.288    24218311.983
       207.000         146.000
  24190024.542    -5186289.77149  -3675620.80145  24190023.945    24190032.363
       212.000         153.000
  21634843.572   -17988778.80849 -13323006.55347  21634843.000    21634850.537
       236.000         198.000
 03  1 13  1 27  0.0000000  0  8G17G 5G10G30G 6G29G24G23
  22706658.894   -14562452.69949 -11320491.04546  22706658.627    22706666.119
       227.000         180.000
  22716107.342   -16416669.36149 -12765255.89146  22716106.856    22716115.350
       225.000         178.000
  21213821.114   -19944600.32849 -14883487.02447  21213820.468    21213827.282
       238.000         203.000
  20784384.958   -25234832.09449 -19611681.06947  20784385.459    20784391.511
       242.000         209.000
  21036435.734   -24117158.98049 -18749686.79947  21036435.489    21036442.059
       242.000         209.000
  24204878.123    -4746589.92049  -3682255.93945  24204877.612    24204886.640
       208.000         145.000
  24205002.957    -5107577.45549  -3614286.50645  24205002.805    24205011.747
       213.000         153.000
  21620759.088   -18062792.81749 -13380679.71247  21620758.540    21620766.182
       236.000         199.000
 03  1 13  1 27 30.0000000  0  8G17G 5G10G30G 6G29G24G23
  22695373.242   -14621758.80349 -11366703.53446  22695372.311    22695380.160
       228.000         180.000
  22734976.243   -16317512.73449 -12687991.02646  22734976.423    22734984.094
       227.000         177.000
  21223400.795   -19894258.73849 -14844259.78847  21223399.946    21223407.247
       241.000         202.000
  20793519.369   -25186830.53749 -19574277.25947  20793519.806    20793525.924
       244.000         209.000
  21026893.733   -24167302.47749 -18788759.60647  21026893.395    21026899.738
       243.000         210.000
  24191477.226    -4817011.09749  -3737129.42745  24191476.769    24191486.476
       207.000         146.000
  24219974.524    -5028901.45749  -3552980.48945  24219973.931    24219983.586
       216.000         153.000
  21606750.877   -18136406.06349 -13438040.58647  21606750.018    21606757.789
       238.000         199.000
 03  1 13  1 28  0.0000000  0  8G17G 5G10G30G 6G29G24G23
  22684124.781   -14680869.52249 -11412763.76646  22684124.667    22684131.848
       228.000         180.000
  22753882.152   -16218161.91949 -12610574.85046  22753881.845    22753889.704
       226.000         177.000
  21233082.344   -19843381.62949 -14804615.27547  21233081.593    21233088.708
       239.000         202.000
  20802753.748   -25138303.49949 -19536463.99147  20802754.253    20802760.237
       243.000         209.000
  21017393.236   -24217227.65049 -18827662.29747  21017392.972    21017399.522
       242.000         210.000
  24178100.641    -4887305.39649  -3791904.06945  24178100.569    24178110.042
       207.000         148.000
  24234938.887    -4950263.41149  -3491704.05745  24234938.821    24234946.424
       214.000         153.000
  21592819.168   -18209617.41749 -13495088.30647  21592818.333    21592826.235
       238.000         199.000
 03  1 13  1 28 30.0000000  0  8G17G 5G10G30G 6G29G24G23
  22672913.619   -14739784.24349 -11458671.27546  22672912.879    22672921.318
       228.000         181.000
  22772824.611   -16118618.79649 -12533008.82846  22772824.442    22772833.091
       227.000         176.000
  21242865.503   -19791970.57549 -14764554.69447  21242864.631    21242871.757
       240.000         202.000
  20812087.903   -25089252.11949 -19498242.13847  20812088.231    20812094.512
       244.000         209.000
  21007934.782   -24266931.98449 -18866392.89547  21007934.669    21007940.995
       244.000         210.000
  24164748.845    -4957469.47949  -3846577.21845  24164748.803    24164757.453
       208.000         148.000
  24249896.026    -4871662.77049  -3430456.76545  24249895.737    24249903.684
       215.000         153.000
  21578964.432   -18282424.06849 -13551820.67147  21578963.874    21578971.503
       238.000         200.000
 03  1 13  1 29  0.0000000  0  8G17G 5G10G30G 6G29G24G23
  22661739.709   -14798503.12349 -11504426.18246  22661739.374    22661747.145
       227.000         181.000
  22791802.981   -16018886.73849 -12455295.58146  22791803.403    22791811.279
       224.000         175.000
  21252749.797   -19740028.19449 -14724080.10247  21252749.298    21252756.130
       238.000         202.000
  20821521.396   -25039678.88849 -19459613.65647  20821521.710    20821527.960
       242.000         208.000
  20998518.533   -24316414.48949 -18904950.65547  20998518.488    20998524.772
       242.000         210.000
  24151422.246    -5027500.70049  -3901146.87545  24151422.038    24151431.161
       209.000         147.000
  24264845.848    -4793101.06649  -3369239.83945  24264845.787    24264853.262
       213.000         152.000
  21565187.010   -18354824.56549 -13608236.55647  21565186.612    21565194.025
       237.000         200.000
 03  1 13  1 29 30.0000000  0  8G17G 5G10G30G 6G29G24G23
  22650602.942   -14857026.88549 -11550029.04646  22650602.324    22650610.280
       229.000         181.000
  22810816.792   -15918968.61249 -12377437.34946  22810816.600    22810825.182
       226.000         175.000
  21262734.783   -19687556.79549 -14683193.27947  21262734.155    21262740.876
       240.000         202.000
  20831053.809   -24989585.60549 -19420579.93247  20831054.181    20831060.421
       243.000         208.000
  20989144.789   -24365673.55249 -18943334.29447  20989144.608    20989151.067
       243.000         210.000
  24138121.423    -5097396.31349  -3955610.80245  24138121.206    24138129.720
       208.000         147.000
  24279788.068    -4714579.09049  -3308053.85745  24279787.473    24279795.858
       212.000         151.000
  21551487.227   -18426817.03149 -13664334.49547  21551486.666    21551494.209
       238.000         200.000
 03  1 13  1 30  0.0000000  0  8G17G 5G10G30G 6G29G24G23
  22639503.461   -14915354.80249 -11595479.30546  22639503.198    22639510.714
       228.000         182.000
  22829865.647   -15818866.19449 -12299435.52346  22829865.533    22829873.990
       225.000         175.000
  21272820.138   -19634557.76849 -14641895.32247  21272819.623    21272826.259
       237.000         201.000
  20840684.992   -24938973.36649 -19381141.83047  20840685.434    20840691.317
       242.000         208.000
  20979814.000   -24414706.79349 -18981541.97547  20979813.867    20979820.159
       241.000         210.000
  24124847.154    -5167152.37649  -4009966.03645  24124846.966    24124855.727
       210.000         147.000
  24294722.797    -4636096.43449  -3246898.53045  24294723.823    24294730.376
       211.000         150.000
  21537865.609   -18498398.79849 -13720112.40747  21537865.266    21537872.854
       237.000         201.000
 03  1 13  1 30 30.0000000  0  9G17G26G 5G10G30G 6G29G24G23
  22628440.997   -14973488.08149 -11640777.90346  22628440.197    22628448.283
       229.000         182.000
  24318389.129    -2625258.05549  -1731966.58645  24318389.289    24318399.919
       210.000         141.000
  22848948.816   -15718583.50349 -12221293.20046  22848948.042    22848957.185
       225.000         174.000
  21283005.260   -19581034.42349 -14600188.80047  21283004.593    21283011.376
       240.000         201.000
  20850414.364   -24887845.24649 -19341301.74047  20850414.718    20850420.842
       243.000         208.000
  20970526.353   -24463513.54849 -19019573.16447  20970526.087    20970532.474
       244.000         210.000
  24111599.707    -5236767.21449  -4064211.22045  24111598.987    24111608.513
       208.000         147.000
  24309649.651    -4557654.87949  -3185775.21745  24309649.710    24309656.995
       213.000         150.000
  21524322.266   -18569569.17549 -13775569.75447  21524321.662    21524328.962
       239.000         201.000
 03  1 13  1 31  0.0000000  0  9G17G26G 5G10G30G 6G29G24G23
  22617415.724   -15031426.23149 -11685924.45546  22617415.389    22617423.323
       228.000         183.000
  24301227.407    -2715442.33149  -1802239.84645  24301226.501    24301236.634
       206.000         143.000
  22868065.951   -15618122.32949 -12143011.82446  22868066.047    22868074.478
       224.000         174.000
  21293289.900   -19526988.16949 -14558074.82247  21293289.213    21293296.148
       238.000         201.000
  20860241.666   -24836202.35149 -19301060.52947  20860242.095    20860248.141
       241.000         208.000
  20961282.277   -24512091.28349 -19057425.90047  20961282.166    20961288.464
       242.000         210.000
  24098379.869    -5306236.87949  -4118343.25045  24098379.519    24098388.997
       209.000         148.000
  24324568.851    -4479253.76749  -3124683.41345  24324569.301    24324576.362
       210.000         150.000
  21510857.743   -18640325.39649 -13830704.38947  21510857.233    21510864.559
       238.000         202.000
 03  1 13  1 31 30.0000000  0  9G17G26G 5G10G30G 6G29G24G23
  22606427.332   -15089170.23849 -11730919.72246  22606426.976    22606435.095
       228.000         183.000
  24284065.151    -2805630.15149  -1872515.87145  24284065.961    24284075.185
       209.000         144.000
  22887216.320   -15517486.63749 -12064594.44646  22887215.980    22887223.922
       222.000         174.000
  21303673.394   -19472422.40449 -14515556.02147  21303672.524    21303679.825
       239.000         201.000
  20870166.307   -24784047.90749 -19260420.70847  20870166.604    20870172.779
       242.000         208.000
  20952081.867   -24560439.53549 -19095099.81647  20952081.656    20952087.945
       242.000         210.000
  24085188.095    -5375559.72749  -4172360.91145  24085186.852    24085196.007
       208.000         148.000
  24339479.836    -4400895.44049  -3063624.94845  24339479.629    24339488.118
       210.000         150.000
  21497472.173   -18710666.74949 -13885515.74947  21497471.500    21497478.960
       238.000         202.000
 03  1 13  1 32  0.0000000  0  9G17G26G 5G10G30G 6G29G24G23
  22595476.216   -15146718.59049 -11775762.53146  22595476.007    22595483.802
       228.000         183.000
  24266903.215    -2895816.22849  -1942790.54045  24266903.292    24266911.548
       208.000         142.000
  22906399.768   -15416677.10149 -11986041.61346  22906399.550    22906407.671
       223.000         173.000
  21314155.677   -19417337.61849 -14472632.79547  21314154.948    21314161.774
       238.000         201.000
  20880188.374   -24731381.68849 -19219382.10847  20880188.816    20880194.844
       241.000         207.000
  20942925.879   -24608554.62949 -19132592.05747  20942925.904    20942931.870
       242.000         211.000
  24072025.182    -5444730.51849  -4226260.07745  24072025.514    24072033.921
       211.000         149.000
  24354383.108    -4322577.82549  -3002598.20345  24354382.912    24354391.511
       212.000         150.000
  21484166.304   -18780589.14049 -13940000.64947  21484165.752    21484173.096
       238.000         202.000
 03  1 13  1 32 30.0000000  0  9G17G26G 5G10G30G 6G29G24G23
  22584561.885   -15204073.59449 -11820454.68346  22584561.164    22584569.330
       229.000         184.000
  24249741.842    -2985999.56049  -2013063.13345  24249741.164    24249750.829
       203.000         144.000
  22925615.387   -15315698.54649 -11907357.07746  22925614.927    22925623.416
       222.000         173.000
  21324735.928   -19361738.04349 -14429308.42947  21324735.223    21324742.095
       239.000         200.000
  20890307.016   -24678207.86449 -19177947.96947  20890307.381    20890313.375
       242.000         207.000
  20933814.128   -24656436.96249 -19169902.92247  20933813.952    20933820.312
       243.000         211.000
  24058891.310    -5513748.64549  -4280040.27445  24058890.497    24058899.758
       210.000         149.000
  24369278.097    -4244303.91249  -2941605.50645  24369278.250    24369285.976
       213.000         151.000
  21470940.116   -18850092.91849 -13994159.35647  21470939.598    21470947.130
       239.000         202.000
 03  1 13  1 33  0.0000000  0  9G17G26G 5G10G30G 6G29G24G23
  22573684.523   -15261234.29349 -11864995.42546  22573684.483    22573691.738
       227.000         184.000
  24232581.559    -3076175.68949  -2083330.01945  24232580.773    24232591.620
       206.000         144.000
  22944862.908   -15214552.39749 -11828541.94546  22944862.382    22944870.970
       221.000         173.000
  21335413.892   -19305624.80149 -14385583.79947  21335413.291    21335420.029
       238.000         200.000
  20900522.123   -24624527.23049 -19136118.91247  20900522.569    20900528.430
       241.000         207.000
  20924747.249   -24704083.60049 -19207030.12547  20924747.269    20924753.292
       242.000         211.000
  24045787.458    -5582609.72349  -4333698.13245  24045786.928    24045796.062
       211.000         150.000
  24384164.922    -4166073.05649  -2880646.37045  24384164.204    24384173.001
       210.000         151.000
  21457794.151   -18919175.09549 -14047989.54347  21457793.459    21457801.378
       238.000         203.000
 03  1 13  1 33 30.0000000  0 10G17G26G 5G15G10G30G 6G29G24G23
  22562844.036   -15318201.19749 -11909385.16046  22562843.389    22562851.045
       229.000         184.000
  24215423.519    -3166341.55149  -2153589.01045  24215423.861    24215432.673
       208.000         145.000
  22964141.756   -15113241.72249 -11749598.60846  22964141.226    22964150.281
       222.000         172.000
  24763078.229    -3163224.32849  -2441482.18845  24763077.078    24763087.887
       210.000         144.000
  21346189.125   -19249000.47249 -14341460.92347  21346188.551    21346195.170
       239.000         200.000
  20910833.202   -24570342.15649 -19093896.78547  20910833.571    20910839.636
       242.000         207.000
  20915725.480   -24751493.18349 -19243972.61047  20915725.345    20915731.397
       243.000         211.000
  24032713.880    -5651311.47049  -4387231.83245  24032713.609    24032722.694
       207.000         151.000
  24399043.350    -4087885.97449  -2819721.34945  24399043.174    24399051.894
       212.000         150.000
  21444728.716   -18987834.18749 -14101490.05647  21444727.904    21444735.525
       239.000         203.000
 03  1 13  1 34  0.0000000  0 10G17G26G 5G15G10G30G 6G29G24G23
  22552040.334   -15374974.61449 -11953624.11546  22552039.138    22552047.692
       228.000         184.000
  24198267.695    -3256494.69949  -2223838.00945  24198266.828    24198277.203
       202.000         142.000
  22983451.210   -15011769.78149 -11670529.60446  22983450.228    22983459.148
       221.000         172.000
  24747282.749    -3246229.31449  -2506161.23745  24747281.434    24747293.346
       210.000         145.000
  21357061.155   -19191867.58149 -14296941.75647  21357060.285    21357067.385
       238.000         200.000
  20921239.791   -24515655.18349 -19051283.56447  20921239.967    20921246.386
       241.000         207.000
  20906749.047   -24798664.55949 -19280729.47347  20906748.929    20906754.928
       242.000         211.000
  24019671.138    -5719851.02949  -4440639.12745  24019671.557    24019679.707
       211.000         150.000
  24413913.300    -4009743.96049  -2758831.43645  24413913.539    24413922.335
       210.000         149.000
  21431744.044   -19056068.80449 -14154659.80047  21431743.503    21431750.882
       238.000         203.000
 03  1 13  1 34 30.0000000  0 10G17G26G 5G15G10G30G 6G29G24G23
  22541273.649   -15431553.68749 -11997711.65146  22541272.782    22541280.888
       227.000         184.000
  24181115.365    -3346630.32949  -2294073.44245  24181116.152    24181123.604
       212.000         142.000
  23002791.163   -14910137.77549 -11591335.89446  23002790.769    23002799.039
       221.000         171.000
  24731509.986    -3329115.18249  -2570747.47745  24731508.843    24731519.597
       209.000         147.000
  21368029.717   -19134227.30549 -14252027.23147  21368028.941    21368035.583
       237.000         199.000
  20931741.768   -24460466.98749 -19008279.79047  20931742.176    20931748.458
       241.000         207.000
  20897818.529   -24845594.64449 -19317298.33247  20897818.381    20897824.670
       242.000         211.000
  24006660.011    -5788224.30749  -4493916.89145  24006659.246    24006667.864
       209.000         149.000
  24428774.886    -3931645.84849  -2697975.74245  24428774.641    24428783.413
       210.000         148.000
  21418840.748   -19123875.67249 -14207496.24447  21418840.285    21418847.449
       238.000         204.000
 03  1 13  1 35  0.0000000  0 10G17G26G 5G15G10G30G 6G29G24G23
  22530543.677   -15487939.61549 -12041648.67546  22530543.210    22530550.951
       228.000         184.000
  24163966.869    -3436746.10849  -2364293.38545  24163965.565    24163976.707
       200.000         143.000
  23022160.855   -14808349.40949 -11512020.33246  23022160.420    23022168.862
       221.000         171.000
  24715759.770    -3411882.72549  -2635241.49345  24715758.856    24715770.516
       211.000         148.000
  21379094.194   -19076082.91749 -14206719.88947  21379093.591    21379100.408
       237.000         199.000
  20942338.553   -24404780.51149 -18964887.73647  20942338.970    20942345.264
       241.000         207.000
  20888934.079   -24892282.48149 -19353678.41747  20888933.942    20888939.951
       242.000         211.000
  23993680.968    -5856429.02449  -4547063.29445  23993681.020    23993689.523
       210.000         149.000
  24443627.690    -3853593.46949  -2637155.67945  24443627.229    24443635.947
       208.000         148.000
  21406019.064   -19191253.89649 -14259998.67447  21406018.492    21406025.878
       239.000         204.000
 03  1 13  1 35 30.0000000  0 10G17G26G 5G15G10G30G 6G29G24G23
  22519850.488   -15544132.32949 -12085435.14146  22519850.002    22519857.939
       227.000         184.000
  24146822.578    -3526838.78349  -2434495.27945  24146821.753    24146831.561
       204.000         142.000
  23041559.779   -14706407.31049 -11432584.97946  23041559.240    23041567.787
       220.000         171.000
  24700032.108    -3494531.70849  -2699643.15645  24700030.725    24700042.127
       208.000         146.000
  21390254.086   -19017437.00149 -14161021.74247  21390253.366    21390260.011
       237.000         199.000
  20953029.736   -24348597.94249 -18921109.12447  20953030.319    20953036.264
       241.000         206.000
  20880096.071   -24938726.53349 -19389868.54147  20880095.820    20880102.149
       242.000         211.000
  23980734.555    -5924462.44449  -4600076.19745  23980734.543    23980742.526
       210.000         149.000
  24458471.823    -3775586.91349  -2576371.32345  24458471.123    24458479.538
       212.000         147.000
  21393279.199   -19258201.88049 -14312165.85747  21393278.931    21393285.883
       238.000         204.000
 03  1 13  1 36  0.0000000  0 10G17G26G 5G15G10G30G 6G29G24G23
  22509193.926   -15600132.50349 -12129071.57146  22509193.340    22509201.207
       229.000         184.000
  24129683.314    -3616905.19449  -2504676.72845  24129683.728    24129693.875
       207.000         146.000
  23060987.473   -14604314.36049 -11353032.08246  23060986.721    23060995.567
       221.000         171.000
  24684326.980    -3577062.07449  -2763952.34145  24684326.217    24684336.581
       210.000         146.000
  21401508.970   -18958291.95449 -14114934.65947  21401507.934    21401515.136
       238.000         199.000
  20963814.924   -24291921.46549 -18876945.63647  20963815.173    20963821.688
       242.000         206.000
  20871304.715   -24984925.14449 -19425867.40947  20871304.377    20871310.741
       243.000         212.000
  23967821.259    -5992321.50349  -4652953.26345  23967820.923    23967829.855
       212.000         149.000
  24473307.085    -3697626.64249  -2515623.00845  24473307.282    24473314.691
       212.000         147.000
  21380621.582   -19324717.82049 -14363996.37347  21380620.914    21380628.280
       240.000         204.000
 03  1 13  1 36 30.0000000  0 10G17G26G 5G15G10G30G 6G29G24G23
  22498574.171   -15655939.47649 -12172557.46146  22498573.881    22498581.311
       228.000         184.000
  24112549.859    -3706941.35949  -2574834.68045  24112549.269    24112559.867
       200.000         144.000
  23080443.431   -14502072.79749 -11273363.37746  23080442.952    23080451.526
       222.000         171.000
  24668644.605    -3659472.77949  -2828168.31245  24668643.204    24668654.959
       206.000         145.000
  21412858.564   -18898649.42149 -14068459.93447  21412857.717    21412864.682
       237.000         198.000
  20974693.831   -24234752.49549 -18832398.40247  20974694.341    20974700.179
       241.000         206.000
  20862560.492   -25030876.03749 -19461673.26047  20862560.510    20862566.541
       242.000         212.000
  23954941.853    -6060002.74249  -4705691.76145  23954942.408    23954950.044
       210.000         150.000
  24488133.571    -3619712.83549  -2454910.91845  24488132.888    24488142.065
       211.000         145.000
  21368046.573   -19390799.47249 -14415488.50247  21368046.209    21368053.416
       239.000         205.000
 03  1 13  1 37  0.0000000  0 10G17G26G 5G15G10G30G 6G29G24G23
  22487991.021   -15711554.08549 -12215893.45946  22487990.518    22487998.365
       228.000         185.000
  24095422.664    -3796944.93949  -2644967.15545  24095422.876    24095432.950
       206.000         146.000
  23099927.049   -14399686.11149 -11193581.58746  23099926.314    23099935.630
       219.000         171.000
  24652984.839    -3741764.53749  -2892291.59245  24652983.515    24652994.791
       209.000         146.000
  21424302.138   -18838512.78749 -14021600.18747  21424301.275    21424308.351
       237.000         198.000
  20985665.857   -24177094.16649 -18787469.84047  20985666.236    20985672.273
       241.000         206.000
  20853863.620   -25076578.28649 -19497285.35547  20853863.471    20853869.604
       242.000         211.000
  23942096.630    -6127503.96849  -4758289.97445  23942096.242    23942104.264
       210.000         149.000
  24502950.994    -3541846.92649  -2394236.14545  24502950.011    24502960.184
       210.000         146.000
  21355554.446   -19456445.80449 -14466641.40347  21355553.918    21355561.203
       239.000         205.000
 03  1 13  1 37 30.0000000  0 10G17G26G 5G15G10G30G 6G29G24G23
  22477444.406   -15766976.63249 -12259079.79646  22477443.759    22477451.793
       229.000         185.000
  24078302.202    -3886912.38249  -2715071.48445  24078301.729    24078311.657
       207.000         144.000
  23119437.739   -14297156.81049 -11113688.66946  23119437.047    23119445.841
       219.000         171.000
  24637347.843    -3823936.92049  -2956321.85245  24637347.060    24637357.757
       207.000         146.000
  21435839.374   -18777884.13149 -13974357.05747  21435838.788    21435845.522
       237.000         198.000
  20996730.631   -24118948.43549 -18742161.48647  20996731.096    20996737.314
       241.000         206.000
  20845214.391   -25122030.08849 -19532702.30347  20845214.129    20845220.429
       243.000         211.000
  23929286.243    -6194822.25549  -4810745.64345  23929285.990    23929295.328
       211.000         150.000
  24517759.248    -3464028.81349  -2333598.63245  24517759.159    24517767.875
       209.000         145.000
  21343145.499   -19521654.92149 -14517453.62647  21343144.968    21343152.355
       240.000         205.000
 03  1 13  1 38  0.0000000  0 10G17G26G 5G15G10G30G 6G29G24G23
  22466934.696   -15822205.39649 -12302115.13446  22466934.265    22466942.008
       229.000         185.000
  24061189.727    -3976838.50449  -2785143.63645  24061189.185    24061199.915
       209.000         146.000
  23138975.383   -14194485.87549 -11033685.40746  23138975.241    23138984.094
       221.000         170.000
  24621733.870    -3905987.83049  -3020257.44345  24621732.699    24621744.086
       208.000         147.000
  21447470.085   -18716764.14949 -13926731.06847  21447469.506    21447475.973
       236.000         198.000
  21007888.108   -24060315.47449 -18696473.47147  21007888.232    21007894.622
       241.000         205.000
  20836613.492   -25167227.80249 -19567921.26047  20836613.053    20836619.440
       243.000         211.000
  23916511.734    -6261952.52449  -4863054.79945  23916512.013    23916519.061
       210.000         150.000
  24532558.632    -3386257.28249  -2272997.42045  24532558.203    24532566.288
       208.000         145.000
  21330820.410   -19586423.43349 -14567922.51547  21330819.901    21330827.096
       240.000         205.000
 03  1 13  1 38 30.0000000  0 10G17G26G 5G15G10G30G 6G29G24G23
  22456461.243   -15877243.32249 -12345001.77046  22456460.476    22456468.194
       230.000         185.000
  24044085.239    -4066722.60049  -2855183.06345  24044083.298    24044095.131
       203.000         144.000
  23158539.027   -14091678.51549 -10953575.81746  23158538.707    23158547.858
       221.000         170.000
  24606142.618    -3987919.71649  -3084100.28745  24606141.123    24606151.482
       208.000         147.000
  21459193.293   -18655157.97949 -13878726.23747  21459192.560    21459199.368
       237.000         198.000
  21019137.340   -24001200.28549 -18650409.69347  21019137.704    21019143.810
       241.000         205.000
  20828060.844   -25212172.13549 -19602942.78247  20828060.544    20828066.715
       243.000         211.000
  23903773.054    -6328894.38249  -4915217.15345  23903772.453    23903781.156
       209.000         151.000
  24547348.587    -3308535.11649  -2212434.67045  24547348.674    24547356.119
       211.000         145.000
  21318578.971   -19650752.20449 -14618048.75147  21318578.145    21318585.475
       240.000         205.000
 03  1 13  1 39  0.0000000  0 10G17G26G 5G15G10G30G 6G29G24G23
  22446024.176   -15932090.26849 -12387739.58446  22446023.411    22446031.477
       230.000         186.000
  24026989.445    -4156560.69349  -2925186.56445  24026987.812    24026999.044
       204.000         143.000
  23178128.306   -13988736.69049 -10873361.45546  23178128.166    23178136.563
       222.000         170.000
  24590574.319    -4069731.36849  -3147849.46345  24590573.021    24590584.652
       212.000         147.000
  21471008.726   -18593067.32249 -13830343.88747  21471008.010    21471014.880
       237.000         197.000
  21030478.069   -23941604.34449 -18603971.30547  21030478.553    21030484.582
       242.000         205.000
  20819556.834   -25256860.61449 -19637764.93447  20819556.631    20819562.835
       244.000         212.000
  23891070.667    -6395644.41249  -4967229.99745  23891070.456    23891078.446
       213.000         150.000
  24562129.199    -3230862.42449  -2151910.48345  24562129.162    24562137.706
       211.000         146.000
  21306421.677   -19714638.85849 -14667830.48147  21306421.261    21306428.481
       241.000         206.000
 03  1 13  1 39 30.0000000  0 10G17G26G 5G15G10G30G 6G29G24G23
  22435623.696   -15986744.91949 -12430327.56046  22435623.251    22435630.735
       229.000         186.000
  24009903.424    -4246348.37349  -2995150.87145  24009903.690    24009913.049
       201.000         146.000
  23197742.711   -13885662.46249 -10793043.92346  23197742.297    23197750.802
       220.000         169.000
  24575029.064    -4151421.88549  -3211504.24445  24575027.732    24575038.758
       208.000         149.000
  21482916.048   -18530493.71949 -13781585.21047  21482915.287    21482922.086
       236.000         197.000
  21041910.056   -23881528.96649 -18557159.32847  21041910.568    21041916.636
       240.000         205.000
  20811102.035   -25301290.71249 -19672385.75447  20811101.824    20811107.925
       242.000         212.000
  23878405.865    -6462198.60349  -5019090.27245  23878404.824    23878413.569
       211.000         151.000
  24576900.521    -3153238.64949  -2091424.39545  24576900.836    24576908.484
       211.000         147.000
  21294349.020   -19778080.91549 -14717265.77147  21294348.589    21294355.640
       240.000         206.000
 03  1 13  1 40  0.0000000  0 10G17G26G 5G15G10G30G 6G29G24G23
  22425259.620   -16041208.49049 -12472766.64446  22425259.516    22425266.665
       230.000         186.000
  23992827.127    -4336083.28749  -3065073.94845  23992826.912    23992835.210
       201.000         142.000
  23217381.668   -13782459.02049 -10712625.69746  23217381.042    23217390.688
       219.000         169.000
  24559506.689    -4232991.52749  -3275064.83245  24559505.738    24559516.214
       209.000         147.000
  21494914.767   -18467439.98949 -13732452.41647  21494914.091    21494920.881
       236.000         197.000
  21053432.703   -23820977.02149 -18509976.00347  21053433.271    21053439.093
       240.000         205.000
  20802696.618   -25345461.28549 -19706804.35147  20802696.543    20802702.649
       243.000         212.000
  23865778.459    -6528554.79849  -5070796.22445  23865778.076    23865785.688
       212.000         151.000
  24591662.425    -3075664.61249  -2030977.08545  24591661.927    24591670.923
       208.000         146.000
  21282361.131   -19841077.25749 -14766353.75547  21282360.488    21282367.909
       240.000         206.000
 03  1 13  1 40 30.0000000  0 10G17G26G 5G15G10G30G 6G29G24G23
  22414931.873   -16095481.00749 -12515056.85146  22414931.096    22414938.819
       230.000         187.000
  23975761.810    -4425761.65449  -3134953.07245  23975761.256    23975771.992
       200.000         143.000
  23237044.701   -13679129.01949 -10632108.87346  23237044.669    23237053.528
       218.000         168.000
  24544007.437    -4314440.35849  -3338531.28845  24544006.438    24544017.242
       207.000         147.000
  21507004.333   -18403908.79749 -13682947.56847  21507003.911    21507010.627
       236.000         197.000
  21065045.678   -23759950.52449 -18462422.89047  21065046.212    21065052.308
       240.000         205.000
  20794340.942   -25389370.52549 -19741019.30747  20794340.877    20794346.909
       243.000         212.000
  23853189.555    -6594709.61249  -5122345.27745  23853188.801    23853197.705
       211.000         152.000
  24606414.687    -2998140.77949  -1970568.87245  24606415.373    24606422.834
       212.000         146.000
  21270458.382   -19903626.27549 -14815093.17447  21270457.918    21270465.046
       240.000         206.000
 03  1 13  1 41  0.0000000  0 10G17G26G 5G15G10G30G 6G29G24G23
  22404640.374   -16149562.99849 -12557198.58846  22404639.970    22404647.448
       231.000         187.000
  23958707.743    -4515380.91449  -3204786.04545  23958707.172    23958716.981
       202.000         143.000
  23256731.272   -13575675.70849 -10551495.94946  23256730.750    23256739.949
       221.000         167.000
  24528531.037    -4395768.51549  -3401903.69345  24528529.892    24528541.160
       209.000         148.000
  21519184.156   -18339903.25449 -13633073.09547  21519183.489    21519190.163
       238.000         197.000
  21076748.394   -23698452.42249 -18414502.29447  21076748.790    21076755.073
       242.000         204.000
  20786035.202   -25433017.31749 -19775029.75747  20786035.007    20786041.157
       244.000         212.000
  23840639.336    -6660660.89549  -5173735.73545  23840638.739    23840647.521
       214.000         152.000
  24621157.275    -2920668.21649  -1910200.62845  24621157.697    24621165.191
       212.000         145.000
  21258640.981   -19965726.77249 -14863483.09347  21258640.190    21258647.722
       242.000         206.000
 03  1 13  1 41 30.0000000  0 10G17G26G 5G15G10G30G 6G29G24G23
  22394385.327   -16203453.39049 -12599191.04146  22394384.520    22394392.472
       230.000         187.000
  23941665.939    -4604936.64549  -3274569.82045  23941666.789    23941674.752
       205.000         144.000
  23276441.079   -13472100.00549 -10470787.66246  23276440.456    23276449.674
       218.000         167.000
  24513078.028    -4476974.02849  -3465180.53945  24513077.450    24513087.482
       207.000         148.000
  21531454.155   -18275423.93649 -13582829.45247  21531453.695    21531460.428
       236.000         197.000
  21088540.727   -23636483.30549 -18366214.67747  21088541.097    21088547.103
       240.000         204.000
  20777780.083   -25476398.06349 -19808832.90647  20777780.102    20777785.915
       243.000         212.000
  23828128.730    -6726403.87149  -5224963.88045  23828129.329    23828136.697
       213.000         152.000
  24635890.365    -2843245.31749  -1849871.06945  24635890.308    24635898.955
       209.000         144.000
  21246909.555   -20027375.34849 -14911520.87447  21246909.131    21246916.559
       240.000         207.000
 03  1 13  1 42  0.0000000  0 10G17G26G 5G15G10G30G 6G29G24G23
  22384166.281   -16257154.50149 -12641035.98646  22384165.405    22384173.162
       230.000         187.000
  23924636.410    -4694425.71549  -3344301.33145  23924637.468    23924646.562
       208.000         143.000
  23296173.346   -13368406.68249 -10389987.71246  23296172.825    23296181.858
       219.000         167.000
  24497647.989    -4558058.68749  -3528363.21545  24497646.952    24497657.680
       207.000         147.000
  21543813.437   -18210475.44049 -13532220.20847  21543812.579    21543819.634
       236.000         197.000
  21100421.879   -23574047.37349 -18317563.30647  21100422.232    21100428.451
       239.000         204.000
  20769575.515   -25519513.18549 -19842429.06647  20769575.322    20769581.597
       242.000         212.000
  23815657.961    -6791937.64349  -5276028.97845  23815658.353    23815664.923
       212.000         152.000
  24650613.612    -2765874.28449  -1789581.92545  24650613.146    24650620.770
       208.000         142.000
  21235264.050   -20088572.46949 -14959206.86547  21235263.633    21235270.837
       240.000         207.000
 03  1 13  1 42 30.0000000  0 10G17G26G 5G15G10G30G 6G29G24G23
  22373983.337   -16310665.99849 -12682733.18147  22373982.654    22373990.330
       229.000         188.000
  23907620.541    -4783845.31649  -3413978.80245  23907619.270    23907628.710
       199.000         142.000
  23315927.532   -13264597.84449 -10309097.76146  23315927.499    23315935.636
       220.000         167.000
  24482241.047    -4639021.73849  -3591451.11945  24482239.808    24482249.987
       210.000         148.000
  21556261.561   -18145060.02549 -13481247.13147  21556261.131    21556267.824
       236.000         197.000
  21112391.465   -23511146.69449 -18268549.79547  21112391.745    21112397.991
       240.000         204.000
  20761421.924   -25562360.48749 -19875816.53447  20761421.837    20761427.812
       242.000         212.000
  23803227.647    -6857258.90449  -5326928.52645  23803227.399    23803234.905
       212.000         152.000
  24665326.924    -2688555.40249  -1729333.41945  24665327.619    24665334.621
       206.000         141.000
  21223704.792   -20149316.37449 -15006539.70447  21223704.385    21223711.402
       240.000         207.000
 03  1 13  1 43  0.0000000  0 10G17G26G 5G15G10G30G 6G29G24G23
  22363836.364   -16363988.28449 -12724282.94647  22363836.028    22363843.840
       230.000         188.000
  23890618.126    -4873192.32849  -3483599.69945  23890618.489    23890627.972
       204.000         144.000
  23335703.065   -13160676.74449 -10228120.35646  23335703.009    23335711.871
       219.000         167.000
  24466857.271    -4719863.18249  -3654444.26745  24466856.378    24466866.566
       211.000         147.000
  21568798.014   -18079180.44449 -13429912.37647  21568797.402    21568804.171
       237.000         197.000
  21124449.016   -23447783.78949 -18219176.11047  21124449.488    21124455.641
       240.000         203.000
  20753319.628   -25604938.25549 -19908993.97847  20753319.676    20753325.662
       243.000         212.000
  23790838.261    -6922364.82049  -5377660.22545  23790837.216    23790846.234
       212.000         152.000
  24680030.073    -2611289.11949  -1669125.90845  24680029.651    24680038.274
       208.000         139.000
  21212232.053   -20209605.74849 -15053518.36247  21212231.598    21212238.717
       241.000         207.000
 03  1 13  1 43 30.0000000  0 10G17G26G 5G15G10G30G 6G29G24G23
  22353725.691   -16417119.81649 -12765684.05547  22353725.258    22353732.222
       231.000         189.000
  23873630.811    -4962461.37049  -3553159.82845  23873631.619    23873640.078
       203.000         146.000
  23355499.891   -13056644.04949 -10147055.95946  23355500.284    23355508.957
       219.000         166.000
  24451497.184    -4800580.92849  -3717341.03545  24451495.912    24451506.047
       211.000         148.000
  21581422.718   -18012837.23849 -13378216.34147  21581421.992    21581428.549
       238.000         197.000
  21136594.466   -23383959.02849 -18169442.53247  21136594.950    21136600.957
       241.000         203.000
  20745269.313   -25647242.83149 -19941958.54147  20745269.229    20745275.396
       244.000         212.000
  23778490.734    -6987250.64049  -5428220.45445  23778490.594    23778497.800
       213.000         152.000
  24694723.628    -2534073.79949  -1608958.09145  24694723.709    24694731.671
       206.000         138.000
  21200846.486   -20269437.00449 -15100140.04347  21200845.930    21200853.105
       241.000         207.000
 03  1 13  1 44  0.0000000  0 10G17G26G 5G15G10G30G 6G29G24G23
  22343650.906   -16470063.00249 -12806938.40747  22343650.613    22343657.725
       230.000         189.000
  23856658.308    -5051651.41149  -3622658.40345  23856658.149    23856667.207
       206.000         143.000
  23375316.986   -12952504.72449 -10065908.47646  23375316.565    23375325.213
       218.000         165.000
  24436160.046    -4881177.19249  -3780143.13045  24436159.879    24436168.113
       209.000         147.000
  21594134.650   -17946035.39449 -13326162.93447  21594134.092    21594140.815
       237.000         196.000
  21148826.895   -23319677.18349 -18119352.78847  21148827.351    21148833.388
       240.000         203.000
  20737270.831   -25689274.99349 -19974710.83548  20737270.826    20737276.887
       243.000         213.000
  23766185.263    -7051915.74549  -5478608.69745  23766184.683    23766191.554
       211.000         152.000
  24709406.887    -2456912.56149  -1548832.45045  24709406.584    24709414.145
       206.000         138.000
  21189547.954   -20328810.95049 -15146405.38447  21189547.232    21189554.553
       241.000         207.000
 03  1 13  1 44 30.0000000  0 10G17G26G 5G15G10G30G 6G29G24G23
  22333612.584   -16522814.35549 -12848043.28247  22333612.182    22333619.566
       230.000         189.000
  23839702.294    -5140755.22349  -3692089.78745  23839701.198    23839712.202
       203.000         144.000
  23395154.610   -12848257.59649  -9984676.99946  23395154.432    23395163.835
       219.000         165.000
  24420846.767    -4961648.12849  -3842847.58045  24420845.251    24420855.142
       210.000         146.000
  21606934.126   -17878773.68549 -13273751.19047  21606933.521    21606940.143
       236.000         196.000
  21161146.634   -23254936.74349 -18068905.69847  21161147.173    21161153.217
       240.000         203.000
  20729325.239   -25731029.11849 -20007246.47448  20729325.097    20729330.991
       243.000         213.000
  23753923.080    -7116353.53149  -5528819.78745  23753923.081    23753931.358
       212.000         153.000
  24724080.693    -2379801.64349  -1488746.00445  24724081.904    24724089.412
       204.000         137.000
  21178337.445   -20387722.33349 -15192310.28647  21178337.122    21178343.859
       241.000         208.000
 03  1 13  1 45  0.0000000  0 10G17G26G 5G15G10G30G 6G29G24G23
  22323609.690   -16575379.63049 -12889003.14847  22323609.097    22323616.727
       231.000         189.000
  23822762.008    -5229775.27449  -3761455.87645  23822762.505    23822771.253
       207.000         145.000
  23415011.135   -12743911.13749  -9903368.10846  23415011.905    23415020.210
       220.000         165.000
  24405556.313    -5041999.42649  -3905458.80645  24405555.086    24405564.487
       209.000         146.000
  21619819.506   -17811060.45149 -13220987.60047  21619818.571    21619825.475
       237.000         196.000
  21173552.037   -23189745.90849 -18018107.64247  21173552.435    21173558.237
       240.000         203.000
  20721431.818   -25772509.22349 -20039568.58148  20721431.591    20721437.823
       245.000         213.000
  23741703.591    -7180566.50749  -5578855.71745  23741702.851    23741710.015
       214.000         152.000
  24738743.574    -2302747.24249  -1428703.59945  24738742.415    24738750.954
       206.000         138.000
  21167214.139   -20446175.50049 -15237858.12747  21167213.593    21167220.536
       241.000         208.000
 03  1 13  1 45 30.0000000  0 10G17G26G 5G15G10G30G 6G29G24G23
  22313642.738   -16627755.95549 -12929815.79947  22313642.347    22313649.741
       231.000         189.000
  23805839.344    -5318704.06049  -3830750.93045  23805838.921    23805848.439
       204.000         145.000
  23434886.774   -12639464.20049  -9821980.94646  23434886.166    23434894.763
       218.000         165.000
  24390289.293    -5122226.87749  -3967973.52645  24390288.515    24390298.708
       209.000         146.000
  21632791.120   -17742894.23849 -13167871.06147  21632790.651    21632797.332
       236.000         195.000
  21186043.415   -23124103.19649 -17966957.48547  21186043.827    21186050.087
       239.000         202.000
  20713591.578   -25813709.70349 -20071672.81348  20713591.569    20713597.576
       245.000         213.000
  23729528.213    -7244548.17449  -5628711.40345  23729528.189    23729535.297
       214.000         153.000
  24753396.451    -2225745.82849  -1368702.46945  24753395.941    24753404.068
       204.000         138.000
  21156178.994   -20504165.20849 -15283044.84547  21156178.532    21156185.623
       240.000         208.000
 03  1 13  1 46  0.0000000  0 10G17G26G 5G15G10G30G 6G29G24G23
  22303711.635   -16679943.88049 -12970481.62847  22303710.642    22303718.405
       231.000         190.000
  23788934.654    -5407538.93749  -3899972.74945  23788935.153    23788943.908
       208.000         149.000
  23454780.907   -12534920.03749  -9740518.00746  23454780.873    23454789.336
       220.000         164.000
  24375045.877    -5202330.83949  -4030392.03845  24375045.327    24375053.792
       208.000         145.000
  21645848.315   -17674278.22449 -13114404.01147  21645847.332    21645853.906
       235.000         195.000
  21198620.238   -23058011.58349 -17915457.52647  21198620.271    21198626.443
       239.000         202.000
  20705804.813   -25854629.22349 -20103558.10248  20705804.610    20705810.568
       245.000         213.000
  23717397.235    -7308296.11649  -5678384.95845  23717396.098    23717404.288
       214.000         153.000
  24768039.044    -2148797.83549  -1308742.95545  24768038.584    24768046.876
       206.000         138.000
  21145232.215   -20561690.62449 -15327869.76847  21145231.581    21145238.649
       241.000         208.000
 03  1 13  1 46 30.0000000  0 10G17G26G 5G15G10G30G 6G29G24G23
  22293816.200   -16731944.40649 -13011001.44647  22293815.603    22293822.821
       233.000         190.000
  23772048.178    -5496277.22249  -3969119.31345  23772048.114    23772057.235
       211.000         148.000
  23474692.903   -12430282.00649  -9658981.93346  23474693.358    23474701.207
       221.000         164.000
  24359825.770    -5282311.92849  -4092714.81245  24359825.434    24359835.208
       209.000         147.000
  21658990.404   -17605216.02149 -13060589.28747  21658989.544    21658996.155
       237.000         195.000
  21211281.802   -22991474.49949 -17863610.45347  21211282.005    21211288.380
       241.000         202.000
  20698071.723   -25895266.82149 -20135223.71848  20698071.583    20698077.675
       246.000         213.000
  23705311.262    -7371808.06649  -5727874.64945  23705311.284    23705318.188
       216.000         153.000
  24782671.180    -2071904.65049  -1248826.16945  24782672.113    24782679.051
       205.000         139.000
  21134373.902   -20618751.13149 -15372332.43047  21134373.308    21134380.410
       242.000         208.000
 03  1 13  1 47  0.0000000  0 10G17G26G 5G15G10G30G 6G29G24G23
  22283956.208   -16783758.82149 -13051376.24447  22283955.639    22283963.219
       232.000         190.000
  23755180.711    -5584916.38649  -4038188.65545  23755181.160    23755189.131
       208.000         150.000
  23494622.066   -12325553.85949  -9577375.63046  23494622.062    23494630.278
       220.000         164.000
  24344628.992    -5362171.02849  -4154942.54945  24344628.624    24344638.428
       207.000         146.000
  21672216.731   -17535711.13649 -13006429.62247  21672215.637    21672223.004
       237.000         194.000
  21224027.521   -22924495.15549 -17811418.76047  21224027.921    21224033.883
       240.000         201.000
  20690392.396   -25935621.77249 -20166669.08748  20690392.399    20690398.336
       246.000         213.000
  23693270.413    -7435082.20249  -5777178.98945  23693269.941    23693278.578
       215.000         154.000
  24797292.745    -1995067.59549  -1188953.11545  24797293.411    24797301.411
       203.000         139.000
  21123604.124   -20675346.28949 -15416432.48347  21123603.624    21123610.473
       242.000         208.000
 03  1 13  1 47 30.0000000  0 11G17G26G 5G15G10G30G 6G29G24G23G18
  22274132.253   -16835383.74349 -13091603.38347  22274131.919    22274139.104
       231.000         190.000
  23738333.204    -5673449.68349  -4107175.50245  23738333.454    23738341.397
       210.000         149.000
  23514568.457   -12220734.93549  -9495698.60046  23514567.823    23514577.264
       218.000         164.000
  24329455.929    -5441904.66049  -4217072.51445  24329455.468    24329465.003
       211.000         146.000
  21685527.424   -17465762.80849 -12951924.41847  21685526.962    21685533.171
       235.000         194.000
  21236857.578   -22857072.75349 -17758881.83447  21236857.839    21236864.161
       238.000         201.000
  20682767.831   -25975688.85149 -20197890.14648  20682767.748    20682773.668
       245.000         213.000
  23681276.080    -7498112.17749  -5826293.12845  23681275.934    23681283.742
       215.000         154.000
  24811904.292    -1918283.70249  -1129121.48445  24811904.336    24811912.178
       204.000         139.000
  21112923.847   -20731471.34149 -15460166.22647  21112923.487    21112930.361
       240.000         208.000
  24761183.572    -2462107.85849  -1556586.84345  24761182.630    24761192.977
       203.000         133.000
 03  1 13  1 48  0.0000000  0 11G17G26G 5G15G10G30G 6G29G24G23G18
  22264343.918   -16886821.64149 -13131684.78847  22264343.396    22264351.090
       231.000         190.000
  23721506.381    -5761875.86349  -4176078.85345  23721505.803    23721515.883
       206.000         151.000
  23534531.148   -12115830.20949  -9413954.71046  23534530.404    23534539.221
       216.000         163.000
  24314306.497    -5521514.73649  -4279106.21045  24314305.217    24314315.513
       209.000         146.000
  21698921.600   -17395375.65749 -12897077.26547  21698921.090    21698927.644
       234.000         193.000
  21249771.059   -22789211.93449 -17706003.27447  21249771.669    21249777.633
       238.000         201.000
  20675197.984   -26015468.53649 -20228887.25648  20675197.958    20675203.776
       245.000         213.000
  23669328.355    -7560897.27249  -5875216.42345  23669327.795    23669336.167
       215.000         154.000
  24826505.271    -1841555.23649  -1069333.03545  24826505.398    24826513.051
       200.000         139.000
  21102332.841   -20787127.08549 -15503534.25847  21102332.479    21102339.262
       241.000         208.000
  24740189.716    -2572430.30049  -1642552.06045  24740190.053    24740200.217
       212.000         141.000
 03  1 13  1 48 30.0000000  0 11G17G26G 5G15G10G30G 6G29G24G23G18
  22254591.064   -16938072.96749 -13171620.81547  22254590.218    22254598.079
       232.000         190.000
  23704700.189    -5850191.38149  -4244895.99245  23704700.367    23704708.602
       213.000         149.000
  23554509.730   -12010842.17349  -9332145.90645  23554509.682    23554518.590
       217.000         162.000
  24299180.736    -5601000.92149  -4341043.37645  24299180.148    24299189.851
       208.000         147.000
  21712398.793   -17324552.51049 -12841890.37847  21712398.170    21712404.694
       235.000         193.000
  21262767.541   -22720915.04349 -17652784.91847  21262767.792    21262774.275
       238.000         201.000
  20667683.168   -26054958.98249 -20259658.98548  20667683.241    20667688.883
       245.000         213.000
  23657427.816    -7623434.64949  -5923946.69845  23657427.774    23657434.565
       215.000         155.000
  24841095.534    -1764882.68649  -1009588.15945  24841095.847    24841103.106
       205.000         138.000
  21091831.411   -20842312.12649 -15546535.51547  21091830.869    21091837.797
       241.000         208.000
  24719207.807    -2682691.97049  -1728470.13845  24719206.979    24719217.257
       209.000         139.000
 03  1 13  1 49  0.0000000  0 11G17G26G 5G15G10G30G 6G29G24G23G18
  22244873.689   -16989137.80949 -13211411.52847  22244872.685    22244880.243
       232.000         190.000
  23687916.046    -5938392.64049  -4313624.08145  23687915.587    23687923.844
       210.000         149.000
  23574503.755   -11905773.27249  -9250274.08945  23574503.741    23574512.544
       218.000         162.000
  24284078.511    -5680362.68049  -4402883.55945  24284077.623    24284088.410
       207.000         147.000
  21725958.474   -17253295.78649 -12786365.63047  21725957.363    21725964.192
       234.000         193.000
  21275846.549   -22652184.48049 -17599228.63247  21275846.658    21275853.205
       238.000         201.000
  20660223.773   -26094158.13949 -20290203.73348  20660223.475    20660229.523
       245.000         214.000
  23645574.951    -7685721.14649  -5972481.48145  23645574.160    23645581.583
       214.000         155.000
  24855675.212    -1688265.86149   -949886.70245  24855674.485    24855683.945
       205.000         137.000
  21081419.862   -20897024.84049 -15589168.72147  21081418.987    21081426.166
       240.000         208.000
  24698237.352    -2792890.73349  -1814339.24544  24698236.647    24698245.605
       207.000         129.000
 03  1 13  1 49 30.0000000  0 11G17G26G 5G15G10G30G 6G29G24G23G18
  22235191.899   -17040015.57149 -13251056.48347  22235191.397    22235198.668
       231.000         190.000
  23671154.364    -6026475.23649  -4382259.69545  23671154.880    23671162.996
       212.000         150.000
  23594512.841   -11800625.14849  -9168340.54245  23594512.939    23594521.805
       218.000         162.000
  24269000.200    -5759599.18549  -4464626.16145  24268999.351    24269009.299
       207.000         145.000
  21739600.293   -17181607.50149 -12730504.62047  21739599.748    21739606.634
       234.000         193.000
  21289007.770   -22583021.80049 -17545335.64447  21289007.966    21289014.416
       237.000         200.000
  20652820.298   -26133063.46549 -20320519.53548  20652820.220    20652826.020
       244.000         214.000
  23633770.567    -7747753.01949  -6020817.86345  23633770.161    23633778.038
       215.000         155.000
  24870244.257    -1611704.11649   -890228.16945  24870243.559    24870251.452
       201.000         136.000
  21071098.586   -20951263.11249 -15631432.24547  21071098.272    21071104.855
       241.000         209.000
  24677279.803    -2903022.97049  -1900156.41945  24677279.295    24677289.572
       213.000         145.000
 03  1 13  1 50  0.0000000  0 11G17G26G 5G15G10G30G 6G29G24G23G18
  22225545.481   -17090707.64349 -13290556.73647  22225544.945    22225552.048
       233.000         190.000
  23654415.653    -6114436.86249  -4450801.08045  23654415.189    23654424.611
       210.000         149.000
  23614536.251   -11695401.71549  -9086348.30345  23614536.946    23614544.894
       219.000         161.000
  24253945.496    -5838711.69449  -4526272.10145  24253943.504    24253954.159
       210.000         146.000
  21753323.529   -17109491.25449 -12674310.12447  21753322.808    21753329.386
       234.000         193.000
  21302250.511   -22513430.68149 -17491108.80647  21302250.939    21302257.270
       239.000         200.000
  20645472.881   -26171674.30549 -20350605.86348  20645472.697    20645478.657
       245.000         214.000
  23622015.003    -7809528.46249  -6068954.43445  23622014.130    23622021.426
       216.000         155.000
  24884802.710    -1535199.07349   -830613.79145  24884802.530    24884810.251
       205.000         137.000
  21060867.630   -21005026.91749 -15673326.05047  21060867.255    21060873.911
       242.000         209.000
  24656335.069    -3013088.08849  -1985921.29745  24656334.565    24656344.500
       205.000         145.000
 03  1 13  1 50 30.0000000  0 10G17G26G 5G15G10G30G 6G29G23G18
  22215934.236   -17141214.84749 -13329912.93647  22215933.509    22215940.543
       233.000         191.000
  23637700.577    -6202274.69249  -4519245.95745  23637700.650    23637709.276
       213.000         150.000
  23634573.375   -11590106.44849  -9004300.09345  23634572.346    23634582.034
       216.000         161.000
  24238914.375    -5917700.58349  -4587821.74445  24238913.020    24238923.138
       211.000         147.000
  21767127.537   -17036950.53149 -12617784.86147  21767126.812    21767133.748
       235.000         192.000
  21315574.185   -22443414.41249 -17436550.67347  21315574.555    21315580.710
       239.000         200.000
  20638181.658   -26209989.65249 -20380461.92748  20638181.444    20638187.381
       245.000         214.000
  23610308.571    -7871045.39449  -6116889.56145  23610307.954    23610316.208
       216.000         155.000
  21050727.040   -21058315.69449 -15714849.69847  21050726.445    21050733.174
       241.000         209.000
  24635403.196    -3123084.70149  -2071632.83645  24635402.126    24635410.598
       212.000         134.000
 03  1 13  1 51  0.0000000  0 10G17G26G 5G15G10G30G 6G29G23G18
  22206358.462   -17191535.54249 -13369123.81247  22206357.808    22206365.413
       232.000         191.000
  23621010.055    -6289983.01349  -4587589.92645  23621009.495    23621018.915
       211.000         148.000
  23654624.012   -11484739.68549  -8922196.18245  23654623.965    23654632.932
       217.000         160.000
  24223907.192    -5996563.32949  -4649273.06545  24223906.518    24223915.830
       212.000         148.000
  21781012.327   -16963985.25949 -12560928.79247  21781011.729    21781018.022
       234.000         192.000
  21328978.689   -22372973.33949 -17381661.53447  21328979.175    21328985.030
       238.000         200.000
  20630947.491   -26248005.31749 -20410084.48648  20630947.362    20630953.269
       244.000         214.000
  23598652.356    -7932298.58749  -6164619.19045  23598651.543    23598659.175
       215.000         155.000
  21040677.562   -21111125.86649 -15756000.41947  21040677.042    21040683.811
       241.000         209.000
  24614485.623    -3233007.94149  -2157287.33945  24614484.917    24614494.005
       210.000         145.000
 03  1 13  1 51 30.0000000  0 10G17G26G 5G15G10G30G 6G29G23G18
  22196817.814   -17241671.71649 -13408190.90447  22196817.123    22196824.361
       232.000         191.000
  23604344.460    -6377560.38649  -4655831.87145  23604344.362    23604353.050
       213.000         148.000
  23674687.391   -11379306.19549  -8840040.24645  23674687.155    23674696.186
       217.000         159.000
  24208923.627    -6075301.95549  -4710627.67445  24208923.041    24208932.355
       209.000         149.000
  21794976.977   -16890600.44949 -12503745.80547  21794976.752    21794982.976
       233.000         192.000
  21342463.189   -22302111.92449 -17326444.85247  21342463.480    21342469.761
       237.000         200.000
  20623770.287   -26285721.52349 -20439473.70148  20623770.121    20623776.033
       245.000         214.000
  23587046.508    -7993287.10449  -6212142.57145  23587046.577    23587053.880
       215.000         155.000
  21030718.993   -21163458.07249 -15796778.69147  21030718.477    21030725.479
       241.000         209.000
  24593581.500    -3342857.94349  -2242884.50345  24593580.119    24593589.600
       207.000         140.000
 03  1 13  1 52  0.0000000  0 10G17G26G 5G15G10G30G 6G29G23G18
  22187312.285   -17291623.24449 -13447114.11247  22187311.454    22187318.949
       234.000         191.000
  23587704.444    -6465002.94549  -4723968.73745  23587704.832    23587712.537
       214.000         150.000
  23694763.063   -11273808.20349  -8757834.06645  23694762.727    23694771.363
       218.000         159.000
  24193963.875    -6153915.70049  -4771884.96045  24193962.648    24193973.109
       212.000         148.000
  21809021.019   -16816798.44249 -12446237.72247  21809020.170    21809026.936
       235.000         192.000
  21356027.223   -22230832.38549 -17270902.35547  21356027.350    21356033.707
       239.000         199.000
  20616650.495   -26323136.21549 -20468627.96348  20616650.170    20616656.111
       247.000         214.000
  23575491.664    -8054007.76849  -6259457.22745  23575490.957    23575498.494
       216.000         155.000
  21020851.692   -21215310.84649 -15837183.37947  21020850.928    21020857.821
       242.000         209.000
  24572692.410    -3452631.60449  -2328422.48145  24572692.649    24572702.057
       213.000         142.000
 03  1 13  1 52 30.0000000  0 10G17G26G 5G15G10G30G 6G29G23G18
  22177841.901   -17341390.24949 -13485893.54347  22177840.860    22177848.325
       234.000         191.000
  23571090.984    -6552306.76749  -4791997.52845  23571090.244    23571098.783
       211.000         149.000
  23714850.524   -11168247.86549  -8675579.31445  23714850.621    23714858.544
       217.000         157.000
  24179027.892    -6232404.28449  -4833044.71445  24179027.408    24179035.334
       214.000         148.000
  21823144.022   -16742581.53649 -12388406.35147  21823143.392    21823149.858
       234.000         192.000
  21369670.392   -22159136.88849 -17215035.74147  21369671.055    21369676.860
       239.000         199.000
  20609588.487   -26360247.13449 -20497545.53048  20609588.289    20609594.104
       246.000         214.000
  23563988.354    -8114457.26749  -6306560.60745  23563988.910    23563994.455
       215.000         155.000
  21011075.963   -21266682.48249 -15877213.16347  21011075.505    21011082.169
       242.000         209.000
  24551817.927    -3562326.88149  -2413899.21045  24551817.171    24551827.243
       209.000         143.000
 03  1 13  1 53  0.0000000  0 10G17G26G 5G15G10G30G 6G29G23G18
  22168406.574   -17390973.01949 -13524529.40947  22168405.972    22168413.626
       233.000         192.000
  23554504.440    -6639468.36249  -4859915.44945  23554504.136    23554512.753
       213.000         149.000
  23734949.417   -11062627.78849  -8593278.00145  23734948.527    23734959.127
       215.000         158.000
  24164115.742    -6310767.67149  -4894106.92445  24164114.502    24164123.803
       212.000         149.000
  21837345.468   -16667952.34249 -12330253.71847  21837344.951    21837351.425
       233.000         192.000
  21383392.249   -22087028.05849 -17158847.05147  21383392.645    21383398.851
       237.000         199.000
  20602584.636   -26397052.48349 -20526224.99148  20602584.478    20602590.357
       245.000         214.000
  23552537.164    -8174632.86249  -6353450.53745  23552537.108    23552543.623
       216.000         155.000
  21001391.928   -21317572.02349 -15916867.28247  21001391.429    21001398.091
       241.000         209.000
  24530958.936    -3671941.25049  -2499312.84545  24530959.500    24530968.519
       215.000         143.000
 03  1 13  1 53 30.0000000  0 10G17G26G 5G15G10G30G 6G29G23G18
  22159006.085   -17440372.55849 -13563022.49547  22159005.740    22159012.740
       233.000         192.000
  23537945.706    -6726484.63949  -4927720.16945  23537946.239    23537954.324
       213.000         150.000
  23755059.017   -10956951.09749  -8510932.56245  23755057.766    23755067.223
       212.000         156.000
  24149227.449    -6389005.96049  -4955071.67245  24149226.149    24149235.944
       213.000         150.000
  21851624.719   -16592914.17949 -12271782.40447  21851624.125    21851630.974
       233.000         192.000
  21397192.194   -22014508.87949 -17102338.60547  21397192.512    21397198.670
       237.000         198.000
  20595639.168   -26433551.01649 -20554665.37248  20595639.276    20595644.907
       246.000         214.000
  23541138.725    -8234532.04749  -6400125.08945  23541138.759    23541144.975
       216.000         156.000
  20991799.858   -21367978.48749 -15956144.98147  20991799.420    20991806.145
       242.000         209.000
  24510115.838    -3781472.95349  -2584662.32345  24510113.312    24510122.541
       197.000         138.000
 03  1 13  1 54  0.0000000  0 10G17G26G 5G15G10G30G 6G29G23G18
  22149640.611   -17489588.26349 -13601372.33147  22149640.223    22149647.385
       233.000         192.000
  23521415.284    -6813351.91949  -4995408.78045  23521415.623    23521423.169
       212.000         150.000
  23775179.026   -10851219.97249  -8428544.73345  23775179.146    23775187.696
       216.000         155.000
  24134362.969    -6467118.85749  -5015938.68945  24134362.289    24134371.041
       213.000         151.000
  21865981.363   -16517469.29849 -12212994.16547  21865980.767    21865987.487
       233.000         192.000
  21411069.747   -21941581.73749 -17045512.26747  21411070.205    21411076.217
       237.000         198.000
  20588752.510   -26469740.50049 -20582864.93448  20588752.443    20588758.078
       245.000         214.000
  23529793.370    -8294151.66949  -6446581.79845  23529793.353    23529800.016
       215.000         155.000
  20982299.980   -21417900.46449 -15995045.15247  20982299.476    20982306.183
       242.000         210.000
  24489288.733    -3890919.53649  -2669945.15945  24489289.877    24489297.980
       215.000         146.000
 03  1 13  1 54 30.0000000  0 10G17G26G 5G15G10G30G 6G29G23G18
  22140309.960   -17538620.75349 -13639579.40047  22140309.842    22140316.684
       234.000         192.000
  23504913.860    -6900066.92749  -5062978.75445  23504912.857    23504921.894
       213.000         151.000
  23795308.801   -10745437.51749  -8346116.89645  23795308.081    23795317.756
       213.000         155.000
  24119522.348    -6545106.59549  -5076708.20045  24119521.902    24119530.386
       214.000         151.000
  21880414.857   -16441620.69049 -12153891.33647  21880414.424    21880421.248
       233.000         191.000
  21425024.399   -21868249.54749 -16988370.30447  21425024.914    21425031.004
       237.000         198.000
  20581924.933   -26505619.53949 -20610822.59348  20581924.880    20581930.663
       245.000         214.000
  23518501.711    -8353489.29749  -6492818.77445  23518501.310    23518508.643
       214.000         156.000
  20972892.397   -21467337.26149 -16033567.26647  20972891.959    20972898.470
       242.000         210.000
  24468478.420    -4000279.14849  -2755160.40745  24468477.565    24468487.600
       201.000         143.000
 03  1 13  1 55  0.0000000  0 10G17G26G 5G15G10G30G 6G29G23G18
  22131014.234   -17587469.94449 -13677643.63447  22131013.428    22131020.622
       233.000         192.000
  23488442.188    -6986625.57849  -5130426.85745  23488442.050    23488449.064
       214.000         150.000
  23815447.890   -10639605.86649  -8263650.70245  23815447.269    23815457.635
       214.000         154.000
  24104705.704    -6622968.22149  -5137379.47245  24104704.720    24104713.765
       213.000         152.000
  21894924.787   -16365370.50449 -12094475.58747  21894924.229    21894930.863
       233.000         191.000
  21439055.688   -21794514.43449 -16930914.38247  21439055.950    21439062.257
       236.000         197.000
  20575156.854   -26541185.83549 -20638536.55448  20575156.825    20575162.523
       245.000         214.000
  23507264.236    -8412541.53749  -6538833.37645  23507264.579    23507270.764
       215.000         156.000
  20963577.483   -21516287.23749 -16071710.03847  20963577.048    20963583.758
       242.000         210.000
  24447684.664    -4109549.00749  -2840305.62345  24447684.260    24447693.493
       209.000         140.000
 03  1 13  1 55 30.0000000  0 10G17G26G 5G15G10G30G 6G29G23G18
  22121753.145   -17636137.08149 -13715566.02147  22121752.539    22121759.740
       234.000         193.000
  23472000.884    -7073025.04449  -5197750.98645  23472000.832    23472009.023
       211.000         150.000
  23835595.792   -10533728.44449  -8181148.86345  23835594.521    23835603.715
       214.000         153.000
  24089912.813    -6700704.47649  -5197953.04145  24089912.421    24089920.842
       214.000         151.000
  21909510.495   -16288722.19749 -12034749.61847  21909510.062    21909516.526
       234.000         191.000
  21453163.067   -21720379.69849 -16873147.05947  21453163.644    21453169.641
       237.000         197.000
  20568448.548   -26576438.17849 -20666005.87948  20568448.459    20568454.362
       246.000         214.000
  23496081.649    -8471306.07249  -6584623.79445  23496081.421    23496088.084
       214.000         155.000
  20954355.269   -21564750.01149 -16109473.17247  20954354.892    20954361.573
       242.000         210.000
  24426908.824    -4218727.48049  -2925379.64145  24426907.624    24426917.106
       202.000         146.000
 03  1 13  1 56  0.0000000  0 10G17G26G 5G15G10G30G 6G29G23G18
  22112526.760   -17684621.74149 -13753346.20847  22112526.097    22112533.389
       234.000         192.000
  23455590.409    -7159261.51049  -5264948.02545  23455591.482    23455598.308
       215.000         150.000
  23855751.929   -10427807.17049  -8098612.86045  23855751.217    23855760.307
       213.000         153.000
  24075143.958    -6778314.87649  -5258428.56445  24075143.175    24075151.609
       213.000         152.000
  21924171.487   -16211678.26449 -11974715.36047  21924170.842    21924177.993
       235.000         191.000
  21467346.080   -21645847.55149 -16815070.06347  21467346.585    21467352.819
       238.000         197.000
  20561800.344   -26611374.57749 -20693229.01048  20561800.202    20561806.071
       246.000         214.000
  23484954.281    -8529779.79349  -6630187.60845  23484953.875    23484961.330
       215.000         155.000
  20945226.061   -21612724.08249 -16146855.49947  20945225.552    20945232.248
       243.000         211.000
  24406150.523    -4327812.14249  -3010380.51745  24406150.294    24406159.055
       210.000         140.000
 03  1 13  1 56 30.0000000  0 10G17G26G 5G15G10G30G 6G29G23G18
  22103335.030   -17732924.50449 -13790984.66147  22103334.670    22103341.423
       233.000         193.000
  23439211.756    -7245331.57649  -5332015.46445  23439210.792    23439219.190
       212.000         149.000
  23875915.914   -10321845.04249  -8016045.02145  23875914.718    23875924.683
       214.000         153.000
  24060398.996    -6855799.56449  -5318806.15445  24060398.183    24060407.202
       214.000         152.000
  21938907.142   -16134241.82049 -11914375.25547  21938906.541    21938913.037
       233.000         191.000
  21481604.101   -21570921.08749 -16756685.81847  21481604.445    21481610.583
       236.000         197.000
  20555212.544   -26645993.49849 -20720204.75748  20555212.562    20555218.201
       244.000         215.000
  23473882.850    -8587960.26649  -6675522.92345  23473882.629    23473888.992
       215.000         156.000
  20936189.977   -21660208.71849 -16183856.45247  20936189.538    20936196.220
       242.000         211.000
  24385410.366    -4436800.94549  -3095306.73245  24385409.302    24385418.645
       202.000         140.000
 03  1 13  1 57  0.0000000  0 10G17G26G 5G15G10G30G 6G29G23G18
  22094177.978   -17781044.90449 -13828481.00947  22094177.449    22094184.635
       233.000         193.000
  23422865.463    -7331230.90649  -5398949.85345  23422865.328    23422872.905
       213.000         151.000
  23896087.286   -10215843.69349  -7933446.59945  23896087.063    23896096.443
       215.000         152.000
  24045678.110    -6933157.60949  -5379085.04745  24045677.504    24045686.467
       213.000         152.000
  21953717.191   -16056414.54749 -11853730.60947  21953716.378    21953723.013
       233.000         191.000
  21495936.858   -21495601.86949 -16697995.51947  21495936.953    21495943.633
       236.000         196.000
  20548685.688   -26680292.30449 -20746931.06048  20548685.541    20548691.347
       243.000         215.000
  23462867.838    -8645843.63649  -6720626.71945  23462867.715    23462875.258
       216.000         157.000
  20927247.392   -21707201.95249 -16220474.48747  20927246.998    20927253.546
       242.000         211.000
  24364689.298    -4545690.61649  -3180155.59545  24364689.626    24364698.126
       211.000         145.000
 03  1 13  1 57 30.0000000  0 10G17G26G 5G15G10G30G 6G29G23G18
  22085055.188   -17828984.96549 -13865836.83147  22085054.885    22085062.159
       233.000         193.000
  23406552.139    -7416957.39249  -5465749.53545  23406551.971    23406559.885
       214.000         153.000
  23916265.442   -10109807.16349  -7850820.79145  23916265.854    23916273.843
       217.000         153.000
  24030981.178    -7010390.23949  -5439266.24145  24030980.388    24030988.905
       213.000         153.000
  21968600.877   -15978200.25849 -11792784.39347  21968600.235    21968606.632
       233.000         190.000
  21510343.536   -21419894.15049 -16639002.49947  21510344.019    21510350.036
       236.000         196.000
  20542219.804   -26714270.53949 -20773407.56948  20542219.767    20542225.437
       244.000         215.000
  23451909.804    -8703428.53749  -6765497.96045  23451909.611    23451916.764
       214.000         157.000
  20918398.271   -21753704.16549 -16256709.91347  20918397.755    20918404.438
       242.000         211.000
  24343987.078    -4654480.58349  -3264926.85945  24343985.000    24343995.743
       203.000         141.000
 03  1 13  1 58  0.0000000  0 10G17G26G 5G15G10G30G 6G29G23G18
  22075966.881   -17876744.06449 -13903051.64247  22075966.107    22075973.577
       233.000         192.000
  23390272.545    -7502506.90849  -5532411.35045  23390272.012    23390280.719
       214.000         152.000
  23936449.715   -10003737.57749  -7768169.20345  23936449.471    23936457.869
       214.000         152.000
  24016308.164    -7087496.87249  -5499349.26145  24016306.777    24016316.409
       212.000         153.000
  21983557.717   -15899601.42949 -11731538.52947  21983557.090    21983563.511
       234.000         190.000
  21524823.749   -21343800.21249 -16579708.52047  21524824.144    21524830.416
       236.000         196.000
  20535815.349   -26747925.91449 -20799632.49548  20535815.271    20535821.003
       245.000         215.000
  23441009.027    -8760711.74949  -6810134.12145  23441008.797    23441016.523
       215.000         156.000
  20909642.879   -21799713.85049 -16292561.54347  20909642.346    20909649.149
       243.000         211.000
  24323304.320    -4763168.18949  -3349618.23045  24323303.817    24323312.610
       213.000         143.000
 03  1 13  1 58 30.0000000  0 10G17G26G 5G15G10G30G 6G29G23G18
  22066913.114   -17924321.73449 -13940125.08347  22066912.135    22066919.648
       232.000         193.000
  23374027.333    -7587875.38049  -5598932.05645  23374027.248    23374035.300
       213.000         155.000
  23956640.110    -9897636.96149  -7685493.43545  23956639.623    23956649.128
       212.000         152.000
  24001659.301    -7164476.85849  -5559333.59645  24001658.528    24001667.949
       212.000         152.000
  21998587.327   -15820620.29949 -11669994.77647  21998586.795    21998593.149
       232.000         189.000
  21539377.080   -21267321.89849 -16520115.03747  21539377.749    21539383.446
       236.000         196.000
  20529472.798   -26781256.18849 -20825604.09948  20529472.832    20529478.246
       243.000         215.000
  23430166.357    -8817689.91449  -6854532.58745  23430166.773    23430172.944
       214.000         157.000
  20900981.481   -21845229.57649 -16328028.28047  20900980.982    20900987.557
       242.000         211.000
  24302641.780    -4871750.39249  -3434227.56845  24302639.932    24302650.180
       206.000         142.000
 03  1 13  1 59  0.0000000  0 10G17G26G 5G15G10G30G 6G29G23G18
  22057893.539   -17971719.44849 -13977058.29947  22057893.238    22057900.070
       233.000         193.000
  23357817.062    -7673060.18849  -5665309.66045  23357816.900    23357824.732
       214.000         153.000
  23976835.737    -9791508.65949  -7602796.09745  23976835.322    23976843.857
       212.000         152.000
  23987034.316    -7241330.85549  -5619219.76545  23987034.412    23987042.949
       213.000         153.000
  22013688.988   -15741260.45549 -11608155.92447  22013688.391    22013695.371
       232.000         189.000
  21554002.858   -21190462.97549 -16460224.97347  21554003.394    21554009.466
       236.000         195.000
  20523192.249   -26814260.53049 -20851321.73048  20523192.120    20523197.852
       245.000         215.000
  23419382.065    -8874360.96549  -6898691.74345  23419381.799    23419387.667
       216.000         157.000
  20892414.096   -21890251.14149 -16363109.95847  20892413.633    20892419.919
       244.000         211.000
  24281999.469    -4980225.94249  -3518753.76545  24281999.132    24282008.707
       207.000         146.000
 03  1 13  1 59 30.0000000  0 10G17G26G 5G15G10G30G 6G29G23G18
  22048908.170   -18018937.45649 -14013851.48547  22048907.589    22048914.641
       232.000         193.000
  23341642.423    -7758057.63949  -5731541.26145  23341642.917    23341650.010
       215.000         154.000
  23997036.092    -9685355.18549  -7520079.14945  23997036.567    23997045.397
       216.000         152.000
  23972433.467    -7318058.56849  -5679007.52745  23972432.930    23972442.165
       211.000         153.000
  22028862.156   -15661524.74749 -11546024.18647  22028861.247    22028867.949
       232.000         188.000
  21568700.565   -21113226.02349 -16400040.33847  21568701.289    21568707.055
       236.000         195.000
  20516974.133   -26846936.89249 -20876783.79248  20516974.154    20516979.843
       244.000         215.000
  23408656.833    -8930722.15749  -6942609.44945  23408656.244    23408663.445
       213.000         158.000
  20883940.960   -21934777.48649 -16397805.74647  20883940.479    20883947.021
       244.000         212.000
  24261377.667    -5088592.75449  -3603195.19445  24261375.839    24261384.690
       208.000         142.000
 03  1 13  2  0  0.0000000  0 10G17G26G 5G15G10G30G 6G29G23G18
  22039957.138   -18065975.08149 -14050504.10447  22039956.895    22039963.970
       234.000         193.000
  23325504.287    -7842863.41849  -5797623.49645  23325504.249    23325511.224
       216.000         154.000
  24017240.830    -9579178.50749  -7437344.11745  24017241.380    24017249.572
       212.000         151.000
  23957856.847    -7394659.16749  -5738696.22445  23957856.241    23957864.665
       210.000         153.000
  22044106.522   -15581414.91349 -11483600.92346  22044105.993    22044112.138
       232.000         187.000
  21583469.891   -21035612.89949 -16339562.57947  21583470.085    21583476.565
       236.000         195.000
  20510818.905   -26879282.65149 -20901988.23948  20510818.636    20510824.515
       245.000         215.000
  23397991.220    -8986769.82949  -6986282.86745  23397991.847    23397997.434
       215.000         158.000
  20875562.356   -21978807.11849 -16432114.48447  20875561.819    20875568.575
       244.000         212.000
  24240777.377    -5196847.60249  -3687549.42645  24240777.219    24240785.716
       210.000         146.000
 03  1 13  2  0 30.0000000  0 10G17G26G 5G15G10G30G 6G29G23G18
  22031040.126   -18112834.27049 -14087017.68447  22031039.569    22031046.611
       233.000         194.000
  23309403.141    -7927475.27249  -5863554.67045  23309401.467    23309410.613
       212.000         154.000
  24037449.273    -9472982.40249  -7354593.96845  24037449.010    24037457.699
       215.000         151.000
  23943304.002    -7471133.87949  -5798286.82245  23943303.386    23943312.582
       211.000         151.000
  22059421.321   -15500935.03549 -11420889.31646  22059420.111    22059427.394
       230.000         187.000
  21598309.951   -20957627.85149 -16278795.01547  21598310.291    21598316.486
       235.000         195.000
  20504726.671   -26911297.36549 -20926934.73248  20504726.613    20504732.311
       244.000         215.000
  23387385.534    -9042502.75949  -7029711.02845  23387385.250    23387392.474
       213.000         158.000
  20867278.193   -22022340.37049 -16466036.43547  20867277.624    20867284.150
       244.000         212.000
  24220198.458    -5304989.72649  -3771815.77645  24220198.356    24220206.487
       209.000         144.000
 03  1 13  2  1  0.0000000  0 10G17G26G 5G15G10G30G 6G29G23G18
  22022157.207   -18159514.13749 -14123391.53547  22022156.808    22022163.472
       234.000         194.000
  23293339.598    -8011888.68649  -5929331.16145  23293339.187    23293347.049
       216.000         154.000
  24057661.198    -9366768.47149  -7271829.90145  24057660.238    24057669.956
       209.000         150.000
  23928775.422    -7547481.74949  -5857778.58145  23928774.334    23928783.545
       211.000         152.000
  22074806.233   -15420086.72449 -11357890.62146  22074805.490    22074812.245
       231.000         186.000
  21613220.443   -20879272.63949 -16217739.00647  21613221.068    21613226.911
       235.000         194.000
  20498697.970   -26942978.30449 -20951621.14248  20498697.907    20498703.605
       244.000         215.000
  23376840.487    -9097916.93749  -7072890.80345  23376840.410    23376847.396
       214.000         159.000
  20859088.852   -22065375.24849 -16499570.04747  20859088.344    20859094.860
       244.000         212.000
  24199641.600    -5413015.90549  -3855991.81945  24199641.077    24199649.825
       208.000         144.000
 03  1 13  2  1 30.0000000  0 10G17G26G 5G15G10G30G 6G29G23G18
  22013308.494   -18206014.28749 -14159625.35247  22013308.104    22013314.946
       233.000         195.000
  23277314.730    -8096099.40049  -5994949.74545  23277315.190    23277321.818
       217.000         155.000
  24077876.091    -9260538.45849  -7189053.31645  24077876.113    24077885.020
       212.000         150.000
  23914271.128    -7623701.93349  -5917170.84545  23914270.225    23914279.211
       210.000         152.000
  22090260.789   -15338872.42249 -11294606.73546  22090260.361    22090266.337
       229.000         186.000
  21628201.025   -20800549.20849 -16156396.07747  21628201.518    21628207.552
       234.000         194.000
  20492733.234   -26974323.01249 -20976045.55648  20492733.176    20492738.773
       244.000         215.000
  23366356.731    -9153008.99249  -7115819.59145  23366356.458    23366363.664
       213.000         158.000
  20850994.656   -22107910.28249 -16532714.17047  20850994.247    20851000.718
       244.000         212.000
  24179107.373    -5520923.40449  -3940075.37645  24179107.092    24179115.473
       207.000         143.000
 03  1 13  2  2  0.0000000  0 10G17G26G 5G15G10G30G 6G29G23G18
  22004493.634   -18252336.44849 -14195720.47047  22004493.216    22004500.075
       234.000         195.000
  23261328.807    -8180105.52349  -6060408.89845  23261327.828    23261336.142
       214.000         156.000
  24098093.327    -9154296.55749  -7106267.45645  24098093.187    24098101.400
       211.000         150.000
  23899790.714    -7699796.18649  -5976464.96445  23899790.309    23899799.164
       210.000         151.000
  22105784.162   -15257296.38349 -11231040.97946  22105783.495    22105790.071
       229.000         185.000
  21643250.805   -20721462.04149 -16094769.71547  21643251.459    21643257.347
       234.000         194.000
  20486832.494   -27005331.50349 -21000207.97948  20486832.331    20486837.962
       244.000         215.000
  23355934.380    -9207778.12949  -7158496.73945  23355934.593    23355941.865
       213.000         159.000
  20842995.423   -22149946.40349 -16565469.52747  20842994.885    20843001.496
       244.000         212.000
  24158595.761    -5628711.57749  -4024065.93845  24158595.173    24158603.530
       210.000         142.000
 03  1 13  2  2 30.0000000  0 10G17G26G 5G15G10G30G 6G29G23G18
  21995712.795   -18298479.99349 -14231676.40847  21995712.235    21995719.405
       234.000         195.000
  23245382.640    -8263902.62249  -6125705.19345  23245382.736    23245390.211
       215.000         157.000
  24118312.444    -9048044.45549  -7023473.67445  24118312.480    24118320.222
       210.000         149.000
  23885334.526    -7775763.16749  -6035659.90445  23885333.538    23885343.443
       211.000         151.000
  22121375.989   -15175360.57249 -11167194.87746  22121375.161    22121381.832
       229.000         185.000
  21658369.468   -20642012.88549 -16032861.28547  21658369.753    21658375.870
       235.000         193.000
  20480996.232   -27036001.04249 -21024106.28648  20480996.091    20481001.674
       244.000         215.000
  23345574.346    -9262220.21749  -7200919.04545  23345573.706    23345581.559
       214.000         159.000
  20835091.454   -22191481.72349 -16597834.64847  20835090.977    20835097.506
       245.000         212.000
  24138107.617    -5736377.19749  -4107961.01245  24138108.495    24138115.740
       209.000         144.000
 03  1 13  2  3  0.0000000  0 10G17G26G 5G15G10G30G 6G29G23G18
  21986965.562   -18344446.76949 -14267494.60147  21986964.891    21986971.814
       233.000         195.000
  23229476.663    -8347488.15849  -6190836.60845  23229476.858    23229484.249
       217.000         157.000
  24138532.913    -8941785.73249  -6940674.70545  24138532.552    24138541.569
       211.000         150.000
  23870902.469    -7851603.82149  -6094756.43145  23870900.929    23870910.110
       210.000         151.000
  22137035.563   -15093068.61549 -11103071.25546  22137034.430    22137041.458
       229.000         184.000
  21673556.302   -20562205.59349 -15970673.78147  21673556.789    21673562.718
       234.000         193.000
  20475224.627   -27066330.82249 -21047739.84548  20475224.517    20475230.272
       243.000         215.000
  23335276.787    -9316333.95449  -7243085.48845  23335276.614    23335284.545
       214.000         160.000
  20827282.776   -22232516.49549 -16629809.73048  20827282.432    20827288.828
       244.000         213.000
  24117642.781    -5843919.38749  -4191759.91145  24117642.384    24117650.876
       207.000         143.000
 03  1 13  2  3 30.0000000  0 10G17G26G 5G15G10G30G 6G29G23G18
  21978252.039   -18390236.19549 -14303174.60147  21978251.543    21978258.373
       236.000         196.000
  23213611.863    -8430857.86649  -6255799.86845  23213612.470    23213618.716
       218.000         157.000
  24158754.039    -8835522.47549  -6857872.22445  24158753.313    24158763.699
       208.000         148.000
  23856494.525    -7927317.71449  -6153754.16545  23856493.263    23856502.559
       211.000         152.000
  22152762.541   -15010422.86849 -11038671.95646  22152761.692    22152768.415
       231.000         184.000
  21688810.886   -20482042.30349 -15908208.87547  21688811.398    21688817.713
       236.000         193.000
  20469518.119   -27096318.51949 -21071106.84748  20469517.878    20469523.540
       246.000         215.000
  23325042.382    -9370115.79049  -7284993.30545  23325042.569    23325049.056
       216.000         161.000
  20819569.568   -22273049.35349 -16661393.71348  20819569.012    20819575.448
       247.000         213.000
  24097202.139    -5951334.98549  -4275460.19745  24097201.125    24097210.044
       208.000         144.000
 03  1 13  2  4  0.0000000  0 10G17G26G 5G15G10G30G 6G29G23G18
  21969572.254   -18435848.51249 -14338716.59847  21969571.862    21969578.544
       236.000         196.000
  23197788.715    -8514008.43249  -6320592.38845  23197789.155    23197795.759
       219.000         158.000
  24178975.868    -8729257.09149  -6775068.05845  24178974.794    24178984.235
       210.000         148.000
  23842110.772    -8002904.54149  -6212652.88345  23842110.840    23842119.957
       214.000         152.000
  22168556.297   -14927426.00049 -10973999.05446  22168555.538    22168562.460
       232.000         184.000
  21704132.686   -20401525.87049 -15845468.80047  21704133.101    21704139.000
       236.000         193.000
  20463877.052   -27125962.51649 -21094206.03348  20463876.743    20463882.643
       246.000         215.000
  23314871.574    -9423563.18049  -7326640.52345  23314871.960    23314878.360
       217.000         161.000
  20811952.004   -22313079.71049 -16692586.13948  20811951.376    20811957.995
       247.000         213.000
  24076785.833    -6058621.91449  -4359060.17445  24076785.738    24076793.887
       209.000         143.000
 03  1 13  2  4 30.0000000  0 10G17G26G 5G15G10G30G 6G29G23G18
  21960925.956   -18481284.84149 -14374121.45847  21960925.488    21960932.208
       236.000         196.000
  23182007.842    -8596936.86649  -6385211.79745  23182008.200    23182014.705
       218.000         158.000
  24199197.208    -8622992.74649  -6692264.76345  24199196.035    24199206.998
       209.000         147.000
  23827751.061    -8078365.13649  -6271453.23945  23827750.631    23827759.451
       214.000         153.000
  22184416.196   -14844081.61749 -10909055.36046  22184415.489    22184422.438
       231.000         183.000
  21719520.976   -20320659.89049 -15782456.34647  21719521.208    21719527.636
       236.000         193.000
  20458301.556   -27155261.84749 -21117036.64448  20458301.443    20458306.988
       246.000         215.000
  23304764.816    -9476674.18649  -7368025.61545  23304764.787    23304771.543
       216.000         161.000
  20804430.048   -22352607.65549 -16723387.07548  20804429.763    20804436.057
       247.000         213.000
  24056394.510    -6165778.59449  -4442558.69645  24056394.665    24056403.082
       212.000         145.000
 03  1 13  2  5  0.0000000  0 10G17G26G 5G15G10G30G 6G29G23G18
  21952313.368   -18526543.98649 -14409388.25847  21952313.020    21952319.476
       235.000         196.000
  23166270.278    -8679637.97649  -6449654.08745  23166270.175    23166277.406
       218.000         157.000
  24219418.272    -8516730.48049  -6609463.00445  24219415.957    24219426.685
       202.000         146.000
  23813415.601    -8153697.83649  -6330153.93945  23813414.646    23813423.190
       214.000         152.000
  22200342.045   -14760390.66649 -10843841.61646  22200341.543    22200348.496
       229.000         183.000
  21734975.502   -20239445.64849 -15719172.53047  21734975.839    21734982.077
       235.000         193.000
  20452792.327   -27184212.96349 -21139595.92848  20452792.366    20452797.838
       244.000         215.000
  23294722.904    -9529444.41749  -7409145.17245  23294722.309    23294729.398
       215.000         161.000
  20797004.178   -22391630.68849 -16753794.57448  20797003.784    20797010.103
       246.000         213.000
  24036028.508    -6272801.55549  -4525953.02245  24036026.555    24036036.818
       210.000         144.000
 03  1 13  2  5 30.0000000  0 10G17G26G 5G15G10G30G 6G29G23G18
  21943734.240   -18571627.30749 -14444518.04847  21943733.649    21943740.367
       234.000         196.000
  23150576.430    -8762109.18749  -6513917.24345  23150576.969    23150583.016
       218.000         158.000
  24239638.082    -8410473.82749  -6526665.71545  24239639.447    24239647.363
       211.000         147.000
  23799104.319    -8228903.53149  -6388755.66345  23799103.004    23799112.367
       211.000         152.000
  22216333.062   -14676357.17149 -10778360.95246  22216332.743    22216338.747
       228.000         182.000
  21750495.687   -20157886.70549 -15655620.10647  21750496.065    21750502.300
       235.000         192.000
  20447349.470   -27212815.16949 -21161883.32648  20447349.365    20447354.944
       244.000         215.000
  23284746.139    -9581872.33649  -7449997.98945  23284745.606    23284753.651
       213.000         162.000
  20789674.374   -22430149.00549 -16783808.78448  20789673.798    20789680.371
       245.000         213.000
  24015688.408    -6379689.29649  -4609241.98845  24015686.806    24015694.681
       210.000         145.000
 03  1 13  2  6  0.0000000  0 10G17G26G 5G15G10G30G 6G29G23G18
  21935188.380   -18616535.65349 -14479511.49547  21935187.676    21935194.841
       234.000         195.000
  23134926.842    -8844347.82549  -6577999.17145  23134926.514    23134934.637
       216.000         158.000
  24259856.618    -8304226.10049  -6443875.28745  24259855.711    24259867.087
       203.000         146.000
  23784817.148    -8303983.04349  -6447259.07245  23784816.874    23784825.890
       214.000         153.000
  22232388.577   -14591984.66149 -10712616.10646  22232387.978    22232394.297
       229.000         182.000
  21766080.686   -20075986.94049 -15591802.09847  21766080.896    21766087.359
       235.000         192.000
  20441973.184   -27241067.71449 -21183898.25548  20441972.947    20441978.470
       244.000         215.000
  23274834.842    -9633956.07549  -7490582.61645  23274835.367    23274840.896
       215.000         162.000
  20782440.484   -22468163.01449 -16813430.02748  20782439.956    20782446.417
       246.000         213.000
  23995374.115    -6486440.72749  -4692424.72345  23995374.008    23995381.781
       216.000         147.000
 03  1 13  2  6 30.0000000  0 10G17G26G 5G15G10G30G 6G29G23G18
  21926675.963   -18661268.40549 -14514368.12047  21926675.189    21926682.453
       233.000         195.000
  23119322.316    -8926349.58449  -6641896.52345  23119321.477    23119329.199
       217.000         158.000
  24280072.787    -8197989.03749  -6361093.21545  24280074.224    24280081.605
       207.000         146.000
  23770554.152    -8378935.53549  -6505663.50245  23770553.168    23770561.962
       212.000         153.000
  22248508.318   -14507274.88149 -10646608.47646  22248507.489    22248514.409
       229.000         182.000
  21781730.179   -19993748.22649 -15527719.98547  21781730.422    21781736.660
       233.000         192.000
  20436663.914   -27268967.89549 -21205638.62748  20436663.802    20436669.318
       244.000         215.000
  23264989.676    -9685692.10849  -7530896.30945  23264989.403    23264995.762
       215.000         162.000
  20775302.890   -22505671.18149 -16842657.11548  20775302.317    20775308.814
       245.000         213.000
  23975086.400    -6593052.84849  -4775498.93145  23975085.134    23975093.310
       212.000         147.000
 03  1 13  2  7  0.0000000  0 10G17G26G 5G15G10G30G 6G29G23G18
  21918196.897   -18705825.73449 -14549088.05447  21918196.219    21918203.048
       234.000         195.000
  23103763.646    -9008110.41049  -6705606.14045  23103763.148    23103771.038
       217.000         159.000
  24300286.588    -8091764.77849  -6278321.15345  24300286.292    24300296.435
       207.000         146.000
  23756315.345    -8453760.50249  -6563968.55045  23756314.885    23756323.464
       214.000         153.000
  22264691.724   -14422230.31049 -10580339.96146  22264690.615    22264697.713
       229.000         182.000
  21797443.658   -19911173.12549 -15463375.75347  21797443.894    21797450.430
       234.000         192.000
  20431422.122   -27296513.58249 -21227102.76848  20431421.871    20431427.459
       243.000         215.000
  23255211.253    -9737077.47349  -7570936.75646  23255211.402    23255217.762
       216.000         163.000
  20768261.722   -22542672.35449 -16871489.14148  20768261.182    20768267.553
       245.000         213.000
  23954825.582    -6699523.16049  -4858462.65345  23954824.920    23954833.531
       212.000         148.000
 03  1 13  2  7 30.0000000  0 10G17G26G 5G15G10G30G 6G29G23G18
  21909750.994   -18750208.97949 -14583672.33447  21909750.615    21909757.359
       233.000         195.000
  23088251.308    -9089627.76849  -6769126.03145  23088250.267    23088258.074
       216.000         159.000
  24320497.481    -7985556.94449  -6195561.83045  24320497.490    24320506.542
       205.000         146.000
  23742100.595    -8528458.77449  -6622174.88845  23742100.256    23742108.178
       213.000         154.000
  22280938.159   -14336854.56749 -10513813.38946  22280937.568    22280943.788
       228.000         182.000
  21813220.491   -19828265.27849 -15398772.22747  21813220.891    21813227.293
       232.000         191.000
  20426247.913   -27323703.97549 -21248290.05448  20426247.693    20426253.377
       243.000         215.000
  23245499.967    -9788110.40549  -7610702.58046  23245499.835    23245506.203
       215.000         164.000
  20761317.011   -22579166.94349 -16899926.42548  20761316.520    20761322.741
       245.000         213.000
  23934592.076    -6805850.16549  -4941314.68345  23934591.147    23934599.121
       214.000         148.000
 03  1 13  2  8  0.0000000  0 10G17G26G 5G15G10G30G 6G29G23G18
  21901338.092   -18794418.61049 -14618121.32647  21901337.749    21901344.280
       234.000         196.000
  23072785.862    -9170898.47349  -6832453.73545  23072785.653    23072792.016
       217.000         160.000
  24340704.637    -7879368.06349  -6112817.31245  24340705.240    24340713.822
       207.000         145.000
  23727910.008    -8603030.68149  -6680282.76045  23727909.790    23727917.951
       214.000         154.000
  22297246.981   -14251151.08249 -10447031.43746  22297246.068    22297252.999
       229.000         182.000
  21829060.016   -19745028.02149 -15333912.02847  21829060.156    21829066.651
       233.000         191.000
  20421141.579   -27350537.90949 -21269199.57948  20421141.358    20421146.964
       243.000         215.000
  23235856.120    -9838788.67849  -7650192.03746  23235855.752    23235862.187
       216.000         164.000
  20754468.670   -22615154.85849 -16927968.90048  20754468.241    20754474.409
       244.000         213.000
  23914386.249    -6912032.17949  -5024053.72945  23914384.836    23914393.656
       214.000         149.000
 03  1 13  2  8 30.0000000  0 10G17G26G 5G15G10G30G 6G29G23G18
  21892958.407   -18838454.09649 -14652434.61847  21892957.561    21892964.710
       235.000         196.000
  23057368.146    -9251918.54749  -6895586.12745  23057367.776    23057375.661
       217.000         160.000
  24360907.691    -7773200.42049  -6030089.33145  24360907.954    24360916.504
       207.000         147.000
  23713743.529    -8677475.48449  -6738291.57845  23713742.708    23713752.242
       217.000         155.000
  22313617.733   -14165122.22549 -10379995.93846  22313616.864    22313623.264
       230.000         182.000
  21844961.783   -19661463.69549 -15268796.95147  21844961.688    21844968.067
       234.000         191.000
  20416103.510   -27377012.92349 -21289829.41548  20416103.076    20416108.839
       244.000         215.000
  23226280.350    -9889109.32149  -7689402.83446  23226280.351    23226286.412
       216.000         164.000
  20747716.998   -22650634.90449 -16955615.62248  20747716.165    20747722.577
       245.000         213.000
  23894208.547    -7018066.44449  -5106677.66545  23894207.964    23894214.700
       214.000         148.000
 03  1 13  2  9  0.0000000  0 10G17G26G 5G15G10G30G 6G29G23G18
  21884611.831   -18882315.41349 -14686612.21447  21884611.369    21884617.725
       235.000         197.000
  23041999.035    -9332683.21349  -6958519.51545  23041999.246    23042006.088
       217.000         160.000
  24381106.438    -7667055.31149  -5947378.89745  24381105.662    24381115.108
       206.000         145.000
  23699601.386    -8751792.18049  -6796200.58345  23699600.748    23699608.667
       213.000         156.000
  22330050.075   -14078769.56749 -10312708.15246  22330049.329    22330055.265
       229.000         182.000
  21860925.455   -19577574.13349 -15203428.47647  21860926.296    21860931.671
       233.000         191.000
  20411134.263   -27403126.35349 -21310177.52048  20411134.076    20411139.571
       243.000         215.000
  23216773.378    -9939068.60249  -7728332.06046  23216773.332    23216779.354
       216.000         165.000
  20741062.238   -22685605.71949 -16982865.56748  20741062.002    20741067.956
       244.000         213.000
  23874059.372    -7123949.96149  -5189184.09145  23874059.123    23874067.667
       217.000         150.000
 03  1 13  2  9 30.0000000  0 10G17G26G 5G15G10G30G 6G29G23G18
  21876298.162   -18926003.93649 -14720655.15447  21876297.554    21876304.415
       235.000         197.000
  23026678.952    -9413190.31449  -7021252.19945  23026679.102    23026686.005
       218.000         160.000
  24401299.969    -7560936.69349  -5864689.13945  24401299.742    24401309.392
       207.000         146.000
  23685483.514    -8825981.86349  -6854010.61445  23685482.322    23685491.713
       215.000         156.000
  22346543.240   -13992097.41849 -10245171.38646  22346542.620    22346549.333
       229.000         182.000
  21876950.186   -19493363.44349 -15137809.75047  21876950.472    21876957.130
       232.000         190.000
  20406233.874   -27428877.94049 -21330243.65248  20406233.848    20406239.297
       243.000         215.000
  23207335.392    -9988665.23349  -7766978.69046  23207335.626    23207341.517
       217.000         166.000
  20734504.255   -22720067.95449 -17009719.20048  20734503.832    20734509.922
       245.000         213.000
  23853939.169    -7229681.95049  -5271572.47545  23853937.083    23853945.256
       215.000         148.000
 03  1 13  2 10  0.0000000  0 10G17G26G 5G15G10G30G 6G29G23G18
  21868017.291   -18969519.91349 -14754563.64447  21868016.717    21868023.139
       236.000         197.000
  23011408.613    -9493436.03149  -7083781.20945  23011408.393    23011415.817
       218.000         159.000
  24421488.469    -7454846.62649  -5782021.58345  24421488.755    24421496.988
       201.000         146.000
  23671389.876    -8900044.39449  -6911721.55645  23671389.498    23671398.021
       214.000         157.000
  22363096.753   -13905108.05049 -10177387.44546  22363096.291    22363102.395
       229.000         181.000
  21893035.555   -19408834.26349 -15071942.85147  21893035.837    21893042.551
       232.000         190.000
  20401402.728   -27454265.67049 -21350026.26448  20401402.663    20401408.110
       244.000         215.000
  23197967.006   -10037896.28049  -7805340.45246  23197966.902    23197973.420
       217.000         166.000
  20728043.210   -22754020.71449 -17036175.84048  20728042.795    20728048.822
       245.000         214.000
  23833848.262    -7335259.60049  -5353840.55245  23833848.230    23833855.339
       216.000         151.000
 03  1 13  2 10 30.0000000  0 10G17G26G 5G15G10G30G 6G29G23G18
  21859769.390   -19012863.00349 -14788337.42347  21859768.707    21859775.342
       235.000         197.000
  22996188.760    -9573416.64549  -7146103.63945  22996187.990    22996194.836
       217.000         160.000
  24441670.816    -7348787.35149  -5699378.04945  24441669.854    24441680.054
       209.000         145.000
  23657320.344    -8973979.75249  -6969333.41245  23657319.668    23657328.075
       216.000         157.000
  22379710.106   -13817804.20549 -10109358.46246  22379709.529    22379716.067
       228.000         181.000
  21909181.005   -19323989.29749 -15005829.89347  21909181.669    21909187.672
       232.000         189.000
  20396641.153   -27479287.71849 -21369523.93148  20396641.089    20396646.506
       243.000         215.000
  23188668.678   -10086759.18749  -7843415.35446  23188668.809    23188675.442
       219.000         167.000
  20721679.243   -22787463.38049 -17062235.01048  20721678.890    20721684.944
       243.000         214.000
  23813787.174    -7440680.81649  -5435986.76445  23813787.348    23813793.124
       220.000         151.000
 03  1 13  2 11  0.0000000  0 10G17G26G 5G15G10G30G 6G29G23G18
  21851554.082   -19056034.49349 -14821977.47647  21851553.464    21851559.754
       235.000         197.000
  22981019.819    -9653129.15149  -7208217.15545  22981020.351    22981026.403
       218.000         160.000
  24461846.824    -7242761.87449  -5616760.86045  24461846.216    24461855.696
       206.000         147.000
  23643274.972    -9047788.29949  -7026846.45645  23643274.062    23643283.059
       216.000         158.000
  22396382.703   -13730189.14449 -10041086.97146  22396382.307    22396388.889
       230.000         181.000
  21925385.857   -19238832.09449 -14939473.62347  21925385.751    21925392.251
       231.000         189.000
  20391949.410   -27503942.76549 -21388735.62148  20391949.337    20391954.663
       244.000         215.000
  23179440.822   -10135251.79549  -7881201.71246  23179440.297    23179447.021
       218.000         168.000
  20715412.317   -22820396.04549 -17087896.77148  20715411.759    20715418.098
       244.000         214.000
  23793756.129    -7545943.73949  -5518009.55945  23793755.576    23793763.287
       218.000         151.000
 03  1 13  2 11 30.0000000  0 10G17G26G 5G15G10G30G 6G29G23G18
  21843371.542   -19099033.69049 -14855483.28747  21843370.869    21843377.436
       235.000         197.000
  22965902.816    -9732569.18849  -7270118.34345  22965902.447    22965910.203
       218.000         161.000
  24482016.025    -7136771.93649  -5534171.34545  24482016.373    24482023.922
       208.000         146.000
  23629253.862    -9121469.38749  -7084260.18245  23629252.949    23629261.360
       215.000         159.000
  22413114.136   -13642264.80649  -9972574.47346  22413112.975    22413119.892
       228.000         181.000
  21941649.769   -19153364.60849 -14872875.57847  21941650.092    21941656.525
       231.000         189.000
  20387327.988   -27528228.35649 -21407659.42448  20387327.827    20387333.222
       243.000         215.000
  23170283.981   -10183370.97449  -7918697.08746  23170283.766    23170290.523
       218.000         168.000
  20709242.672   -22852817.57949 -17113160.24948  20709242.330    20709248.258
       243.000         214.000
  23773755.784    -7651045.65549  -5599906.98045  23773754.442    23773763.489
       217.000         152.000
 03  1 13  2 12  0.0000000  0 10G17G26G 5G15G10G30G 6G29G23G18
  21835221.661   -19141861.27049 -14888855.36647  21835221.011    21835227.641
       235.000         197.000
  22950838.161    -9811733.86749  -7331804.99445  22950837.906    22950844.976
       218.000         162.000
  24502178.066    -7030820.54549  -5451611.83845  24502177.805    24502188.411
       203.000         146.000
  23615256.855    -9195023.55349  -7141575.00145  23615255.849    23615265.090
       217.000         159.000
  22429903.765   -13554034.53849  -9903823.60146  22429903.061    22429909.877
       227.000         181.000
  21957972.036   -19067590.44849 -14806038.57147  21957972.412    21957978.342
       232.000         189.000
  20382777.089   -27552143.49049 -21426294.56048  20382776.977    20382782.498
       244.000         215.000
  23161198.579   -10231114.71249  -7955899.90646  23161198.616    23161204.964
       218.000         168.000
  20703170.251   -22884728.08149 -17138025.52248  20703169.854    20703175.940
       244.000         214.000
  23753786.338    -7755985.04149  -5681677.71145  23753787.125    23753793.307
       220.000         154.000
 03  1 13  2 12 30.0000000  0 10G17G26G 5G15G10G30G 6G29G23G18
  21827104.357   -19184517.58049 -14922093.98547  21827103.860    21827110.546
       235.000         197.000
  22935826.648    -9890619.33649  -7393274.05545  22935826.817    22935834.028
       218.000         162.000
  24522332.081    -6924909.77949  -5369084.08245  24522332.313    24522341.313
       210.000         148.000
  23601284.173    -9268450.20649  -7198790.46845  23601283.302    23601292.432
       218.000         160.000
  22446751.120   -13465501.04849  -9834836.44746  22446750.408    22446757.615
       229.000         180.000
  21974352.206   -18981512.18149 -14738964.59547  21974352.442    21974358.976
       231.000         189.000
  20378296.985   -27575686.25049 -21444639.53448  20378296.879    20378302.387
       243.000         215.000
  23152185.164   -10278480.11949  -7992807.92146  23152184.876    23152191.126
       219.000         168.000
  20697195.230   -22916126.81549 -17162492.01648  20697194.780    20697200.940
       244.000         214.000
  23733848.237    -7860759.43949  -5763319.83545  23733848.049    23733856.630
       217.000         153.000
 03  1 13  2 13  0.0000000  0 10G17G26G 5G15G10G30G 6G29G23G18
  21819019.531   -19227003.45649 -14955199.79847  21819019.267    21819025.504
       235.000         197.000
  22920868.857    -9969222.64149  -7454523.26845  22920869.003    22920875.537
       218.000         162.000
  24542478.066    -6819042.87249  -5286590.37345  24542477.376    24542486.308
       206.000         145.000
  23587335.624    -9341750.07149  -7255907.14445  23587335.487    23587343.156
       217.000         160.000
  22463655.547   -13376667.40749  -9765615.41146  22463654.536    22463661.547
       227.000         180.000
  21990789.542   -18895133.23049 -14671656.32147  21990789.913    21990796.417
       231.000         188.000
  20373887.978   -27598855.49749 -21462693.46248  20373887.921    20373893.359
       243.000         215.000
  23143244.126   -10325465.29849  -8029419.66946  23143244.465    23143250.511
       219.000         169.000
  20691317.568   -22947013.97149 -17186559.87848  20691317.169    20691323.209
       243.000         214.000
  23713941.984    -7965366.98849  -5844832.00445  23713940.900    23713947.283
       215.000         152.000
 03  1 13  2 13 30.0000000  0 10G17G26G 5G15G10G30G 6G29G23G18
  21810967.034   -19269319.21949 -14988173.04947  21810966.422    21810972.858
       236.000         197.000
  22905965.337   -10047540.49849  -7515550.04645  22905964.761    22905972.932
       217.000         161.000
  24562614.977    -6713222.43849  -5204133.02145  24562614.256    24562625.365
       211.000         147.000
  23573411.155    -9414923.28249  -7312925.11545  23573410.607    23573418.800
       217.000         160.000
  22480616.485   -13287536.98949  -9696163.11746  22480615.294    22480622.706
       226.000         180.000
  22007283.494   -18808456.86949 -14604116.28447  22007283.774    22007290.207
       232.000         188.000
  20369550.342   -27621649.79949 -21480455.22048  20369550.044    20369555.735
       244.000         215.000
  23134375.766   -10372068.23549  -8065733.55146  23134375.345    23134381.619
       220.000         168.000
  20685537.241   -22977389.51749 -17210229.07448  20685536.541    20685542.719
       244.000         214.000
  23694067.647    -8069806.29749  -5926213.02445  23694065.919    23694075.346
       215.000         154.000
 03  1 13  2 14  0.0000000  0 10G17G26G 5G15G10G30G 6G29G23G18
  21802947.168   -19311463.64649 -15021012.80747  21802946.764    21802953.107
       236.000         197.000
  22891117.118   -10125567.79149  -7576350.43645  22891116.940    22891123.297
       218.000         162.000
  24582743.100    -6607449.27249  -5121712.42545  24582742.531    24582749.766
       209.000         144.000
  23559511.142    -9487967.95749  -7369842.93345  23559509.921    23559518.575
       217.000         161.000
  22497633.697   -13198110.81749  -9626480.37846  22497632.683    22497639.672
       229.000         179.000
  22023833.794   -18721484.34749 -14536345.49847  22023834.507    22023840.801
       231.000         188.000
  20365284.666   -27644065.90449 -21497922.29048  20365284.627    20365290.118
       244.000         215.000
  23125581.009   -10418284.63349  -8101746.22946  23125580.274    23125586.962
       220.000         168.000
  20679854.655   -23007251.42449 -17233498.04548  20679854.185    20679860.288
       245.000         214.000
  23674226.103    -8174073.26149  -6007459.79645  23674225.535    23674230.004
       219.000         153.000
 03  1 13  2 14 30.0000000  0 10G17G26G 5G15G10G30G 6G29G23G18
  21794959.510   -19353438.84649 -15053720.69447  21794959.094    21794965.436
       235.000         197.000
  22876324.619   -10203302.37549  -7636922.71945  22876325.180    22876331.704
       217.000         161.000
  24602861.297    -6501727.08549  -5039331.52145  24602861.813    24602870.718
       213.000         144.000
  23545635.265    -9560885.55249  -7426661.72545  23545633.997    23545642.300
       217.000         161.000
  22514706.389   -13108393.18249  -9556570.51646  22514705.234    22514712.386
       226.000         179.000
  22040439.691   -18634219.89249 -14468347.21947  22040440.491    22040446.518
       231.000         188.000
  20361091.013   -27666103.58149 -21515094.48248  20361090.920    20361096.377
       243.000         215.000
  23116859.941   -10464113.50049  -8137456.94046  23116859.641    23116866.039
       219.000         168.000
  20674269.586   -23036600.91449 -17256367.72948  20674269.111    20674275.287
       244.000         214.000
  23654417.427    -8278167.51649  -6088571.90845  23654416.868    23654423.579
       217.000         155.000
 03  1 13  2 15  0.0000000  0 10G17G26G 5G15G10G30G 6G29G23G18
  21787004.190   -19395244.02949 -15086296.09947  21787003.891    21787010.468
       236.000         197.000
  22861588.677   -10280739.97449  -7697263.59545  22861587.712    22861594.999
       216.000         162.000
  24622969.704    -6396057.67949  -4956991.77745  24622970.003    24622979.321
       210.000         149.000
  23531783.735    -9633675.39849  -7483380.98345  23531782.956    23531791.566
       216.000         161.000
  22531834.146   -13018386.04449  -9486435.07246  22531833.786    22531839.928
       227.000         178.000
  22057100.705   -18546665.81049 -14400123.25447  22057101.067    22057107.232
       232.000         188.000
  20356969.831   -27687760.45849 -21531969.94148  20356969.793    20356975.163
       244.000         215.000
  23108213.215   -10509551.69149  -8172863.22946  23108213.087    23108218.362
       220.000         168.000
  20668782.231   -23065436.99649 -17278837.35048  20668781.680    20668787.867
       244.000         214.000
  23634642.164    -8382086.48349  -6169547.54545  23634641.448    23634649.492
       216.000         153.000
 03  1 13  2 15 30.0000000  0 10G17G26G 5G15G10G30G 6G29G23G18
  21779080.872   -19436881.11049 -15118740.51047  21779080.107    21779086.659
       237.000         198.000
  22846909.521   -10357878.65949  -7757371.53945  22846908.374    22846916.270
       219.000         162.000
  24643067.055    -6290444.84349  -4874696.19845  24643065.451    24643075.826
       207.000         141.000
  23517956.263    -9706339.15649  -7540001.96845  23517955.388    23517963.899
       219.000         162.000
  22549016.219   -12928093.60749  -9416077.30446  22549014.652    22549022.238
       228.000         178.000
  22073815.935   -18458826.69049 -14331677.17846  22073815.965    22073822.149
       232.000         187.000
  20352921.129   -27709036.34249 -21548548.52048  20352920.916    20352926.480
       245.000         215.000
  23099641.088   -10554598.21449  -8207964.31846  23099640.642    23099647.139
       221.000         169.000
  20663392.308   -23093760.91549 -17300907.87548  20663391.712    20663397.740
       246.000         214.000
  23614900.472    -8485828.97249  -6250385.63045  23614899.725    23614905.739
       216.000         156.000
 03  1 13  2 16  0.0000000  0 10G17G26G 5G15G10G30G 6G29G23G18
  21771189.880   -19478348.26549 -15151052.52647  21771189.329    21771195.691
       236.000         198.000
  22832288.282   -10434713.19449  -7817242.49246  22832287.946    22832295.050
       218.000         163.000
  24663153.664    -6184889.42249  -4792445.18045  24663153.224    24663161.750
       212.000         142.000
  23504152.967    -9778875.11549  -7596523.36845  23504152.104    23504161.115
       218.000         162.000
  22566252.389   -12837516.87449  -9345498.03246  22566251.999    22566258.036
       226.000         177.000
  22090585.245   -18370703.42649 -14263009.71346  22090585.996    22090591.555
       231.000         187.000
  20348945.603   -27729927.84349 -21564827.60148  20348945.608    20348951.021
       243.000         215.000
  23091144.275   -10599248.88749  -8242756.96446  23091144.134    23091150.252
       219.000         169.000
  20658100.281   -23121570.49349 -17322577.63848  20658099.895    20658105.942
       244.000         214.000
  23595193.145    -8589390.78649  -6331082.93245  23595190.859    23595199.663
       216.000         156.000
 03  1 13  2 16 30.0000000  0 10G17G26G 5G15G10G30G 6G29G23G18
  21763330.863   -19519647.50149 -15183233.68647  21763330.510    21763336.778
       235.000         198.000
  22817725.418   -10511241.27249  -7876874.65846  22817725.228    22817731.850
       217.000         163.000
  24683228.664    -6079394.96749  -4710241.78245  24683227.597    24683239.503
       205.000         144.000
  23490373.819    -9851284.38849  -7652946.06146  23490373.373    23490380.788
       219.000         163.000
  22583541.875   -12746659.94849  -9274700.40246  22583541.000    22583547.505
       226.000         177.000
  22107407.814   -18282300.39849 -14194124.22346  22107408.010    22107414.138
       230.000         187.000
  20345043.285   -27750434.66449 -21580806.91848  20345043.360    20345048.665
       244.000         215.000
  23082722.986   -10643502.70549  -8277240.36646  23082722.694    23082728.872
       220.000         169.000
  20652905.899   -23148866.96449 -17343847.56048  20652905.481    20652911.596
       243.000         214.000
  23575520.236    -8692771.36949  -6411639.03545  23575519.677    23575525.690
       217.000         154.000
 03  1 13  2 17  0.0000000  0 10G17G26G 5G15G10G30G 6G29G23G18
  21755503.764   -19560778.81249 -15215283.99547  21755503.079    21755509.459
       236.000         198.000
  22803221.544   -10587458.99949  -7936264.98746  22803221.089    22803228.204
       218.000         163.000
  24703291.515    -5973963.56049  -4628087.56145  24703290.278    24703301.708
       207.000         143.000
  23476619.001    -9923566.49949  -7709269.66746  23476617.516    23476626.651
       217.000         163.000
  22600884.209   -12655525.48249  -9203686.51046  22600883.934    22600889.471
       225.000         176.000
  22124283.108   -18193620.17949 -14125022.75746  22124283.207    22124289.687
       231.000         186.000
  20341214.523   -27770554.82449 -21596484.93848  20341214.350    20341219.886
       244.000         215.000
  23074377.769   -10687356.74149  -8311412.24346  23074377.401    23074383.764
       219.000         169.000
  20647809.292   -23175649.69949 -17364717.16748  20647808.829    20647814.834
       245.000         214.000
  23555882.292    -8795968.45549  -6492052.11445  23555881.952    23555888.990
       216.000         156.000
 03  1 13  2 17 30.0000000  0 10G17G26G 5G15G10G30G 6G29G23G18
  21747708.666   -19601742.10749 -15247203.39147  21747708.085    21747714.206
       235.000         198.000
  22788777.443   -10663362.67149  -7995410.60246  22788778.227    22788784.319
       218.000         163.000
  24723341.928    -5868597.53649  -4545984.21245  24723340.877    24723349.572
       211.000         140.000
  23462888.277    -9995721.26249  -7765494.03146  23462887.501    23462895.505
       218.000         163.000
  22618278.818   -12564115.96749  -9132458.30746  22618278.282    22618284.501
       224.000         176.000
  22141210.605   -18104665.52349 -14055707.44246  22141210.839    22141217.421
       229.000         186.000
  20337459.663   -27790286.65549 -21611860.37348  20337459.600    20337464.938
       243.000         215.000
  23066109.026   -10730808.58349  -8345270.73546  23066108.765    23066114.727
       220.000         169.000
  20642810.528   -23201918.25749 -17385186.12548  20642810.120    20642816.099
       244.000         215.000
  23536279.775    -8898979.75049  -6572320.52545  23536279.932    23536286.483
       216.000         155.000
 03  1 13  2 18  0.0000000  0 10G17G26G 5G15G10G30G 6G29G23G18
  21739945.419   -19642538.15549 -15278992.46147  21739944.570    21739951.414
       236.000         198.000
  22774393.664   -10738949.24849  -8054309.12446  22774393.316    22774400.168
       218.000         163.000
  24743379.616    -5763299.58749  -4463933.81945  24743377.716    24743390.303
       205.000         139.000
  23449181.748   -10067749.06149  -7821619.46546  23449181.499    23449189.392
       220.000         163.000
  22635725.270   -12472434.15349  -9061017.91246  22635724.674    22635730.459
       224.000         175.000
  22158189.714   -18015439.67249 -13986180.80746  22158189.974    22158196.314
       230.000         186.000
  20333778.978   -27809628.89249 -21626932.22248  20333779.018    20333784.267
       244.000         215.000
  23057917.318   -10773856.11449  -8378814.17346  23057917.086    23057923.398
       220.000         169.000
  20637909.550   -23227672.89449 -17405254.62148  20637909.143    20637915.068
       244.000         215.000
  23516712.837    -9001803.54549  -6652442.76245  23516712.029    23516719.172
       217.000         157.000
 03  1 13  2 18 30.0000000  0 10G17G26G 5G15G10G30G 6G29G23G18
  21732213.910   -19683167.06449 -15310651.28747  21732213.312    21732219.854
       236.000         198.000
  22760070.906   -10814215.34849  -8112957.92246  22760071.780    22760077.700
       219.000         164.000
  24763403.554    -5658071.99549  -4381938.44345  24763403.972    24763414.472
       210.000         141.000
  23435499.405   -10139649.96949  -7877646.02546  23435498.582    23435506.034
       219.000         164.000
  22653222.990   -12380483.15749  -8989367.76946  22653222.151    22653228.741
       224.000         175.000
  22175219.817   -17925945.88349 -13916445.38646  22175220.045    22175226.255
       231.000         186.000
  20330172.675   -27828579.95749 -21641699.26148  20330172.424    20330177.991
       244.000         215.000
  23049802.868   -10816497.33949  -8412041.01146  23049803.023    23049809.459
       220.000         169.000
  20633106.304   -23252913.73649 -17424922.75748  20633105.628    20633111.717
       245.000         214.000
  23497182.027    -9104437.88449  -6732417.39045  23497181.450    23497188.202
       216.000         156.000
 03  1 13  2 19  0.0000000  0 10G17G26G 5G15G10G30G 6G29G23G18
  21724514.152   -19723629.28349 -15342180.23147  21724513.532    21724519.960
       235.000         198.000
  22745809.913   -10889157.06449  -8171353.95846  22745810.323    22745816.941
       219.000         165.000
  24783414.275    -5552916.90349  -4299999.50145  24783412.990    24783423.893
       209.000         143.000
  23421841.217   -10211423.86049  -7933573.62246  23421840.098    23421849.106
       218.000         164.000
  22670771.419   -12288265.31449  -8917509.70346  22670770.832    22670777.470
       223.000         174.000
  22192300.419   -17836186.64449 -13846503.12446  22192301.050    22192307.395
       229.000         185.000
  20326641.176   -27847138.02449 -21656160.06948  20326641.049    20326646.543
       243.000         215.000
  23041766.348   -10858729.24449  -8444948.89746  23041766.157    23041772.597
       219.000         169.000
  20628400.962   -23277640.27349 -17444190.14248  20628400.625    20628406.429
       244.000         214.000
  23477687.748    -9206880.28949  -6812242.46945  23477686.666    23477693.788
       219.000         158.000
 03  1 13  2 19 30.0000000  0 10G17G26G 5G15G10G30G 6G29G23G18
  21716846.017   -19763925.23649 -15373579.61747  21716845.621    21716852.281
       236.000         199.000
  22731611.225   -10963771.35649  -8229494.86846  22731611.373    22731617.740
       218.000         165.000
  24803410.358    -5447836.98949  -4218119.01945  24803409.927    24803418.217
       203.000         136.000
  23408207.141   -10283070.88049  -7989402.36846  23408206.136    23408214.715
       218.000         164.000
  22688370.063   -12195783.86049  -8845446.20746  22688369.519    22688375.516
       223.000         174.000
  22209430.920   -17746165.18549 -13776356.53646  22209431.011    22209437.485
       229.000         184.000
  20323184.679   -27865301.90149 -21670313.71648  20323184.532    20323190.000
       243.000         215.000
  23033808.070   -10900550.06149  -8477536.46346  23033807.747    23033814.165
       220.000         169.000
  20623793.489   -23301852.63449 -17463056.86748  20623793.085    20623799.069
       243.000         215.000
  23458230.193    -9309129.16049  -6891916.72945  23458230.105    23458236.955
       218.000         157.000
 03  1 13  2 20  0.0000000  0  9G17G26G15G10G30G 6G29G23G18
  21709209.475   -19804055.33849 -15404849.76047  21709208.678    21709215.355
       236.000         199.000
  22717475.450   -11038054.79949  -8287377.94646  22717474.630    22717482.142
       218.000         166.000
  23394597.200   -10354591.13049  -8045132.31246  23394595.768    23394604.127
       218.000         164.000
  22706018.301   -12103041.70549  -8773179.57446  22706017.941    22706024.389
       224.000         173.000
  22226610.678   -17655884.70649 -13706008.10446  22226610.828    22226617.868
       230.000         184.000
  20319803.489   -27883070.04749 -21684158.99448  20319803.413    20319808.790
       243.000         215.000
  23025928.412   -10941957.61449  -8509802.00446  23025928.182    23025933.951
       219.000         168.000
  20619283.784   -23325550.95049 -17481523.03548  20619283.247    20619289.120
       244.000         214.000
  23438810.019    -9411182.26249  -6971438.43745  23438809.190    23438816.675
       216.000         158.000
 03  1 13  2 20 30.0000000  0  9G17G26G15G10G30G 6G29G23G18
  21701604.485   -19844019.61649 -15435990.70447  21701604.052    21701610.504
       236.000         199.000
  22703403.389   -11112003.71049  -8345000.38146  22703403.481    22703409.540
       219.000         166.000
  23381011.474   -10425984.33649  -8100763.28546  23381010.793    23381018.103
       217.000         164.000
  22723715.649   -12010041.47449  -8700711.84146  22723715.409    22723721.229
       224.000         173.000
  22243839.312   -17565347.79849 -13635459.87446  22243839.570    22243846.166
       229.000         184.000
  20316497.926   -27900440.69949 -21697694.54648  20316497.901    20316503.198
       243.000         215.000
  23018127.901   -10982949.28849  -8541743.49046  23018127.642    23018133.748
       220.000         168.000
  20614872.004   -23348734.95849 -17499588.45348  20614871.501    20614877.426
       244.000         214.000
  23419427.498    -9513037.43749  -7050805.93745  23419426.798    23419434.311
       216.000         158.000
 03  1 13  2 21  0.0000000  0  9G17G26G15G10G30G 6G29G23G18
  21694030.960   -19883818.68749 -15467002.90647  21694030.185    21694036.976
       236.000         199.000
  22689395.520   -11185615.03149  -8402359.73946  22689395.199    22689402.477
       219.000         167.000
  23367449.774   -10497250.99449  -8156295.63846  23367449.112    23367456.843
       217.000         164.000
  22741461.589   -11916786.16049  -8628045.34046  22741461.114    22741467.355
       223.000         173.000
  22261116.009   -17474558.02449 -13564714.59446  22261116.310    22261122.721
       230.000         183.000
  20313268.262   -27917412.66149 -21710919.42648  20313268.417    20313273.600
       243.000         215.000
  23010406.882   -11023523.24449  -8573359.47846  23010406.997    23010413.619
       219.000         168.000
  20610558.009   -23371404.87349 -17517253.27348  20610557.638    20610563.441
       244.000         214.000
  23400082.931    -9614692.98049  -7130017.88445  23400082.810    23400090.094
       217.000         158.000
 03  1 13  2 21 30.0000000  0  9G17G26G15G10G30G 6G29G23G18
  21686488.799   -19923452.67549 -15497886.47547  21686488.247    21686494.557
       237.000         200.000
  22675452.608   -11258885.15449  -8459453.23746  22675453.021    22675458.567
       219.000         167.000
  23353912.268   -10568390.65249  -8211729.02646  23353910.784    23353919.594
       217.000         164.000
  22759255.470   -11823278.33549  -8555182.07346  22759254.906    22759261.276
       224.000         173.000
  22278440.323   -17383518.02749 -13493774.33746  22278440.686    22278446.884
       230.000         183.000
  20310114.801   -27933984.10249 -21723832.20948  20310114.690    20310120.165
       244.000         215.000
  23002765.806   -11063677.08949  -8604648.10846  23002765.587    23002771.771
       219.000         168.000
  20606341.898   -23393560.37149 -17534517.25148  20606341.417    20606347.366
       244.000         214.000
  23380776.792    -9716146.57449  -7209072.43845  23380775.246    23380782.825
       217.000         159.000
 03  1 13  2 22  0.0000000  0  9G17G26G15G10G30G 6G29G23G18
  21678978.133   -19962921.17849 -15528641.09547  21678977.546    21678984.151
       236.000         200.000
  22661575.457   -11331809.43049  -8516277.24046  22661575.838    22661581.747
       218.000         167.000
  23340399.080   -10639402.50349  -8267062.82746  23340398.538    23340405.725
       216.000         164.000
  22777097.142   -11729519.76149  -8482123.42546  22777096.484    22777102.297
       223.000         172.000
  22295811.884   -17292229.79449 -13422640.65946  22295812.130    22295818.781
       229.000         183.000
  20307038.013   -27950152.64249 -21736431.04648  20307037.770    20307043.240
       243.000         215.000
  22995205.275   -11103407.63349  -8635606.89846  22995205.091    22995211.508
       219.000         168.000
  20602223.863   -23415200.59849 -17551379.72248  20602223.348    20602229.289
       244.000         214.000
  23361509.577    -9817395.42349  -7287967.48445  23361509.354    23361516.455
       216.000         160.000
 03  1 13  2 22 30.0000000  0  9G17G26G15G10G30G 6G29G23G18
  21671498.572   -20002226.17149 -15559268.30747  21671498.084    21671504.386
       236.000         200.000
  22647764.421   -11404386.40349  -8572830.62046  22647764.339    22647771.135
       220.000         167.000
  23326909.883   -10710288.13449  -8322298.26746  23326908.777    23326917.109
       218.000         163.000
  22794985.680   -11635514.79549  -8408872.77346  22794984.950    22794991.411
       221.000         172.000
  22313229.798   -17200698.02649 -13351317.20146  22313230.312    22313236.159
       229.000         182.000
  20304037.884   -27965918.36149 -21748716.00048  20304037.957    20304043.107
       243.000         215.000
  22987725.395   -11142714.14049  -8666235.27046  22987725.119    22987731.456
       219.000         168.000
  20598203.593   -23436327.20649 -17567841.97148  20598203.281    20598209.182
       243.000         214.000
  23342281.617    -9918438.73949  -7366702.35945  23342281.295    23342287.368
       217.000         160.000
 03  1 13  2 23  0.0000000  0  9G17G26G15G10G30G 6G29G23G18
  21664050.324   -20041366.74249 -15589767.39147  21664049.800    21664056.233
       238.000         200.000
  22634020.301   -11476611.78049  -8629110.03546  22634020.354    22634027.316
       221.000         167.000
  23313444.823   -10781046.73749  -8377434.72646  23313444.019    23313451.736
       216.000         164.000
  22812920.714   -11541265.42949  -8335431.69546  22812920.094    22812926.394
       224.000         171.000
  22330693.622   -17108924.97249 -13279805.72846  22330694.092    22330700.069
       229.000         181.000
  20301114.836   -27981278.94149 -21760685.24848  20301114.621    20301120.051
       245.000         215.000
  22980326.786   -11181593.76949  -8696530.99846  22980326.151    22980332.466
       220.000         167.000
  20594281.134   -23456939.65649 -17583903.57048  20594280.616    20594286.555
       245.000         214.000
  23323093.165   -10019274.10449  -7445275.19545  23323091.820    23323099.316
       217.000         160.000
 03  1 13  2 23 30.0000000  0  9G17G26G15G10G30G 6G29G23G18
  21656633.265   -20080343.46349 -15620138.81047  21656632.995    21656638.946
       236.000         200.000
  22620343.750   -11548482.22949  -8685112.87146  22620343.942    22620350.457
       221.000         168.000
  23300003.851   -10851678.71249  -8432472.50446  23300003.064    23300010.821
       217.000         163.000
  22830901.710   -11446774.58149  -8261802.44646  22830901.196    22830906.918
       222.000         171.000
  22348202.830   -17016913.69249 -13208108.63646  22348203.021    22348209.560
       228.000         181.000
  20298269.131   -27996233.11849 -21772337.82948  20298269.231    20298274.312
       243.000         215.000
  22973009.777   -11220044.39949  -8726492.46146  22973008.757    22973016.280
       218.000         167.000
  20590456.471   -23477038.10849 -17599564.66248  20590456.104    20590461.837
       243.000         214.000
  23303944.686   -10119899.49049  -7523684.43145  23303944.885    23303950.243
       218.000         161.000
 03  1 13  2 24  0.0000000  0  9G17G26G15G10G30G 6G29G23G18
  21649247.357   -20119156.46649 -15650382.65247  21649247.008    21649252.956
       236.000         200.000
  22606735.398   -11619994.19949  -8740836.38546  22606735.373    22606741.669
       221.000         168.000
  23286587.174   -10922183.54249  -8487411.20046  23286586.032    23286594.077
       218.000         163.000
  22848928.171   -11352044.67349  -8187986.90246  22848927.657    22848934.268
       222.000         171.000
  22365756.706   -16924667.04449 -13136228.13246  22365757.758    22365763.419
       228.000         181.000
  20295501.112   -28010779.12749 -21783672.35448  20295501.037    20295506.462
       243.000         215.000
  22965774.854   -11258063.88449  -8756117.96446  22965774.345    22965780.225
       218.000         167.000
  20586729.673   -23496622.43149 -17614825.12848  20586729.294    20586735.071
       244.000         214.000
  23284836.527   -10220312.78849  -7601928.37245  23284835.634    23284842.317
       219.000         161.000
 03  1 13  2 24 30.0000000  0  9G17G26G15G10G30G 6G29G23G18
  21641892.434   -20157806.62149 -15680499.60247  21641891.990    21641898.049
       236.000         200.000
  22593195.833   -11691144.86449  -8796278.35246  22593195.906    22593202.137
       223.000         169.000
  23273194.529   -10992561.90349  -8542251.35646  23273193.583    23273201.490
       217.000         163.000
  22866999.453   -11257079.23449  -8113987.84746  22866998.606    22867005.098
       222.000         170.000
  22383354.776   -16832188.61249 -13064167.01246  22383355.276    22383361.481
       228.000         180.000
  20292810.881   -28024916.17749 -21794688.21648  20292810.759    20292816.094
       243.000         215.000
  22958622.297   -11295650.40349  -8785406.09346  22958621.867    22958628.018
       218.000         167.000
  20583100.566   -23515693.40549 -17629685.58848  20583100.186    20583106.077
       244.000         214.000
  23265769.060   -10320512.28449  -7680005.73645  23265767.994    23265774.230
       217.000         162.000
 03  1 13  2 25  0.0000000  0  9G17G26G15G10G30G 6G29G23G18
  21634568.424   -20196294.23049 -15710489.89147  21634568.060    21634574.109
       238.000         200.000
  22579725.754   -11761930.40149  -8851435.82246  22579725.931    22579731.476
       222.000         169.000
  23259826.009   -11062813.43449  -8596992.66946  23259825.028    23259832.599
       218.000         163.000
  22885115.129   -11161880.61949  -8039807.08546  22885115.154    22885121.177
       223.000         170.000
  22400996.487   -16739480.95049 -12991927.27746  22400996.533    22401002.908
       229.000         180.000
  20290198.891   -28038642.32549 -21805383.88748  20290198.818    20290204.115
       245.000         215.000
  22951552.543   -11332801.69049  -8814355.07746  22951553.030    22951559.164
       220.000         168.000
  20579569.212   -23534250.63349 -17644145.72048  20579568.841    20579574.439
       245.000         214.000
  23246742.728   -10420495.72949  -7757914.74845  23246740.556    23246748.587
       218.000         162.000
 03  1 13  2 25 30.0000000  0  9G17G26G15G10G30G 6G29G23G18
  21627275.379   -20234619.16849 -15740353.42647  21627274.889    21627281.267
       237.000         200.000
  22566325.760   -11832347.70649  -8906306.34746  22566325.478    22566332.305
       225.000         170.000
  23246481.571   -11132938.44449  -8651635.41346  23246480.936    23246488.801
       219.000         164.000
  22903274.667   -11066451.40549  -7965446.63246  22903273.943    22903280.298
       221.000         170.000
  22418681.188   -16646547.30249 -12919511.45146  22418680.930    22418688.470
       229.000         180.000
  20287665.297   -28051956.25549 -21815758.35448  20287665.272    20287670.495
       243.000         215.000
  22944566.048   -11369515.65249  -8842963.29046  22944565.618    22944571.874
       218.000         168.000
  20576135.536   -23552294.57449 -17658205.89348  20576134.988    20576140.976
       243.000         214.000
  23227757.816   -10520261.19549  -7835653.90546  23227756.889    23227764.136
       218.000         163.000
 03  1 13  2 26  0.0000000  0  9G17G26G15G10G30G 6G29G23G18
  21620013.246   -20272781.90349 -15770090.57347  21620012.807    21620018.753
       237.000         201.000
  22552996.516   -11902393.21649  -8960887.16946  22552996.405    22553002.522
       223.000         170.000
  23233161.129   -11202937.02849  -8706179.62446  23233160.438    23233167.656
       218.000         165.000
  22921477.600   -10970794.24249  -7890908.57446  22921477.192    22921484.208
       222.000         170.000
  22436408.328   -16553390.48049 -12846921.71746  22436408.737    22436414.502
       229.000         179.000
  20285210.463   -28064856.41149 -21825810.39748  20285210.451    20285215.773
       243.000         215.000
  22937663.266   -11405789.88449  -8871228.85746  22937662.896    22937669.450
       220.000         169.000
  20572799.496   -23569825.26849 -17671866.13448  20572799.048    20572804.831
       243.000         214.000
  23208814.781   -10619806.78649  -7913221.75146  23208814.412    23208820.598
       218.000         163.000
 03  1 13  2 26 30.0000000  0  9G17G26G15G10G30G 6G29G23G18
  21612781.776   -20310783.21849 -15799701.93747  21612781.393    21612787.366
       238.000         201.000
  22539738.473   -11972064.25649  -9015176.19246  22539738.384    22539744.754
       226.000         170.000
  23219864.763   -11272809.62749  -8760625.66846  23219864.133    23219872.423
       220.000         165.000
  22939723.246   -10874912.69749  -7816195.65646  22939722.441    22939728.505
       224.000         170.000
  22454177.263   -16460014.05649 -12774160.86246  22454177.077    22454184.228
       230.000         179.000
  20282834.513   -28077341.97349 -21835539.38248  20282834.296    20282839.617
       245.000         215.000
  22930844.358   -11441623.10849  -8899150.77446  22930844.057    22930850.026
       222.000         169.000
  20569561.036   -23586843.47149 -17685127.02948  20569560.540    20569566.383
       246.000         214.000
  23189913.910   -10719131.08849  -7990617.12946  23189912.827    23189919.244
       219.000         163.000
 03  1 13  2 27  0.0000000  0  9G17G26G15G10G30G 6G29G23G18
  21605581.091   -20348622.88249 -15829187.34347  21605580.948    21605586.737
       238.000         201.000
  22526552.480   -12041356.77349  -9069170.26446  22526552.432    22526558.578
       224.000         170.000
  23206592.458   -11342555.59449  -8814973.04746  23206591.721    23206599.079
       220.000         166.000
  22958011.144   -10778808.94449  -7741309.60246  22958010.530    22958016.239
       223.000         170.000
  22471987.506   -16366420.38449 -12701230.73046  22471988.286    22471993.976
       229.000         178.000
  20280537.828   -28089410.92649 -21844943.73548  20280537.586    20280542.903
       245.000         215.000
  22924109.927   -11477012.60149  -8926726.92846  22924109.519    22924115.565
       221.000         169.000
  20566420.131   -23603348.81049 -17697988.28748  20566419.614    20566425.440
       245.000         214.000
  23171055.691   -10818231.23849  -8067837.88046  23171054.653    23171061.463
       218.000         164.000
 03  1 13  2 27 30.0000000  0  9G17G26G15G10G30G 6G29G23G18
  21598411.298   -20386300.39449 -15858546.40347  21598410.901    21598417.027
       237.000         201.000
  22513439.287   -12110266.50249  -9122866.07046  22513439.300    22513445.738
       224.000         170.000
  23193344.437   -11412174.10649  -8869221.10446  23193343.532    23193351.308
       221.000         167.000
  22976341.139   -10682484.35249  -7666251.45646  22976340.111    22976346.957
       222.000         169.000
  22489838.713   -16272611.73749 -12628133.09346  22489838.769    22489844.355
       227.000         178.000
  20278320.864   -28101060.91949 -21854021.63348  20278320.831    20278326.047
       243.000         215.000
  22917460.540   -11511955.36949  -8953954.98346  22917460.512    22917467.017
       221.000         170.000
  20563376.952   -23619340.76749 -17710449.51748  20563376.481    20563382.252
       243.000         214.000
  23152240.598   -10917104.55549  -8144881.86046  23152239.888    23152245.701
       221.000         164.000
 03  1 13  2 28  0.0000000  0  9G17G26G15G10G30G 6G29G23G18
  21591272.553   -20423814.64149 -15887778.23847  21591272.183    21591278.196
       238.000         201.000
  22500399.804   -12178789.23049  -9176260.31246  22500400.127    22500405.871
       224.000         171.000
  23180120.798   -11481664.17749  -8923369.08746  23180120.017    23180127.688
       221.000         168.000
  22994712.714   -10585941.02649  -7591022.87946  22994712.142    22994718.592
       221.000         169.000
  22507730.401   -16178590.04049 -12554869.43246  22507731.192    22507737.298
       228.000         177.000
  20276184.126   -28112289.56149 -21862771.20248  20276184.150    20276189.375
       243.000         215.000
  22910896.655   -11546448.46649  -8980832.64346  22910896.796    22910902.438
       220.000         170.000
  20560431.606   -23634818.50549 -17722510.05348  20560431.260    20560436.963
       244.000         214.000
  23133469.266   -11015748.06249  -8221746.79446  23133468.023    23133474.175
       219.000         164.000
 03  1 13  2 28 30.0000000  0  9G17G26G15G10G30G 6G29G23G18
  21584164.027   -20461169.91749 -15916886.19547  21584163.445    21584169.575
       239.000         201.000
  22487433.976   -12246924.91549  -9229352.96046  22487434.523    22487440.150
       226.000         171.000
  23166921.028   -11551029.20449  -8977419.63246  23166920.305    23166928.351
       224.000         168.000
  23013124.689   -10489185.14049  -7515628.66746  23013124.256    23013130.802
       223.000         169.000
  22525661.450   -16084361.72849 -12481444.76246  22525662.139    22525668.176
       229.000         177.000
  20274127.155   -28123098.76849 -21871193.93548  20274127.094    20274132.329
       245.000         215.000
  22904418.095   -11580493.41349  -9007361.09846  22904418.281    22904423.721
       222.000         171.000
  20557583.388   -23649785.75949 -17734172.80348  20557582.872    20557588.739
       246.000         214.000
  23114741.363   -11114163.10049  -8298433.66846  23114740.498    23114747.250
       221.000         165.000
 03  1 13  2 29  0.0000000  0  9G17G26G15G10G30G 6G29G23G18
  21577086.044   -20498364.85549 -15945869.22547  21577085.704    21577091.622
       237.000         202.000
  22474542.582   -12314669.35949  -9282140.75246  22474542.908    22474548.313
       223.000         171.000
  23153745.121   -11620268.35949  -9031372.10346  23153744.756    23153751.702
       223.000         169.000
  23031576.858   -10392218.36849  -7440070.13046  23031576.691    23031583.356
       222.000         169.000
  22543631.438   -15989928.86449 -12407860.70546  22543632.148    22543638.119
       226.000         176.000
  20272150.478   -28133486.30749 -21879288.10248  20272150.502    20272155.672
       243.000         215.000
  22898025.320   -11614087.08349  -9033537.90446  22898025.986    22898030.355
       222.000         171.000
  20554832.429   -23664241.91949 -17745437.30548  20554832.066    20554837.757
       243.000         214.000
  23096057.424   -11212346.94649  -8374940.42846  23096056.863    23096063.301
       221.000         166.000
 03  1 13  2 29 30.0000000  0  9G17G26G15G10G30G 6G29G23G18
  21570038.368   -20535400.61549 -15974728.21947  21570037.973    21570044.086
       238.000         202.000
  22461726.195   -12382019.47649  -9334621.28846  22461726.151    22461732.873
       224.000         172.000
  23140593.195   -11689381.69349  -9085226.52846  23140592.861    23140599.074
       224.000         170.000
  23050068.613   -10295043.48949  -7364349.43046  23050067.710    23050074.297
       222.000         168.000
  22561639.735   -15895294.61349 -12334119.73546  22561639.872    22561646.771
       227.000         176.000
  20270254.218   -28143451.11449 -21887052.86548  20270254.135    20270259.460
       244.000         215.000
  22891718.860   -11647227.72249  -9059361.70546  22891718.563    22891723.843
       222.000         171.000
  20552178.653   -23678187.55149 -17756303.99448  20552178.123    20552183.934
       244.000         214.000
  23077417.886   -11310297.76249  -8451265.60246  23077417.476    23077423.724
       220.000         166.000
 03  1 13  2 30  0.0000000  0  9G17G26G15G10G30G 6G29G23G18
  21563021.094   -20572276.51749 -16003462.64247  21563021.031    21563026.752
       237.000         202.000
  22448985.561   -12448971.51449  -9386791.61646  22448985.361    22448991.410
       223.000         172.000
  23127465.295   -11758368.78049  -9138982.59046  23127465.039    23127471.588
       224.000         170.000
  23068599.511   -10197662.70649  -7288468.27846  23068598.392    23068604.721
       220.000         167.000
  22579685.870   -15800461.69049 -12260223.94746  22579686.209    22579692.656
       225.000         176.000
  20268438.775   -28152991.31449 -21894486.76248  20268438.652    20268444.083
       244.000         215.000
  22885499.028   -11679913.15249  -9084830.80546  22885498.739    22885504.340
       220.000         171.000
  20549622.035   -23691622.48149 -17766772.72748  20549621.673    20549627.198
       244.000         214.000
  23058823.194   -11408013.15449  -8527407.33246  23058822.040    23058829.240
       219.000         166.000
 03  1 13  2 30 30.0000000  0  9G17G26G15G10G30G 6G29G23G18
  21556034.086   -20608993.30749 -16032073.08747  21556033.529    21556039.624
       237.000         202.000
  22436321.276   -12515522.54749  -9438649.49346  22436321.618    22436326.735
       225.000         173.000
  23114361.390   -11827230.04749  -9192640.60846  23114360.211    23114367.799
       224.000         171.000
  23087169.024   -10100079.21049  -7212429.17346  23087169.035    23087175.023
       221.000         167.000
  22597769.167   -15705433.26549 -12186175.82046  22597769.330    22597775.487
       225.000         175.000
  20266704.290   -28162105.89749 -21901589.01448  20266704.173    20266709.460
       243.000         215.000
  22879366.082   -11712141.46749  -9109943.70846  22879365.795    22879371.369
       221.000         172.000
  20547162.507   -23704547.27349 -17776843.95248  20547162.176    20547167.876
       243.000         215.000
  23040273.583   -11505491.43649  -8603364.29446  23040272.951    23040278.800
       221.000         167.000
 03  1 13  2 31  0.0000000  0  9G17G26G15G10G30G 6G29G23G18
  21549077.355   -20645551.08749 -16060559.62347  21549077.084    21549082.998
       237.000         202.000
  22423734.042   -12581668.88849  -9490192.01846  22423734.472    22423739.903
       224.000         173.000
  23101281.386   -11895965.22649  -9246200.38046  23101279.967    23101287.783
       225.000         170.000
  23105776.653   -10002295.42749  -7136233.99446  23105775.445    23105782.580
       220.000         167.000
  22615889.184   -15610212.07549 -12111977.50346  22615889.056    22615896.043
       226.000         175.000
  20265051.140   -28170793.12449 -21908358.25648  20265051.177    20265056.482
       243.000         215.000
  22873320.583   -11743910.53249  -9134698.75646  22873320.660    22873326.371
       222.000         172.000
  20544799.980   -23716962.22749 -17786517.89948  20544799.601    20544805.225
       243.000         215.000
  23021769.466   -11602730.51049  -8679134.85946  23021768.801    23021775.028
       222.000         167.000
 03  1 13  2 31 30.0000000  0  9G17G26G15G10G30G 6G29G23G18
  21542150.789   -20681950.12449 -16088922.46247  21542150.500    21542156.366
       238.000         202.000
  22411224.252   -12647407.94549  -9541417.17746  22411224.312    22411230.373
       224.000         173.000
  23088225.348   -11964574.90049  -9299662.35546  23088224.904    23088232.547
       225.000         170.000
  23124421.822    -9904314.16049  -7059884.93046  23124420.587    23124427.584
       220.000         167.000
  22634045.185   -15514801.63449 -12037631.69846  22634045.716    22634052.040
       227.000         175.000
  20263479.480   -28179052.24349 -21914793.91248  20263479.425    20263484.793
       245.000         215.000
  22867362.734   -11775218.91849  -9159094.82846  22867362.554    22867368.114
       223.000         172.000
  20542534.322   -23728868.18349 -17795795.22348  20542534.010    20542539.655
       245.000         215.000
  23003311.181   -11699728.81949  -8754717.82946  23003310.909    23003316.503
       223.000         168.000
